[[{"header":{"parameterUnit":"m.s-1","parameterCategory":1,"la1":30.6,"la2":28.766,"lo1":-90.7593,"lo2":-88.6598,"dy":0.0162,"dx":0.0183,"nx":116,"ny":114,"refTime":"2023-05-12T12:00:00:Z","depth":0,"parameterNumber":2,"parameterNumberName":"U-component_of_WINDS"},"data":[0.0,0.0,0.0,0.0,0.0,0.0,0.0,0.0,0.0,0.0,0.0,0.0,0.0,0.0,0.0,0.0,0.0,0.0,0.0,0.0,0.0,0.0,0.0,0.0,0.0,0.0,0.0,0.0,0.0,0.0,0.0,0.0,0.0,0.0,0.0,0.0,0.0,0.0,0.0,0.0,0.0,0.0,0.0,0.0,0.0,0.0,0.0,0.0,0.0,0.0,0.0,0.0,0.0,0.0,0.0,0.0,0.0,0.0,0.0,0.0,0.0,0.0,0.0,0.0,0.0,0.0,0.0,0.0,0.0,0.0,0.0,0.0,0.0,0.0,0.0,0.0,0.0,0.0,0.0,0.0,0.0,0.0,0.0,0.0,0.0,0.0,0.0,0.0,0.0,0.0,0.0,0.0,0.0,0.0,0.0,0.0,0.0,0.0,0.0,0.0,0.0,0.0,0.0,0.0,0.0,0.0,0.0,0.0,0.0,0.0,0.0,0.0,0.0,0.0,0.0,0.0,0.0,0.0,0.0,0.0,0.0,0.0,0.0,0.0,0.0,0.0,0.0,0.0,0.0,0.0,0.0,0.0,0.0,0.0,0.0,0.0,0.0,0.0,0.0,0.0,0.0,0.0,0.0,0.0,0.0,0.0,0.0,0.0,0.0,0.0,0.0,0.0,0.0,0.0,0.0,0.0,0.0,0.0,0.0,0.0,0.0,0.0,0.0,0.0,0.0,0.0,0.0,0.0,0.0,0.0,0.0,0.0,0.0,0.0,0.0,0.0,0.0,0.0,0.0,0.0,0.0,0.0,0.0,0.0,0.0,0.0,0.0,0.0,0.0,0.0,0.0,0.0,0.0,0.0,0.0,0.0,0.0,0.0,0.0,0.0,0.0,0.0,0.0,0.0,0.0,0.0,0.0,0.0,0.0,0.0,0.0,0.0,0.0,0.0,0.0,0.0,0.0,0.0,0.0,0.0,0.0,0.0,0.0,0.0,0.0,0.0,0.0,0.0,0.0,0.0,0.0,0.0,0.0,0.0,0.0,0.0,0.0,0.0,0.0,0.0,0.0,0.0,0.0,0.0,0.0,0.0,0.0,0.0,0.0,0.0,0.0,0.0,0.0,0.0,0.0,0.0,0.0,0.0,0.0,0.0,0.0,0.0,0.0,0.0,0.0,0.0,0.0,0.0,0.0,0.0,0.0,0.0,0.0,0.0,0.0,0.0,0.0,0.0,0.0,0.0,0.0,0.0,0.0,0.0,0.0,0.0,0.0,0.0,0.0,0.0,0.0,0.0,0.0,0.0,0.0,0.0,0.0,0.0,0.0,0.0,0.0,0.0,0.0,0.0,0.0,0.0,0.0,0.0,0.0,0.0,0.0,0.0,0.0,0.0,0.0,0.0,0.0,0.0,0.0,0.0,0.0,0.0,0.0,0.0,0.0,0.0,0.0,0.0,0.0,0.0,0.0,0.0,0.0,0.0,0.0,0.0,0.0,0.0,0.0,0.0,0.0,0.0,0.0,0.0,0.0,0.0,0.0,0.0,0.0,0.0,0.0,0.0,0.0,0.0,0.0,0.0,0.0,0.0,0.0,0.0,0.0,0.0,0.0,0.0,0.0,0.0,0.0,0.0,0.0,0.0,0.0,0.0,0.0,0.0,0.0,0.0,0.0,0.0,0.0,0.0,0.0,0.0,0.0,0.0,0.0,0.0,0.0,0.0,0.0,0.0,0.0,0.0,0.0,0.0,0.0,0.0,0.0,0.0,0.0,0.0,0.0,0.0,0.0,0.0,0.0,0.0,0.0,0.0,0.0,0.0,0.0,0.0,0.0,0.0,0.0,0.0,0.0,0.0,0.0,0.0,0.0,0.0,0.0,0.0,0.0,0.0,0.0,0.0,0.0,0.0,0.0,0.0,0.0,0.0,0.0,0.0,0.0,0.0,0.0,0.0,0.0,0.0,0.0,0.0,0.0,0.0,0.0,0.0,0.0,0.0,0.0,0.0,0.0,0.0,0.0,0.0,0.0,0.0,0.0,0.0,0.0,0.0,0.0,0.0,0.0,0.0,0.0,0.0,0.0,0.0,0.0,0.0,0.0,0.0,0.0,0.0,0.0,0.0,0.0,0.0,0.0,0.0,0.0,0.0,0.0,0.0,0.0,0.0,0.0,0.0,0.0,0.0,0.0,0.0,0.0,0.0,0.0,0.0,0.0,0.0,0.0,0.0,0.0,0.0,0.0,0.0,0.0,0.0,0.0,0.0,0.0,0.0,0.0,0.0,0.0,0.0,0.0,0.0,0.0,0.0,0.0,0.0,0.0,0.0,0.0,0.0,0.0,0.0,0.0,0.0,0.0,0.0,0.0,0.0,0.0,0.0,0.0,0.0,0.0,0.0,0.0,0.0,0.0,0.0,0.0,0.0,0.0,0.0,0.0,0.0,0.0,0.0,0.0,0.0,0.0,0.0,0.0,0.0,0.0,0.0,0.0,0.0,0.0,0.0,0.0,0.0,0.0,0.0,0.0,0.0,0.0,0.0,0.0,0.0,0.0,0.0,0.0,0.0,0.0,0.0,0.0,0.0,0.0,0.0,0.0,0.0,0.0,0.0,0.0,0.0,0.0,0.0,0.0,0.0,0.0,0.0,0.0,0.0,0.0,0.0,0.0,0.0,0.0,0.0,0.0,0.0,0.0,0.0,0.0,0.0,0.0,0.0,0.0,0.0,0.0,0.0,0.0,0.0,0.0,0.0,0.0,0.0,0.0,0.0,0.0,0.0,0.0,0.0,0.0,0.0,0.0,0.0,0.0,0.0,0.0,0.0,0.0,0.0,0.0,0.0,0.0,0.0,0.0,0.0,0.0,0.0,0.0,0.0,0.0,0.0,0.0,0.0,0.0,0.0,0.0,0.0,0.0,0.0,0.0,0.0,0.0,0.0,0.0,0.0,0.0,0.0,0.0,0.0,0.0,0.0,0.0,0.0,0.0,0.0,0.0,0.0,0.0,0.0,0.0,0.0,0.0,0.0,0.0,0.0,0.0,0.0,0.0,0.0,0.0,0.0,0.0,0.0,0.0,0.0,0.0,0.0,0.0,0.0,0.0,0.0,0.0,0.0,0.0,0.0,0.0,0.0,0.0,0.0,0.0,0.0,0.0,0.0,0.0,0.0,0.0,0.0,0.0,0.0,0.0,0.0,0.0,0.0,0.0,0.0,0.0,0.0,0.0,0.0,0.0,0.0,0.0,0.0,0.0,0.0,0.0,0.0,0.0,0.0,0.0,0.0,0.0,0.0,0.0,0.0,0.0,0.0,0.0,0.0,0.0,0.0,0.0,0.0,0.0,0.0,0.0,0.0,0.0,0.0,0.0,0.0,0.0,0.0,0.0,0.0,0.0,0.0,0.0,0.0,0.0,0.0,0.0,0.0,0.0,0.0,0.0,0.0,0.0,0.0,0.0,0.0,0.0,0.0,0.0,0.0,0.0,0.0,0.0,0.0,0.0,0.0,0.0,0.0,0.0,0.0,0.0,0.0,0.0,0.0,0.0,0.0,0.0,0.0,0.0,0.0,0.0,0.0,0.0,0.0,0.0,0.0,0.0,0.0,0.0,0.0,0.0,0.0,0.0,0.0,0.0,0.0,0.0,0.0,0.0,0.0,0.0,0.0,0.0,0.0,0.0,0.0,0.0,0.0,0.0,0.0,0.0,0.0,0.0,0.0,0.0,0.0,0.0,0.0,0.0,0.0,0.0,0.0,0.0,0.0,0.0,0.0,0.0,0.0,0.0,0.0,0.0,0.0,0.0,0.0,0.0,0.0,0.0,0.0,0.0,0.0,0.0,0.0,0.0,0.0,0.0,0.0,0.0,0.0,0.0,0.0,0.0,0.0,0.0,0.0,0.0,0.0,0.0,0.0,0.0,0.0,0.0,0.0,0.0,0.0,0.0,0.0,0.0,0.0,0.0,0.0,0.0,0.0,0.0,0.0,0.0,0.0,0.0,0.0,0.0,0.0,0.0,0.0,0.0,0.0,0.0,0.0,0.0,0.0,0.0,0.0,0.0,0.0,0.0,0.0,0.0,0.0,0.0,0.0,0.0,0.0,0.0,0.0,0.0,0.0,0.0,0.0,0.0,0.0,0.0,0.0,0.0,0.0,0.0,0.0,0.0,0.0,0.0,0.0,0.0,0.0,0.0,0.0,0.0,0.0,0.0,0.0,0.0,0.0,0.0,0.0,0.0,0.0,0.0,0.0,0.0,0.0,0.0,0.0,0.0,0.0,0.0,0.0,0.0,0.0,0.0,0.0,0.0,0.0,0.0,0.0,0.0,0.0,0.0,0.0,0.0,0.0,0.0,0.0,0.0,0.0,0.0,0.0,0.0,0.0,0.0,0.0,0.0,0.0,0.0,0.0,0.0,0.0,0.0,0.0,0.0,0.0,0.0,0.0,0.0,0.0,0.0,0.0,0.0,0.0,0.0,0.0,0.0,0.0,0.0,0.0,0.0,0.0,0.0,0.0,0.0,0.0,0.0,0.0,0.0,0.0,0.0,0.0,0.0,0.0,0.0,0.0,0.0,0.0,0.0,0.0,0.0,0.0,0.0,0.0,0.0,0.0,0.0,0.0,0.0,0.0,0.0,0.0,0.0,0.0,0.0,0.0,0.0,0.0,0.0,0.0,0.0,0.0,0.0,0.0,0.0,0.0,0.0,0.0,0.0,0.0,0.0,0.0,0.0,0.0,0.0,0.0,0.0,0.0,0.0,0.0,0.0,0.0,0.0,0.0,0.0,0.0,0.0,0.0,0.0,0.0,0.0,0.0,0.0,0.0,0.0,0.0,0.0,0.0,0.0,0.0,0.0,0.0,0.0,0.0,0.0,0.0,0.0,0.0,0.0,0.0,0.0,0.0,0.0,0.0,0.0,0.0,0.0,0.0,0.0,0.0,0.0,0.0,0.0,0.0,0.0,0.0,0.0,0.0,0.0,0.0,0.0,0.0,0.0,0.0,0.0,0.0,0.0,0.0,0.0,0.0,0.0,0.0,0.0,0.0,0.0,0.0,0.0,0.0,0.0,0.0,0.0,0.0,0.0,0.0,0.0,0.0,0.0,0.0,0.0,0.0,0.0,0.0,0.0,0.0,0.0,0.0,0.0,0.0,0.0,0.0,0.0,0.0,0.0,0.0,0.0,0.0,0.0,0.0,0.0,0.0,0.0,0.0,0.0,0.0,0.0,0.0,0.0,0.0,0.0,0.0,0.0,0.0,0.0,0.0,0.0,0.0,0.0,0.0,0.0,0.0,0.0,0.0,0.0,0.0,0.0,0.0,0.0,0.0,0.0,0.0,0.0,0.0,0.0,0.0,0.0,0.0,0.0,0.0,0.0,0.0,0.0,0.0,0.0,0.0,0.0,0.0,0.0,0.0,0.0,0.0,0.0,0.0,0.0,0.0,0.0,0.0,0.0,0.0,0.0,0.0,0.0,0.0,0.0,0.0,0.0,0.0,0.0,0.0,0.0,0.0,0.0,0.0,0.0,0.0,0.0,0.0,0.0,0.0,0.0,0.0,0.0,0.0,0.0,0.0,0.0,0.0,0.0,0.0,0.0,0.0,0.0,0.0,0.0,0.0,0.0,0.0,0.0,0.0,0.0,0.0,0.0,0.0,0.0,0.0,0.0,0.0,0.0,0.0,0.0,0.0,0.0,0.0,0.0,0.0,0.0,0.0,0.0,0.0,0.0,0.0,0.0,0.0,0.0,0.0,0.0,0.0,0.0,0.0,0.0,0.0,0.0,0.0,0.0,0.0,0.0,0.0,0.0,0.0,0.0,0.0,0.0,0.0,0.0,0.0,0.0,0.0,0.0,0.0,0.0,0.0,0.0,0.0,0.0,0.0,0.0,0.0,0.0,0.0,0.0,0.0,0.0,0.0,0.0,0.0,0.0,0.0,0.0,0.0,0.0,0.0,0.0,0.0,0.0,0.0,0.0,0.0,0.0,0.0,0.0,0.0,0.0,0.0,0.0,0.0,0.0,0.0,0.0,0.0,0.0,0.0,0.0,0.0,0.0,0.0,0.0,0.0,0.0,0.0,0.0,0.0,0.0,0.0,0.0,0.0,0.0,0.0,-1.4435,0.0,0.0,0.0,0.0,0.0,0.0,0.0,0.0,0.0,0.0,0.0,0.0,0.0,0.0,0.0,0.0,0.0,0.0,0.0,0.0,0.0,0.0,0.0,0.0,0.0,0.0,0.0,0.0,0.0,0.0,0.0,0.0,0.0,0.0,0.0,0.0,0.0,0.0,-1.309,-1.324,-1.33,-1.3232,-1.1662,-1.0137,-0.8722,0.0,0.0,0.0,0.0,0.0,0.0,0.0,0.0,0.0,0.0,0.0,0.0,0.0,0.0,0.0,0.0,0.0,0.0,0.0,0.0,0.0,0.0,0.0,0.0,0.0,0.0,0.0,0.0,0.0,0.0,0.0,0.0,0.0,0.0,0.0,0.0,0.0,0.0,0.0,0.0,0.0,0.0,0.0,0.0,0.0,0.0,0.0,0.0,0.0,0.0,0.0,0.0,0.0,0.0,0.0,0.0,0.0,0.0,0.0,0.0,0.0,0.0,0.0,0.0,0.0,0.0,0.0,0.0,0.0,0.0,0.0,-1.5946,0.0,0.0,0.0,0.0,0.0,0.0,0.0,0.0,0.0,0.0,0.0,0.0,0.0,0.0,0.0,0.0,0.0,0.0,0.0,0.0,0.0,0.0,0.0,-1.1517,-1.2092,-1.2187,-1.1304,-1.0659,0.0,0.0,0.0,0.0,0.0,0.0,-1.2738,-1.279,-1.3131,-1.3807,-1.4162,-1.4459,-1.4751,-1.3908,-1.2523,-1.0715,-1.0711,0.0,0.0,0.0,0.0,0.0,0.0,0.0,0.0,0.0,0.0,0.0,0.0,0.0,0.0,0.0,0.0,0.0,0.0,0.0,0.0,0.0,0.0,0.0,0.0,0.0,0.0,0.0,0.0,0.0,0.0,0.0,0.0,0.0,0.0,0.0,0.0,0.0,0.0,0.0,0.0,0.0,0.0,0.0,0.0,0.0,0.0,0.0,0.0,0.0,0.0,0.0,0.0,0.0,0.0,0.0,0.0,0.0,0.0,0.0,0.0,0.0,0.0,0.0,-1.874,-1.9851,-2.1184,-2.1024,-2.0861,-2.0556,-1.836,-1.7168,-1.6908,-1.8195,0.0,0.0,0.0,0.0,0.0,0.0,0.0,0.0,0.0,0.0,0.0,0.0,0.0,0.0,0.0,0.0,0.0,0.0,0.0,-1.0678,-1.1594,-1.1842,-1.2091,-1.2497,-1.2023,-1.1359,-1.0547,0.0,0.0,0.0,0.0,0.0,-1.3838,-1.3883,-1.4142,-1.4645,-1.5041,-1.5819,-1.6947,-1.6108,-1.5221,-1.4207,-1.2148,-1.1167,-1.1094,0.0,0.0,0.0,0.0,0.0,0.0,0.0,0.0,0.0,0.0,0.0,0.0,0.0,0.0,0.0,0.0,0.0,0.0,0.0,0.0,0.0,0.0,0.0,0.0,0.0,0.0,0.0,0.0,0.0,0.0,0.0,0.0,0.0,0.0,0.0,0.0,0.0,0.0,0.0,0.0,0.0,-1.289,-1.2837,0.0,0.0,0.0,0.0,0.0,0.0,0.0,0.0,0.0,0.0,0.0,0.0,0.0,-1.5434,-1.5633,-1.7547,-1.8408,-1.8167,-1.9486,-2.0062,-1.996,-1.9913,-2.0317,-2.1058,-2.1324,0.0,-1.9217,-1.8857,0.0,0.0,0.0,0.0,0.0,0.0,0.0,0.0,0.0,0.0,0.0,0.0,0.0,0.0,0.0,0.0,0.0,0.0,0.0,0.0,0.0,-1.3345,-1.3964,-1.4147,-1.4303,-1.3707,-1.2056,-1.2153,0.0,0.0,0.0,-1.2672,-1.3743,-1.3977,-1.4562,-1.5537,-1.666,-1.7637,-1.8457,-1.8069,-1.7603,-1.6981,-1.5256,-1.3467,-1.1623,-1.0915,0.0,0.0,0.0,0.0,0.0,0.0,0.0,0.0,0.0,0.0,0.0,0.0,0.0,0.0,0.0,0.0,0.0,0.0,0.0,0.0,0.0,0.0,0.0,0.0,0.0,0.0,0.0,0.0,0.0,0.0,0.0,0.0,0.0,0.0,0.0,0.0,0.0,0.0,0.0,-1.6178,-1.6119,-1.4202,-1.4965,-1.5165,0.0,0.0,0.0,0.0,0.0,0.0,0.0,0.0,0.0,-1.5527,-1.5999,-1.6565,-1.7148,-1.9102,-2.0335,-2.0864,-2.2515,-2.3361,-2.3522,-2.3815,-2.4204,-2.4633,-2.5256,-2.4773,-2.3405,-2.1834,-2.1014,-2.0634,0.0,0.0,0.0,0.0,-2.0466,-2.111,0.0,0.0,0.0,0.0,0.0,0.0,0.0,0.0,0.0,0.0,0.0,0.0,-1.3784,-1.4888,-1.5762,-1.6161,-1.6237,-1.5538,-1.387,-1.3535,-1.3052,-1.2175,-1.2635,-1.319,-1.3828,-1.4445,-1.5459,-1.6926,-1.8281,-1.9297,-1.9961,-1.9961,-1.9697,-1.9158,-1.8174,-1.5841,-1.2652,-1.177,-1.1335,-1.12,0.0,0.0,0.0,0.0,0.0,0.0,0.0,0.0,0.0,0.0,0.0,0.0,0.0,0.0,0.0,0.0,0.0,0.0,0.0,0.0,0.0,0.0,0.0,0.0,0.0,0.0,0.0,0.0,0.0,0.0,0.0,0.0,0.0,0.0,0.0,0.0,0.0,-1.8145,-1.8423,-1.5732,-1.7267,-1.7763,0.0,0.0,0.0,0.0,0.0,0.0,-1.6055,-1.6863,-1.748,-1.7788,-1.7908,-1.8388,-1.9269,-2.0604,-2.1882,-2.3018,-2.4943,-2.606,-2.6516,-2.7187,-2.757,-2.772,-2.8147,-2.7846,-2.6952,-2.4682,-2.3201,-2.2264,-2.1594,-2.151,-2.1777,-2.2013,-2.248,-2.3108,0.0,0.0,0.0,0.0,0.0,0.0,0.0,0.0,0.0,0.0,0.0,-1.3662,-1.5701,-1.6026,-1.6731,-1.8305,-1.6999,-1.5973,-1.561,-1.4269,-1.3366,-1.305,-1.3681,-1.4243,-1.4707,-1.5927,-1.7389,-1.9121,-1.9609,-2.0508,-2.1758,-2.1758,-2.137,-2.0562,-1.9916,-1.7871,-1.4721,-1.3184,-1.2698,-1.2833,-1.1247,0.0,0.0,0.0,0.0,0.0,0.0,0.0,0.0,0.0,0.0,0.0,0.0,0.0,0.0,0.0,0.0,0.0,0.0,0.0,0.0,0.0,0.0,0.0,0.0,0.0,0.0,0.0,0.0,0.0,0.0,0.0,0.0,0.0,0.0,0.0,0.0,0.0,0.0,-1.7172,-1.8475,0.0,0.0,0.0,0.0,-1.8396,-1.8368,-1.8227,-1.7891,-1.9644,-2.0681,-2.0667,-2.1111,-2.175,-2.264,-2.2601,-2.2853,-2.3297,-2.5432,-2.6467,-2.6552,-2.7582,-2.8348,-2.8813,-2.8838,-2.8813,-2.8587,-2.6389,-2.5159,-2.4575,-2.4048,-2.4417,-2.5269,-2.4793,-2.4968,-2.5377,0.0,0.0,0.0,0.0,0.0,0.0,0.0,0.0,-1.343,-1.3719,-1.4449,-1.5348,-1.6375,-1.748,-1.8379,-1.9004,-1.875,-1.7925,-1.6427,-1.5845,-1.5158,-1.4239,-1.4665,-1.543,-1.6445,-1.7441,-1.8672,-2.0155,-2.1094,-2.1973,-2.2652,-2.2652,-2.2495,-2.2201,-2.1736,-2.0389,-1.8331,-1.6117,-1.4812,-1.4169,-1.2977,-1.2165,0.0,0.0,0.0,0.0,0.0,0.0,0.0,0.0,0.0,0.0,0.0,0.0,0.0,0.0,0.0,0.0,0.0,0.0,0.0,0.0,0.0,0.0,0.0,0.0,0.0,0.0,0.0,0.0,0.0,0.0,0.0,0.0,0.0,0.0,0.0,0.0,0.0,-2.0235,-2.2034,0.0,-2.1729,-2.1129,-2.0796,-2.0808,-2.1035,-2.1046,-2.0726,-2.166,-2.2633,-2.3652,-2.3105,-2.31,-2.3733,-2.4375,-2.4934,-2.5376,-2.6827,-2.7912,-2.8642,-2.9024,-2.9302,-2.9478,-2.9478,-2.9478,-2.9428,-2.8624,-2.7544,-2.6364,-2.5845,-2.5845,-2.6197,-2.6339,-2.6741,-2.7243,0.0,0.0,0.0,0.0,0.0,0.0,0.0,0.0,-1.4055,-1.4484,-1.5449,-1.6496,-1.748,-1.8867,-1.9881,-2.0137,-1.9746,-1.8851,-1.7428,-1.6531,-1.5742,-1.5019,-1.5547,-1.6465,-1.7773,-1.8769,-1.9863,-2.1055,-2.2168,-2.2828,-2.3101,-2.3101,-2.3101,-2.3081,-2.2808,-2.2197,-2.1179,-1.9366,-1.7572,-1.5808,-1.4546,-1.3834,-1.3364,0.0,0.0,0.0,0.0,0.0,0.0,0.0,0.0,0.0,0.0,0.0,0.0,0.0,0.0,0.0,0.0,0.0,0.0,0.0,0.0,0.0,0.0,0.0,0.0,0.0,0.0,0.0,0.0,0.0,0.0,0.0,0.0,0.0,0.0,0.0,-2.3733,-2.3147,-2.4836,-2.561,-2.4441,-2.3685,-2.3282,-2.3293,-2.353,-2.3607,-2.3421,-2.4193,-2.5122,-2.6168,-2.5076,-2.4645,-2.4968,-2.4927,-2.5036,-2.5358,-2.6871,-2.7947,-2.8712,-2.9468,-2.9804,-2.9804,-2.9804,-2.9804,-2.9804,-2.9804,-2.9126,-2.8097,-2.7756,-2.763,-2.7656,-2.7996,-2.8348,-2.8725,0.0,0.0,0.0,0.0,0.0,0.0,-1.3437,-1.3535,-1.4004,-1.5254,-1.587,-1.7005,-1.9082,-2.0136,-2.1016,-2.1836,-1.9902,-1.8598,-1.8598,-1.6211,-1.5,-1.5449,-1.6278,-1.735,-1.8656,-1.9941,-2.1055,-2.1934,-2.2734,-2.3101,-2.3101,-2.3101,-2.3101,-2.3101,-2.3101,-2.3101,-2.3062,-2.2652,-2.0783,-1.7878,-1.5878,-1.5825,-1.6688,0.0,0.0,0.0,0.0,0.0,0.0,0.0,0.0,0.0,0.0,0.0,0.0,0.0,0.0,0.0,0.0,0.0,0.0,0.0,0.0,0.0,0.0,0.0,0.0,0.0,0.0,0.0,0.0,0.0,0.0,0.0,0.0,0.0,-2.2615,-2.4468,-2.5661,-2.5686,-2.6691,-2.6942,-2.5837,-2.5836,-2.5935,-2.5898,-2.5908,-2.5904,-2.5864,-2.7305,-2.8084,-2.8084,-2.7075,-2.6524,-2.6442,-2.4317,-2.3188,-2.3169,-2.54,-2.6483,-2.6565,-2.8712,-2.9702,-2.974,-2.974,-2.974,-2.9804,-2.9804,-2.9804,-2.9804,-2.9804,-2.9804,-2.9804,-2.9804,-2.9804,-2.9804,0.0,0.0,0.0,0.0,0.0,0.0,-1.3496,-1.4043,-1.4668,-1.5332,-1.7148,-1.875,-1.9648,-2.1348,-2.2402,-2.2344,-2.0078,-1.8652,-1.8598,-1.6211,-1.541,-1.6777,-1.7363,-1.852,-2.043,-2.0839,-2.158,-2.275,-2.2984,-2.3101,-2.3101,-2.3101,-2.3101,-2.3101,-2.3101,-2.3101,-2.3081,-2.2964,-2.2272,-2.1058,-1.9279,-1.8024,-1.7111,0.0,0.0,0.0,0.0,0.0,0.0,0.0,0.0,0.0,0.0,0.0,0.0,0.0,0.0,0.0,0.0,0.0,0.0,0.0,0.0,0.0,0.0,0.0,0.0,0.0,0.0,0.0,0.0,0.0,0.0,0.0,0.0,-2.4715,-2.5367,-2.6227,-2.7118,-2.7921,-2.9001,-2.9428,-2.8699,-2.8674,-2.8366,-2.752,-2.8222,-2.8352,-2.7512,-2.7853,-2.8084,-2.8084,-2.7804,-2.6912,-2.5294,-2.5484,-2.5147,-2.4339,-2.4957,-2.5714,-2.6524,-2.7139,-2.7827,-2.8569,-2.8569,-2.9028,-2.9804,-2.9804,-2.9804,-2.9804,-2.9804,-2.9804,-2.9804,-2.9804,-2.9804,-2.9804,0.0,0.0,0.0,0.0,0.0,0.0,-1.3242,-1.3672,-1.4285,-1.5039,-1.709,-1.8789,-1.957,-2.1229,-2.199,-2.123,-1.9629,-1.834,-1.7598,-1.6328,-1.6289,-1.7832,-1.8477,-1.9648,-2.1465,-2.1814,-2.2438,-2.3418,-2.3418,-2.3418,-2.3398,-2.3179,-2.3101,-2.3101,-2.332,-2.3418,-2.3418,-2.3549,-2.3535,-2.3203,-2.2012,-2.0737,-1.9373,-1.7804,-1.6869,-1.6246,-1.5022,-1.4756,-1.4698,-1.3012,0.0,0.0,0.0,0.0,0.0,0.0,0.0,0.0,0.0,0.0,0.0,0.0,0.0,0.0,0.0,0.0,0.0,0.0,0.0,0.0,0.0,0.0,0.0,0.0,-2.5791,-2.7176,-2.811,-2.8473,-2.8925,-2.9515,-3.0231,-3.0407,-2.9854,-2.9804,-2.9546,-2.8846,-2.9443,-2.9607,-2.9187,-2.8928,-2.8928,-2.9147,-2.8467,-2.7458,-2.6191,-2.5922,-2.5462,-2.4787,-2.4787,-2.5168,-2.5797,-2.6276,-2.683,-2.7441,-2.7441,-2.8068,-2.9106,-2.9106,-2.9365,0.0,0.0,0.0,0.0,0.0,-2.9804,-2.9804,0.0,0.0,0.0,0.0,0.0,0.0,-1.2774,-1.2886,-1.3404,-1.4551,-1.623,-1.7734,-1.8867,-2.0118,-2.043,-1.9316,-1.8695,-1.7793,-1.6339,-1.6621,-1.7428,-1.8754,-1.9592,-2.0664,-2.1934,-2.2773,-2.3398,-2.3789,-2.3828,-2.3828,-2.3789,-2.3393,-2.3218,-2.3198,-2.3672,-2.3867,-2.3887,-2.4258,-2.4414,-2.4375,-2.3965,-2.3301,-2.2363,-2.0352,-1.9793,-1.9845,-1.8193,-1.7027,-1.6067,-1.5019,0.0,0.0,0.0,0.0,0.0,0.0,0.0,0.0,0.0,0.0,0.0,0.0,0.0,0.0,0.0,0.0,0.0,0.0,0.0,0.0,0.0,0.0,0.0,0.0,-2.7841,-2.9026,-3.0583,-3.0859,-3.0834,-3.0633,-3.0733,-3.0532,-2.9854,-2.9854,-2.988,-2.988,-2.988,-3.0131,-3.0683,0.0,0.0,0.0,0.0,-2.8155,-2.7723,-2.59,-2.4893,-2.47,-2.47,-2.4721,-2.4784,-2.5804,-2.6349,-2.6432,-2.6432,-2.7053,-2.8049,-2.8122,-2.8736,-2.9546,-2.8648,-2.891,-2.9804,-2.9804,-2.9804,-2.9804,0.0,0.0,0.0,0.0,0.0,0.0,-1.2005,-1.2776,-1.3594,-1.4153,-1.5751,-1.6921,-1.7174,-1.8344,-1.9007,-1.8754,-1.7701,-1.7077,-1.7161,-1.7519,-1.8496,-2.0117,-2.0703,-2.1385,-2.2363,-2.3223,-2.3711,-2.3789,-2.4141,-2.4121,-2.3789,-2.4043,-2.3984,-2.3691,-2.4102,-2.4297,-2.4297,-2.4375,-2.4414,-2.4375,-2.3965,-2.3477,-2.2953,-2.1797,-2.1014,-2.0352,-1.9309,-1.9429,-1.9772,-1.7551,-1.7659,-1.838,-1.6256,-1.512,0.0,0.0,0.0,0.0,0.0,0.0,0.0,0.0,0.0,0.0,0.0,0.0,0.0,0.0,0.0,0.0,0.0,0.0,0.0,-2.8313,-2.9763,-3.1035,-3.1788,-3.2315,-3.2114,-3.0783,-3.1386,-3.1361,-2.993,-3.0206,-3.0457,-3.0457,-3.0457,-3.0683,-3.121,-3.1135,-3.0546,-2.9261,-2.9819,-2.8617,-2.5441,-2.5922,-2.5466,-2.4009,0.0,0.0,-2.4479,-2.4686,-2.5317,-2.6186,-2.6186,-2.678,-2.7818,-2.8438,-2.8569,-2.8505,-2.9184,-2.9624,-2.9804,-2.9804,-2.9804,-2.9804,0.0,0.0,0.0,0.0,0.0,0.0,-1.1291,-1.1793,-1.2437,-1.3201,-1.46,-1.5785,-1.6336,-1.7363,-1.7734,-1.7058,-1.6414,-1.659,-1.793,-1.8613,-1.9648,-2.1152,-2.1641,-2.2266,-2.3125,-2.3769,-2.4219,-2.4434,-2.4648,-2.4629,-2.4434,-2.4414,-2.4297,-2.4121,-2.4551,-2.4746,-2.4766,-2.498,-2.5031,-2.5039,-2.4609,-2.4343,-2.4049,-2.293,-2.2246,-2.1777,-2.1133,-2.1191,-2.1267,-1.9583,-1.9392,-1.9694,-1.823,-1.7313,-1.6644,0.0,0.0,0.0,0.0,0.0,0.0,0.0,0.0,0.0,0.0,0.0,0.0,0.0,0.0,-2.5901,0.0,0.0,-2.9804,-3.1185,-3.2114,-3.2842,-3.3395,-3.347,-3.2968,-3.1587,-3.1888,-3.1788,-3.0708,-3.0834,-3.1009,-3.1009,-3.1009,-3.1235,-3.1763,-3.1537,-3.1116,-3.0555,-3.0826,-2.9796,-2.722,-2.72,-2.6433,-2.4941,-2.4374,-2.4219,-2.4414,-2.4414,-2.4736,-2.5265,-2.5265,-2.5879,-2.7041,-2.8568,-2.9065,-2.8974,-3.0118,-3.0089,-2.942,-2.9984,-3.0357,-3.0557,0.0,0.0,0.0,0.0,0.0,0.0,0.0,-1.0712,-1.1184,-1.2232,-1.3405,-1.4528,-1.5498,-1.6378,-1.6484,-1.5508,-1.5723,-1.6726,-1.8715,-1.965,-2.0762,-2.207,-2.2461,-2.3008,-2.3769,-2.4199,-2.4629,-2.5106,-2.5156,-2.5204,-2.5106,-2.4805,-2.4621,-2.4687,-2.5039,-2.5302,-2.5399,-2.5625,-2.5693,-2.5654,-2.5254,-2.5067,-2.4824,-2.3691,-2.3218,-2.3159,-2.2695,-2.2129,-2.1584,-2.1036,-2.0469,-2.0019,-1.9844,-1.9492,-1.8899,-1.7741,-1.795,0.0,0.0,0.0,0.0,0.0,0.0,0.0,0.0,0.0,-2.4571,-2.5502,-2.6493,-2.7811,-2.9888,-3.0809,-3.1838,-3.3621,-3.3997,-3.4223,-3.465,-3.4248,-3.3571,-3.2641,-3.2441,-3.2114,-3.1461,-3.1486,-3.1537,-3.1537,-3.1537,-3.1788,-3.2365,-3.1964,-3.1863,-3.2215,-3.1788,-3.0927,-2.9653,-2.848,-2.7371,-2.625,-2.5085,-2.459,-2.4621,-2.4621,-2.4621,-2.4621,-2.4621,-2.5257,-2.6364,-2.8248,-2.9281,-2.9695,-3.0663,-3.0442,-2.9632,-3.0462,-3.1035,-3.1336,0.0,0.0,0.0,0.0,0.0,0.0,0.0,0.0,-1.1057,-1.1787,-1.2679,-1.3386,-1.375,-1.457,-1.5156,-1.5391,-1.6836,-1.8301,-1.965,-2.0566,-2.1619,-2.2906,-2.3003,-2.3257,-2.3769,-2.4199,-2.4629,-2.5106,-2.5469,-2.5449,-2.5125,-2.543,-2.5538,-2.5538,-2.5596,-2.5879,-2.6211,-2.5879,-2.5693,-2.5654,-2.5254,-2.4844,-2.4434,-2.3906,-2.3711,-2.3613,-2.2793,-2.1738,-2.086,-2.1544,-2.1231,-2.0664,-2.1367,-2.1289,-2.0742,-1.9828,-1.909,-1.8543,-1.8375,-1.9955,-2.1983,-2.3163,-2.3816,-2.5142,0.0,0.0,-2.7801,-3.0129,-3.1088,-3.1589,-3.1872,-3.2817,-3.3621,-3.3847,-3.4299,-3.465,-3.468,-3.4248,-3.3847,-3.3721,-3.3269,-3.2566,-3.1486,-3.1838,-3.2114,-3.2114,-3.2114,-3.2365,-3.2943,-3.2918,-3.2692,-3.224,-3.2164,-3.1363,-2.9761,-2.8545,-2.7546,-2.6823,-2.5591,-2.5195,-2.5538,-2.5538,-2.5538,-2.5538,-2.5538,-2.5952,-2.6664,-2.6918,-2.8055,-2.9611,-2.9738,-3.0633,-3.1797,-3.1446,-3.1336,-3.1386,0.0,0.0,0.0,0.0,0.0,0.0,0.0,0.0,0.0,-1.0824,-1.1647,-1.252,-1.3469,-1.4322,-1.4891,-1.5039,-1.6375,-1.791,-1.9453,-2.0566,-2.1756,-2.3042,-2.3101,-2.3296,-2.3769,-2.3965,-2.4258,-2.4687,-2.5137,-2.5254,-2.5125,-2.5527,-2.5693,-2.5693,-2.5693,-2.5791,-2.5996,-2.5771,-2.5693,-2.5654,-2.5254,-2.4961,-2.4707,-2.3814,-2.2969,-2.2266,-2.1853,-2.125,0.0,-2.0703,-2.0488,-2.0332,-2.123,-2.1035,-2.0352,-2.0019,-1.9668,-1.9544,-2.0349,-2.1811,-2.3413,-2.4689,-2.6262,-2.7965,-2.9727,-2.9955,-3.0208,-3.158,-3.2566,-3.3294,-3.3621,-3.4324,-3.4951,0.0,-3.5529,-3.5554,-3.5207,-3.4449,-3.3771,-3.3445,-3.2918,-3.2516,-3.239,-3.2591,-3.2717,-3.2717,-3.2717,-3.2817,-3.3111,-3.3111,-3.2968,-3.2717,-3.2717,-3.2228,-3.1144,-3.0589,-2.9829,-2.879,-2.7813,-2.7288,-2.713,-2.6438,-2.5977,-2.5693,-2.5693,-2.5867,-2.6194,-2.6931,-2.8128,-2.9548,-3.0252,-3.1417,-3.2641,-3.2089,-3.2089,-3.2315,0.0,0.0,0.0,0.0,0.0,0.0,0.0,0.0,0.0,0.0,-1.084,-1.1795,-1.3299,-1.4101,-1.4617,-1.4785,-1.5946,-1.733,-1.8848,-2.0156,-2.1405,-2.2691,-2.2867,-2.3223,-2.3769,-2.3789,-2.4004,-2.4414,-2.4727,-2.4941,-2.5125,-2.541,-2.5684,-2.5918,-2.5752,-2.5752,-2.5849,-2.5732,-2.5615,-2.5527,-2.5195,-2.491,-2.446,-2.3306,-2.2012,-2.0839,-2.0839,-2.0195,-1.9372,-1.9375,-1.9238,-1.9202,-2.0352,-2.0294,-1.9922,-1.9922,-1.9974,-2.0343,-2.1391,-2.3136,-2.4955,-2.6229,-2.8527,-3.0532,-3.0859,-3.1537,-3.229,-3.2993,-3.3671,-3.4299,-3.4806,-3.5232,-3.5633,-3.6081,-3.6304,-3.6279,-3.583,-3.47,-3.3746,-3.3345,-3.2516,-3.2139,-3.2566,-3.2935,-3.3111,-3.3111,-3.3111,-3.3144,-3.3294,-3.3169,-3.3187,-3.3294,-3.3294,-3.3077,-3.2599,-3.2402,-3.1854,-3.0924,-2.9996,-2.9147,-2.8411,-2.7519,-2.703,-2.6947,-2.6701,-2.6534,-2.6435,-2.7166,-2.8148,-2.9333,-3.0422,-3.1684,-3.2717,-3.2539,-3.2717,-3.3061,0.0,0.0,0.0,0.0,0.0,0.0,0.0,0.0,0.0,0.0,0.0,0.0,0.0,-1.3542,-1.4091,-1.4729,-1.5946,-1.7077,-1.7988,-1.9238,-2.0547,-2.1875,-2.2305,-2.293,-2.3769,-2.3789,-2.4004,-2.4414,-2.4434,-2.4648,-2.5106,-2.5125,-2.5595,-2.6348,-2.5869,-2.5977,-2.6348,-2.5869,-2.5488,-2.5125,-2.5125,-2.4362,-2.3169,-2.2308,-2.1113,-1.9961,-1.9961,-1.834,-1.6418,-1.7637,-1.7486,-1.7096,-1.8809,-1.9609,-1.9922,-1.9922,-2.0216,-2.0623,-2.0892,-2.3663,-2.6804,-2.8114,-3.0278,-3.2416,-3.352,-3.3796,-3.4123,-3.5182,-3.5006,-3.4831,-3.5382,-3.5483,-3.5508,-3.5508,-3.6006,-3.6405,-3.638,-3.4926,-3.3897,-3.3872,-3.2416,-3.1411,0.0,-3.2441,-3.3111,-3.3111,-3.3111,-3.3319,-3.3847,-3.337,-3.3319,-3.3847,-3.3872,-3.3872,-3.3853,-3.3198,-3.2839,-3.2792,-3.1544,-3.0246,-2.8971,-2.8922,-2.9354,-2.9994,-2.9229,-2.86,-2.8098,-2.7332,-2.7744,-2.8887,-2.9723,-3.0812,-3.2027,-3.2785,-3.3068,-3.3111,0.0,0.0,0.0,0.0,0.0,0.0,0.0,0.0,0.0,0.0,0.0,0.0,0.0,0.0,0.0,0.0,-1.5013,-1.6348,-1.7519,-1.8516,-1.9475,-2.0527,-2.1269,-2.1756,-2.209,-2.2656,-2.2871,-2.2734,-2.3594,-2.3926,-2.3809,-2.4375,-2.4941,-2.5556,-2.5352,-2.5547,-2.5937,-2.5488,-2.5215,-2.5008,-2.3828,-2.3105,-2.2539,-2.082,-1.9355,-1.8203,0.0,-1.7246,-1.6523,-1.668,-1.6555,-1.6543,-1.7988,-1.834,-1.8398,-1.9258,-2.0414,-2.1825,-2.3753,-2.6278,-2.8907,-3.1025,-3.2703,-3.4028,-3.4781,-3.5278,-3.5429,-3.5031,-3.455,-3.4123,-3.3947,-3.3897,-3.4148,-3.4831,-3.5454,-3.5805,-3.5805,-3.5027,-3.4022,-3.2918,-3.2616,0.0,0.0,0.0,0.0,-3.3043,-3.342,-3.3872,-3.4424,-3.4274,-3.4248,-3.4449,-3.4449,-3.4625,-3.4931,-3.4739,-3.4629,-3.4582,-3.3315,-3.1999,-3.0778,-3.0778,-3.0758,-3.0676,-2.9498,-2.8908,-2.8634,-2.7491,-2.7683,-2.8823,-2.9098,-3.0309,-3.1938,-3.2178,-3.2646,-3.3111,0.0,0.0,0.0,0.0,0.0,0.0,0.0,0.0,0.0,0.0,0.0,0.0,0.0,0.0,0.0,0.0,0.0,-1.5684,-1.6868,-1.7559,-1.8305,-1.9199,-1.9884,-2.0352,-2.0527,-2.1074,-2.123,-2.0957,-2.1777,-2.2187,-2.2227,-2.2773,-2.3437,-2.416,-2.416,-2.4394,-2.4785,-2.4336,-2.3984,-2.3594,-2.2324,-2.1543,-2.0937,-1.9258,-1.8008,0.0,-1.6453,-1.6239,-1.618,-1.5918,-1.587,-1.6096,-1.7556,-1.8487,-1.9178,-1.9777,-2.1654,-2.3951,-2.5984,-2.871,-3.1417,-3.3464,-3.4776,-3.5655,-3.5805,-3.5805,-3.5454,-3.4349,-3.352,-3.2893,-3.2583,-3.2315,-3.2541,-3.3646,-3.4079,-3.453,-3.5132,-3.4379,-3.3646,-3.3169,-3.2918,-3.2566,0.0,0.0,0.0,-3.3043,-3.3771,-3.4349,-3.4655,-3.468,-3.4781,-3.4956,-3.4981,-3.5132,-3.5508,-3.5683,-3.583,-3.5784,-3.4461,-3.3669,-3.3355,-3.2868,-3.264,-3.2558,-3.142,-3.0811,-3.046,-2.8828,-2.8656,-2.9304,-2.9107,-2.9872,-3.1103,-3.1668,-3.2223,-3.2684,0.0,0.0,0.0,0.0,0.0,0.0,0.0,0.0,0.0,0.0,0.0,0.0,0.0,0.0,0.0,0.0,0.0,0.0,-1.5948,-1.6406,-1.6999,-1.7852,-1.8266,-1.8715,-1.918,-1.9219,-1.9219,-1.9219,-1.9258,-1.9687,-2.0507,-2.0527,-2.1172,-2.2383,-2.2383,-2.2617,-2.3051,-2.2559,-2.1914,-2.1093,-2.0625,-1.9707,-1.8481,-1.7637,-1.7051,-1.6551,-1.5723,-1.541,-1.5381,-1.543,-1.5537,-1.596,-1.7634,-1.9987,-2.2018,-2.1579,-2.3989,-2.6937,-2.7603,-3.0865,-3.4324,-3.5332,-3.6408,-3.7036,-3.6455,-3.5454,-3.4349,-3.3194,-3.2039,-3.126,0.0,0.0,-3.0934,-3.2039,-3.229,-3.2918,-3.4575,-3.342,-3.2993,0.0,0.0,0.0,0.0,0.0,0.0,-3.3212,0.0,-3.4751,-3.4801,-3.4801,-3.5006,-3.5533,-3.5533,-3.5533,-3.5533,-3.6107,-3.6405,-3.6358,-3.5114,-3.5162,-3.6358,-3.5066,-3.4895,-3.5512,-3.4703,-3.41,-3.3409,-3.1295,-3.0411,-3.0317,-2.9845,-2.9656,-2.9913,-3.1389,-3.1986,-3.2117,0.0,0.0,0.0,0.0,0.0,0.0,0.0,0.0,0.0,0.0,0.0,0.0,0.0,0.0,0.0,0.0,0.0,0.0,-1.4535,-1.5303,-1.584,-1.6055,-1.6785,-1.7389,-1.7852,-1.8184,-1.834,-1.834,-1.8965,-1.9238,-1.9141,-1.9453,-1.9961,-2.0586,-2.0586,-2.082,-2.1231,-2.0762,-2.0449,-2.0156,-1.9102,-1.8457,-1.8047,-1.6887,-1.6359,-1.6183,-1.5605,-1.541,-1.5449,-1.5811,-1.7315,-1.9251,-2.0335,-2.1947,-2.3587,-2.4639,-2.6976,-2.9587,-3.1359,-3.4056,-3.6408,-3.6684,-3.6985,-3.6835,-3.5454,-3.46,-3.3571,-3.1637,-3.0331,-2.9428,0.0,0.0,0.0,-3.1964,-3.3269,0.0,-3.578,-3.5625,0.0,-3.4776,0.0,-3.4876,-3.3796,-3.4846,0.0,0.0,-3.4575,-3.5077,-3.5952,-3.5956,-3.6053,-3.6157,-3.6157,-3.6157,-3.6157,-3.6329,-3.6405,-3.6405,-3.6048,-3.6073,-3.6405,-3.6073,-3.5998,-3.611,-3.4921,-3.4314,-3.4025,-3.2437,-3.1774,-3.1774,-3.1642,-3.1977,-3.245,-3.2488,-3.2868,-3.3355,0.0,0.0,0.0,0.0,0.0,0.0,0.0,0.0,0.0,0.0,0.0,0.0,0.0,0.0,0.0,0.0,0.0,0.0,0.0,-1.4026,-1.4544,-1.4845,-1.5495,-1.6074,-1.6504,-1.6738,-1.6875,-1.6875,-1.7344,-1.7461,-1.7194,-1.7676,-1.8105,-1.8481,-1.8711,-1.9043,-1.9414,-1.8984,-1.8691,0.0,0.0,-1.7031,-1.6797,-1.6055,-1.5781,-1.5772,-1.5508,-1.5898,-1.6766,-1.8353,-2.0202,-2.2084,-2.3271,-2.511,-2.7052,-2.807,-3.0156,-3.246,-3.3858,-3.6038,-3.7864,-3.7613,-3.7362,-3.6634,-3.45,-3.3194,-3.1763,-2.9302,-2.8298,-2.7745,-2.7444,-2.8097,0.0,0.0,0.0,0.0,-3.5378,-3.5429,-3.5403,0.0,-3.6132,0.0,-3.5755,-3.6332,-3.6558,0.0,-3.5931,-3.5855,-3.6006,-3.6684,-3.6908,-3.643,-3.6656,-3.6656,-3.6405,-3.6405,-3.6405,-3.6405,-3.6405,-3.6405,-3.6405,-3.6405,-3.6405,-3.6358,0.0,-3.5283,-3.5162,-3.3822,-3.3204,-3.3155,-3.2532,-3.2574,-3.2992,-3.303,-3.3332,-3.3731,0.0,0.0,0.0,0.0,0.0,0.0,0.0,0.0,0.0,0.0,-0.9619,0.0,0.0,0.0,0.0,0.0,0.0,0.0,0.0,0.0,-1.3335,-1.4105,-1.4393,-1.4809,-1.5391,-1.5293,-1.5264,-1.541,-1.5352,-1.5332,-1.5332,-1.5752,-1.6094,-1.6453,-1.6934,-1.7324,-1.7637,-1.7285,-1.6894,-1.6492,-1.6163,-1.5742,-1.541,0.0,-1.541,-1.541,-1.541,-1.6504,-1.8353,-2.1247,-2.3137,-2.459,-2.6332,-2.8779,-3.1157,-3.1728,-3.3367,-3.5148,-3.5697,-3.7392,-3.8818,-3.8165,-3.7538,-3.6332,-3.3495,-3.148,-2.9449,-2.6917,-2.6221,-2.6161,-2.6339,-2.6901,-2.8047,-3.0331,0.0,-3.1788,-3.455,-3.4474,-3.4851,-3.6835,-3.6832,-3.6935,-3.7814,-3.7588,-3.7588,-3.7965,-3.7638,-3.696,-3.5884,-3.7161,-3.7462,-3.6556,-3.6935,-3.691,-3.6405,-3.6405,-3.6405,-3.6405,-3.6405,-3.6405,-3.6405,-3.6405,-3.6405,-3.6405,-3.6405,-3.6405,-3.631,-3.5114,-3.4678,-3.4532,-3.3304,-3.2833,-3.2937,-3.3527,-3.3768,-3.3838,0.0,0.0,0.0,0.0,0.0,0.0,0.0,0.0,0.0,0.0,-1.0251,-1.0157,0.0,0.0,0.0,0.0,0.0,0.0,0.0,0.0,0.0,-1.3669,-1.3403,-1.3895,-1.5362,-1.4699,-1.4679,-1.541,-1.5059,-1.4883,-1.493,-1.5009,-1.5059,-1.5137,-1.5566,-1.5801,-1.5859,-1.5781,-1.5703,-1.5615,-1.5566,-1.5469,-1.541,-1.541,0.0,0.0,-1.541,-1.6309,-1.7876,-2.0336,-2.3438,-2.6766,-2.9591,-3.1805,-3.3602,-3.5048,-3.6091,-3.6962,-3.8017,-3.8892,-3.9295,-3.8266,-3.7262,-3.5705,-3.2416,-2.9841,0.0,0.0,-2.4829,-2.439,-2.5561,-2.659,-2.8147,-3.0834,-3.1637,-3.2918,-3.5726,-3.5604,-3.5579,0.0,-3.7236,-3.7613,-3.7337,-3.809,0.0,0.0,-3.8366,-3.8291,-3.7613,-3.7412,-3.7236,-3.7036,-3.7136,-3.691,-3.6405,-3.6405,-3.6405,-3.6405,-3.6405,-3.6405,-3.6405,-3.6405,-3.6405,-3.6405,-3.6405,0.0,-3.6358,-3.6168,-3.6048,-3.6026,-3.581,-3.569,-3.5641,-3.531,-3.5158,-3.513,0.0,0.0,0.0,0.0,0.0,0.0,0.0,-0.9865,-1.0326,-1.0131,-1.0514,-1.0501,-0.975,-0.9967,-1.0035,0.0,0.0,0.0,0.0,0.0,0.0,0.0,-1.3261,-1.3931,-1.5362,-1.4991,-1.4972,-1.541,0.0,-1.5,-1.4785,-1.5,-1.5,-1.4833,-1.5215,-1.541,-1.541,-1.541,-1.5177,-1.4776,-1.4776,-1.451,-1.4154,-1.4154,0.0,0.0,-1.505,-1.6236,-1.8073,-2.024,-2.3226,-2.6582,-3.0241,-3.2426,-3.4154,-3.6518,-3.6923,-3.6972,-3.8817,-3.9496,-3.9421,-3.8291,-3.6985,-3.5002,-3.1386,0.0,0.0,0.0,-2.3635,-2.3441,-2.4546,-2.5946,0.0,-2.9377,-3.0131,-3.1562,-3.465,-3.4851,0.0,-3.701,-3.7939,-3.8467,0.0,-3.8969,-3.9195,-3.8894,-3.8868,-3.8617,-3.804,-3.7764,-3.7739,-3.804,-3.7487,-3.7061,-3.6832,-3.6556,-3.6405,-3.6405,-3.6405,-3.6405,-3.6405,-3.6405,-3.6405,-3.6405,-3.6405,-3.6405,-3.6405,-3.6405,-3.6405,-3.6405,-3.6405,-3.6405,-3.638,-3.6081,-3.6157,-3.6358,0.0,0.0,0.0,0.0,0.0,0.0,0.0,-0.9897,-1.0279,-1.0238,-1.0675,-1.0795,-1.0274,-1.0399,-1.018,0.0,0.0,0.0,0.0,0.0,0.0,0.0,0.0,0.0,-1.5128,0.0,0.0,-1.541,-1.5312,0.0,0.0,0.0,0.0,0.0,-1.5215,-1.541,-1.5381,-1.5235,-1.4776,0.0,0.0,-1.3554,0.0,0.0,0.0,0.0,0.0,-1.6048,-1.7867,-1.9879,-2.2327,-2.5072,-2.8671,-3.1362,-3.3598,-3.5917,-3.6401,-3.6624,-3.8553,-3.9365,-3.9421,-3.8291,-3.6584,-3.4159,-3.0368,-2.7357,0.0,-2.3195,-2.2525,-2.2615,-2.3766,-2.5091,-2.6449,0.0,-2.8473,-2.993,-3.3244,-3.3922,-3.4951,0.0,-3.8366,0.0,-3.9471,-3.9622,0.0,-3.9697,-3.9295,-3.8793,-3.8216,-3.8291,-3.8517,-3.8919,-3.8015,-3.7487,-3.7362,-3.6935,-3.6757,-3.6757,-3.6757,-3.6757,-3.6757,-3.6631,-3.6581,-3.6581,-3.6455,-3.6405,-3.6405,-3.6405,-3.6405,-3.6405,-3.6405,-3.6405,-3.6405,-3.6405,-3.6681,-3.701,0.0,0.0,0.0,0.0,0.0,0.0,0.0,-1.0418,-1.0893,-1.06,-1.0795,-1.0875,-1.0586,-1.0301,-1.0127,0.0,0.0,0.0,0.0,0.0,0.0,0.0,0.0,0.0,0.0,0.0,0.0,-1.541,-1.5019,0.0,0.0,0.0,0.0,0.0,0.0,-1.541,-1.5352,-1.4628,0.0,0.0,0.0,0.0,0.0,0.0,0.0,0.0,0.0,-1.5396,-1.6379,-1.8205,-2.0278,-2.2397,-2.4075,-2.8033,-3.2013,-3.2007,0.0,0.0,-3.6976,-3.8371,-3.9421,-3.8291,-3.6006,-3.3121,-2.9464,0.0,-2.3098,-2.2179,-2.1368,-2.1435,-2.3598,-2.413,-2.5084,-2.7695,-2.8147,-2.9352,-3.2692,-3.4022,-3.5102,-3.6405,0.0,0.0,0.0,-3.9396,0.0,-3.9697,-3.9647,-3.9371,-3.8869,-3.927,-3.9346,-3.8894,-3.8818,-3.8467,-3.7939,-3.7889,-3.7864,-3.7864,-3.7864,-3.7864,-3.7839,-3.7337,-3.7111,-3.7086,-3.6631,-3.6405,0.0,-3.6405,-3.6405,-3.6405,-3.6405,-3.6405,-3.6405,-3.6405,-3.643,-3.648,0.0,0.0,0.0,0.0,0.0,0.0,-0.965,-1.0164,-1.0512,-1.0577,-1.0841,-1.0908,-1.0626,-1.0479,-1.0314,-1.0127,0.0,0.0,0.0,0.0,0.0,0.0,0.0,0.0,0.0,0.0,-1.5254,-1.541,-1.5508,0.0,0.0,0.0,0.0,0.0,0.0,0.0,-1.5352,-1.454,0.0,0.0,0.0,0.0,0.0,0.0,0.0,0.0,0.0,0.0,-1.6084,-1.7432,-1.8964,-2.0317,-2.0353,-2.3061,-2.7001,0.0,-3.3004,-3.4574,-3.7307,-3.8887,-3.9421,-3.8291,-3.5931,-3.3082,-2.9985,0.0,-2.3597,-2.2805,-2.197,-2.18,-2.3213,-2.3778,-2.4456,-2.5887,-2.6138,-2.7293,-3.0633,-3.1486,0.0,0.0,-3.7285,0.0,0.0,0.0,-3.9697,-3.9697,-3.9697,-3.9597,-3.9371,-3.9572,-3.9597,-3.9371,-3.9095,-3.8768,-3.8517,-3.8191,-3.8015,-3.8015,-3.8015,-3.8015,-3.799,-3.7789,-3.7688,-3.7638,-3.7086,-3.6908,0.0,-3.6556,-3.6405,-3.6405,-3.6405,-3.6405,-3.6405,-3.6405,-3.6631,-3.6908,0.0,0.0,0.0,0.0,0.0,-0.9233,-0.965,-0.9927,-1.0221,-1.0546,-1.0841,-1.0908,-1.0626,-1.0586,-1.0506,-1.0261,-1.0466,0.0,0.0,0.0,0.0,0.0,0.0,0.0,0.0,0.0,-1.5605,-1.5605,-1.6065,-1.6113,0.0,0.0,0.0,0.0,0.0,0.0,0.0,0.0,0.0,0.0,0.0,0.0,0.0,0.0,0.0,0.0,0.0,0.0,0.0,0.0,0.0,-1.8809,-1.8203,-1.9648,-2.2551,-2.7734,-3.0468,-3.2561,-3.5961,-3.804,-3.8969,-3.799,-3.5454,-3.2474,0.0,0.0,-2.3607,-2.2887,-2.2279,-2.2125,-2.2944,-2.3446,-2.3979,-2.4675,-2.5084,-2.6289,-2.9126,-3.0105,0.0,0.0,0.0,-3.7287,0.0,-3.9396,-3.9697,-3.9697,-3.9697,-3.9697,-3.9697,-3.9697,-3.9697,-3.9697,-3.932,-3.912,-3.912,-3.8718,-3.8492,-3.8492,-3.8492,-3.8492,-3.8492,-3.8341,-3.8266,-3.8216,-3.7487,-3.7287,0.0,-3.6707,-3.6505,-3.6631,-3.648,-3.6505,-3.6631,-3.6455,-3.6757,-3.7161,0.0,0.0,0.0,0.0,0.0,0.0,-0.9707,-0.9927,-1.0221,-1.0546,-1.0841,-1.0908,-1.0626,-1.0586,-1.0586,-1.0586,-1.0586,0.0,0.0,0.0,0.0,0.0,0.0,0.0,0.0,0.0,-1.6085,-1.6085,-1.6504,-1.6687,-1.6687,-1.6687,-1.6687,-1.6668,0.0,0.0,0.0,0.0,0.0,0.0,0.0,0.0,0.0,0.0,0.0,0.0,0.0,0.0,0.0,0.0,0.0,0.0,0.0,-1.8613,-1.957,-2.0938,-2.6018,-3.1349,-3.1991,-3.5038,-3.7889,-3.7337,-3.4274,-3.0757,0.0,-2.5098,-2.2551,-2.2027,-2.1908,-2.2125,-2.2944,-2.312,-2.3471,-2.46,-2.5737,-2.7052,-2.8662,-3.0768,0.0,0.0,0.0,-3.5959,-3.7111,-3.8718,-3.9697,-3.9697,-3.9697,0.0,-3.9697,-3.9697,-3.9697,-3.9697,-3.9697,-3.9697,-3.9697,-3.9672,-3.9672,-3.9672,-3.9672,-3.9672,-3.9647,-3.912,-3.8919,-3.8844,-3.7663,-3.7487,0.0,-3.6857,-3.6732,-3.7111,-3.6631,-3.6732,-3.7111,-3.6606,-3.6757,-3.7111,0.0,0.0,0.0,0.0,0.0,0.0,0.0,-1.0074,-0.9993,-1.0519,-1.0667,-1.0693,-1.06,-1.1076,-1.1202,-1.0649,-1.0586,0.0,0.0,0.0,0.0,0.0,0.0,0.0,0.0,-1.5167,-1.6242,-1.6523,-1.6953,-1.7031,-1.6707,-1.6707,-1.6707,-1.6655,-1.5632,0.0,0.0,0.0,0.0,0.0,0.0,0.0,0.0,0.0,0.0,0.0,0.0,0.0,0.0,0.0,0.0,0.0,0.0,0.0,0.0,-1.9299,-2.3119,-2.7679,-2.9648,-3.1872,-3.3475,-3.2963,-3.1554,-2.9877,-2.8313,-2.5985,-2.3998,-2.3455,-2.3004,-2.2793,-2.3035,-2.3095,-2.3597,-2.5109,-2.5636,-2.659,0.0,0.0,0.0,-3.3997,-3.6684,-3.8517,0.0,0.0,-3.9697,-3.9697,-3.9697,-3.9697,-3.9697,-3.9697,-3.9697,-3.9697,-3.9697,-3.9697,-3.9697,-3.9697,-3.9697,-3.9697,-3.9697,-3.9697,-3.9697,-3.9521,-3.9421,-3.9371,-3.8241,-3.8065,-3.8467,-3.7033,-3.6732,-3.7161,-3.6985,-3.7036,-3.7211,-3.7412,-3.7588,-3.7713,0.0,0.0,0.0,0.0,0.0,0.0,0.0,-1.0667,-1.0485,-1.0975,-1.1045,-1.0919,-1.0618,-1.1313,-1.1593,-1.1108,-1.1459,0.0,0.0,0.0,0.0,0.0,0.0,0.0,-1.337,-1.5018,-1.6146,-1.6707,-1.7324,-1.748,-1.7174,-1.7174,-1.7174,-1.7122,-1.5964,-1.5326,0.0,0.0,0.0,0.0,0.0,0.0,-1.1022,0.0,0.0,0.0,0.0,0.0,0.0,0.0,0.0,0.0,0.0,0.0,0.0,0.0,-2.0737,-2.3754,-2.6747,-2.8971,-3.0426,-3.0462,-2.9521,0.0,0.0,-2.5937,-2.4356,-2.3778,-2.3346,-2.3095,-2.3095,-2.3095,-2.3572,-2.5059,-2.5661,-2.6565,0.0,0.0,0.0,-3.4731,0.0,0.0,0.0,-3.9446,-3.9697,-3.9697,-3.9697,-3.9697,-3.9697,-3.9697,-3.9697,-3.9697,-3.9697,-3.9697,-3.9697,-3.9697,-3.9697,-3.9697,-3.9697,-3.9697,-3.9697,-3.9697,-3.9697,-3.9647,-3.8743,-3.8668,0.0,-3.7588,-3.7312,-3.7789,-3.7588,-3.7638,-3.7839,-3.7965,-3.814,-3.8291,0.0,0.0,0.0,0.0,0.0,0.0,0.0,-1.1582,-1.148,-1.1843,-1.1826,-1.1531,-1.0839,-1.1437,-1.1903,-1.1934,0.0,0.0,0.0,0.0,0.0,0.0,0.0,0.0,-1.3133,-1.4719,-1.5931,-1.6746,-1.7578,-1.7988,-1.8008,-1.7988,-1.7988,-1.7969,-1.7051,-1.6198,-1.5335,-1.3667,-1.2119,-1.0812,-1.1481,-1.1461,0.0,0.0,0.0,0.0,0.0,0.0,0.0,0.0,0.0,0.0,0.0,0.0,0.0,0.0,0.0,0.0,0.0,-2.6152,-2.8222,-2.9195,-2.7925,-2.6443,-2.6442,-2.5192,0.0,-2.3271,-2.312,-2.312,-2.3221,-2.3195,-2.3572,-2.4775,-2.5862,0.0,0.0,-3.0608,0.0,0.0,-3.6709,0.0,-3.8015,-3.9044,-3.9697,-3.9697,-3.9697,-3.9697,-3.9697,-3.9697,-3.9697,-3.9697,-3.9697,-3.9697,-3.9697,-3.9697,-3.9697,-3.9697,-3.9697,-3.9697,-3.9697,-3.9697,-3.9697,0.0,-3.912,-3.917,-3.9597,-3.8467,-3.8341,-3.8818,-3.8266,-3.8391,-3.8869,-3.8316,-3.8467,-3.8894,0.0,0.0,0.0,0.0,0.0,0.0,0.0,0.0,0.0,0.0,-1.2166,-1.195,-1.2397,-1.2612,-1.2831,0.0,0.0,0.0,0.0,0.0,0.0,0.0,0.0,0.0,-1.4449,-1.5451,-1.6386,-1.7227,-1.7441,-1.7695,-1.8008,-1.7676,-1.7695,-1.7954,-1.6641,-1.5637,-1.4782,-1.3219,-1.248,-1.2296,-1.1493,-1.1397,0.0,0.0,0.0,0.0,-1.3324,-1.435,0.0,0.0,0.0,0.0,0.0,0.0,0.0,0.0,-1.8422,-1.9215,-2.1167,0.0,-2.3368,-2.4695,-2.4852,-2.4952,0.0,0.0,0.0,0.0,0.0,0.0,0.0,-2.4079,-2.4431,-2.6389,0.0,0.0,-2.8537,0.0,0.0,-3.7764,-3.8693,-3.8994,-3.8693,-3.9295,-3.9697,-3.9697,-3.9697,-3.9697,-3.9697,-3.9697,-3.9697,-3.9697,-3.9697,-3.9697,-3.9697,-3.9697,-3.9697,-3.9697,-3.9697,-3.9697,-3.9697,-3.9697,-3.9697,-3.9672,-3.912,-3.917,-3.9597,-3.8467,-3.8341,-3.8919,-3.8718,-3.8793,-3.8944,-3.9195,-3.9396,-3.9471,0.0,0.0,0.0,0.0,0.0,0.0,0.0,0.0,0.0,0.0,0.0,-1.195,-1.2381,-1.2795,0.0,0.0,0.0,0.0,0.0,0.0,0.0,0.0,0.0,-1.4834,-1.4901,-1.5707,-1.6523,-1.7383,-1.7578,-1.7793,-1.8008,-1.7773,-1.7793,-1.7954,-1.66,-1.5673,-1.5014,-1.4178,-1.3705,-1.3519,-1.3182,0.0,0.0,0.0,0.0,0.0,-1.4692,-1.5367,0.0,-1.6922,-1.7579,-1.8008,0.0,0.0,0.0,0.0,-1.8266,-1.8942,-2.0392,-2.1081,-2.1917,-2.4027,-2.4389,-2.4544,-2.5735,-2.4958,0.0,0.0,0.0,0.0,0.0,0.0,0.0,0.0,-2.7344,0.0,0.0,0.0,-3.5755,-3.8592,-3.9145,-3.9295,0.0,-3.9521,-3.9697,-3.9697,-3.9697,-3.9697,-3.9697,-3.9697,-3.9697,-3.9697,-3.9697,-3.9697,-3.9697,-3.9697,-3.9697,-3.9697,-3.9697,-3.9697,-3.9697,-3.9697,-3.9697,-3.9672,-3.9371,-3.9421,-3.9647,-3.9044,-3.8969,-3.9245,-3.9245,-3.9245,-3.927,-3.9597,-3.9697,-3.9697,0.0,0.0,0.0,0.0,0.0,0.0,0.0,0.0,0.0,0.0,0.0,0.0,0.0,0.0,0.0,0.0,0.0,0.0,0.0,0.0,0.0,0.0,-1.5546,-1.5528,-1.5197,-1.584,-1.6609,-1.7383,-1.7812,-1.8047,-1.8105,-1.8164,-1.8164,-1.8052,-1.6895,-1.6204,-1.5859,-1.5656,-1.5219,-1.4679,-1.5168,0.0,0.0,0.0,0.0,0.0,0.0,0.0,0.0,-1.7681,-1.8008,-1.8008,-1.8008,0.0,0.0,0.0,0.0,0.0,-2.0639,-2.1482,-2.2593,-2.5071,-2.4992,-2.4688,-2.6068,-2.5141,-2.4029,0.0,0.0,0.0,0.0,-2.4808,0.0,0.0,0.0,0.0,-3.3746,-3.4675,-3.5956,-3.8617,-3.8994,0.0,-3.9521,-3.9647,-3.9697,-3.9697,-3.9697,-3.9697,-3.9697,-3.9697,-3.9697,-3.9697,-3.9697,-3.9697,-3.9697,-3.9697,-3.9697,-3.9697,-3.9697,-3.9697,-3.9697,-3.9697,-3.9697,-3.9697,0.0,0.0,-3.9697,-3.9697,-3.9697,-3.9697,-3.9697,-3.9697,-3.9697,-3.9697,-3.9697,-3.9697,0.0,0.0,0.0,0.0,0.0,0.0,0.0,0.0,0.0,0.0,0.0,0.0,0.0,0.0,0.0,0.0,0.0,0.0,0.0,0.0,0.0,-1.7025,-1.6683,-1.649,-1.6432,-1.6536,-1.6883,-1.7383,-1.7812,-1.8149,-1.852,-1.8926,-1.8887,-1.8481,-1.7949,-1.7668,-1.7538,-1.647,-1.6105,-1.6154,-1.5206,0.0,0.0,0.0,0.0,0.0,0.0,0.0,0.0,-1.7681,-1.8008,-1.8008,-1.8008,0.0,0.0,0.0,0.0,0.0,-2.1702,-2.3282,-2.4684,-2.5052,-2.5016,-2.5048,-2.561,-2.4833,-2.413,0.0,0.0,0.0,0.0,-2.6499,-2.6927,0.0,0.0,-3.2089,0.0,0.0,-3.6857,-3.8693,0.0,-3.9421,-3.9044,-3.9421,-3.9697,-3.9697,-3.9697,-3.9697,-3.9697,-3.9697,-3.9697,-3.9697,-3.9697,-3.9697,-3.9697,-3.9697,-3.9697,-3.9697,-3.9697,-3.9697,-3.9697,-3.9697,-3.9697,-3.9697,0.0,-3.9697,-3.9697,-3.9697,-3.9697,-3.9697,-3.9697,-3.9697,-3.9697,-3.9697,-3.9697,-3.9697,0.0,0.0,0.0,0.0,0.0,0.0,0.0,0.0,0.0,0.0,0.0,0.0,0.0,0.0,0.0,0.0,0.0,0.0,0.0,0.0,-1.8027,-1.8066,-1.7837,-1.7506,-1.709,-1.7506,-1.7818,-1.8066,-1.8227,-1.8574,-1.8984,-1.8945,-1.8408,-1.7514,-1.7846,-1.785,-1.7535,-1.7241,-1.7351,-1.7621,0.0,0.0,0.0,0.0,0.0,0.0,0.0,0.0,0.0,0.0,-1.8008,-1.8008,-1.8008,0.0,0.0,0.0,0.0,0.0,-2.231,-2.4025,-2.5649,-2.6126,-2.6233,-2.6364,-2.6837,-2.6113,-2.5485,-2.6038,0.0,0.0,0.0,0.0,-2.9076,-3.1612,0.0,-3.3947,-3.6103,-3.6656,-3.736,0.0,0.0,-3.927,-3.932,-3.9546,-3.9697,-3.9697,-3.9697,-3.9697,-3.9697,-3.9697,-3.9697,-3.9697,-3.9697,-3.9697,-3.9697,-3.9697,-3.9697,-3.9697,-3.9697,-3.9697,-3.9697,-3.9697,-3.9697,-3.9697,0.0,-3.9521,-3.9245,-3.9245,-3.9069,-3.8818,-3.912,-3.9245,-3.927,-3.9597,-3.9496,-3.9295,0.0,0.0,0.0,0.0,0.0,0.0,0.0,0.0,0.0,0.0,0.0,0.0,0.0,0.0,0.0,0.0,0.0,0.0,0.0,-1.8008,-1.8144,-1.8442,-1.8559,-1.8344,-1.7866,-1.8457,-1.8754,-1.8754,-1.8851,-1.9102,-1.9434,-1.8984,-1.8149,-1.7105,-1.772,-1.7808,-1.7566,-1.7969,-1.8305,-1.8578,0.0,0.0,0.0,0.0,0.0,0.0,0.0,0.0,0.0,0.0,0.0,0.0,0.0,0.0,0.0,-1.8637,-2.0145,-2.2041,-2.2724,-2.4481,-2.6311,-2.6951,-2.7228,-2.7494,-2.8323,-2.7645,-2.7102,-2.7896,-2.7519,0.0,0.0,-2.9227,0.0,-3.352,-3.4575,-3.5529,-3.6832,-3.736,-3.7939,-3.8994,-3.912,-3.922,-3.9647,-3.9697,-3.9697,-3.9697,-3.9697,-3.9697,-3.9697,-3.9697,-3.9697,-3.9697,-3.9697,-3.9622,-3.9496,-3.9622,-3.9697,-3.9697,-3.9697,-3.9697,-3.9697,-3.9697,-3.9697,-3.9697,-3.9546,-3.927,-3.8919,-3.8718,-3.8492,-3.8266,-3.8693,-3.8994,-3.9094,-3.9396,-3.932,-3.912,0.0,0.0,0.0,0.0,0.0,0.0,0.0,0.0,0.0,0.0,0.0,0.0,0.0,0.0,0.0,0.0,0.0,0.0,0.0,-1.8008,-1.8027,-1.8047,-1.8383,-1.8754,-1.9141,-1.9219,-1.9238,-1.9238,-1.9629,-1.9844,-1.9863,-1.9434,-1.8968,-1.8434,-1.8149,-1.8173,-1.8492,-1.8543,-1.8578,-1.8598,-1.8559,0.0,0.0,0.0,0.0,0.0,0.0,0.0,0.0,0.0,0.0,0.0,0.0,0.0,-1.916,-1.8715,-2.0854,-2.3296,-2.2992,-2.5004,-2.7072,-2.664,-2.6927,-2.7695,-2.9302,-2.88,-2.8448,-3.0055,-2.9503,-2.8925,0.0,-3.0934,-3.2441,-3.3696,-3.5273,-3.6857,-3.8517,0.0,-3.8969,-3.9572,-3.9647,-3.9647,-3.9697,-3.9697,-3.9697,-3.9697,-3.9697,-3.9697,-3.9697,-3.9697,-3.9697,-3.9697,-3.9697,-3.9446,-3.8944,-3.9446,-3.9697,-3.9697,-3.9697,-3.9697,-3.9697,-3.9697,-3.9697,-3.9672,-3.9145,-3.8969,-3.8869,-3.8291,-3.8366,-3.8869,-3.8894,-3.917,-3.9572,-3.9145,-3.922,-3.9647,0.0,0.0,0.0,0.0,0.0,0.0,0.0,0.0,0.0,0.0,0.0,0.0,0.0,0.0,0.0,0.0,0.0,0.0,0.0,-1.7681,-1.8125,-1.8344,-1.8809,-1.9121,-1.9277,-1.9551,-1.9668,-1.9668,-1.9844,-1.9611,-1.9085,-1.8929,-1.8334,-1.739,-1.7793,-1.8065,-1.8172,-1.8501,-1.8909,-1.9377,-1.9141,-1.8789,0.0,0.0,0.0,0.0,0.0,0.0,0.0,0.0,-1.8676,-1.8789,-1.8637,-1.9085,-1.959,-1.916,-2.1162,-2.3481,-2.3301,-2.5266,-2.7243,-2.7052,-2.7394,-2.8147,-2.9478,-3.0231,-3.0834,-3.1461,-3.1838,-3.1989,0.0,0.0,-3.3345,-3.5127,-3.6533,-3.7839,-3.9195,-3.9371,-3.9471,-3.9672,-3.9697,-3.9697,-3.9697,-3.9697,-3.9697,-3.9697,-3.9697,-3.9697,-3.9697,-3.9697,-3.9697,-3.9697,-3.9697,-3.9421,-3.8919,-3.9069,-3.8994,-3.8642,-3.9346,-3.9697,-3.9697,-3.9697,-3.9697,-3.9672,-3.912,-3.8668,-3.8291,-3.7713,-3.7638,-3.7889,-3.8642,-3.9045,-3.9195,-3.932,-3.9295,-3.922,0.0,0.0,0.0,0.0,0.0,0.0,0.0,0.0,0.0,0.0,0.0,0.0,0.0,0.0,0.0,0.0,0.0,0.0,-1.6955,-1.7856,-1.8477,-1.8598,-1.9062,-1.9297,-1.9297,-1.9687,-1.9922,-1.9922,-2.0059,-1.9687,-1.8812,-1.8948,-1.8375,-1.7248,-1.8062,-1.8452,-1.8546,-1.887,-1.9338,-1.9883,-1.9609,-1.9238,0.0,0.0,0.0,0.0,0.0,0.0,0.0,0.0,-1.916,-1.9258,-1.9046,-1.9397,-1.9863,-1.957,-2.1272,-2.3288,-2.3444,-2.5076,-2.6841,-2.7228,-2.7821,-2.88,-3.0457,-3.1687,-3.2692,-3.337,-3.3596,-3.352,-3.3187,0.0,0.0,0.0,-3.7186,-3.8391,-3.9546,-3.9697,-3.9697,-3.9697,-3.9697,-3.9697,-3.9697,-3.9697,-3.9622,-3.9446,-3.9597,-3.9622,-3.9446,-3.9597,-3.9622,-3.9446,-3.9421,-3.9069,-3.8341,-3.8517,-3.8316,-3.7764,-3.8718,-3.9245,-3.9446,-3.9622,-3.9697,-3.9647,-3.8919,-3.8366,-3.7939,-3.7236,-3.7036,-3.7287,-3.8216,-3.8718,-3.8919,-3.9295,-3.9295,-3.9195,0.0,0.0,0.0,0.0,0.0,0.0,0.0,0.0,0.0,0.0,0.0,0.0,0.0,0.0,0.0,0.0,0.0,0.0,-1.7692,-1.8673,-1.9102,-1.8617,-1.9062,-1.9297,-1.9297,-1.9687,-1.9922,-1.9922,-2.0352,-2.0155,-1.9297,-1.9707,-1.9416,-1.8617,-1.9102,-1.9512,-1.9922,-1.9922,-1.9922,-1.9922,-1.9922,-1.9668,-1.9238,0.0,0.0,0.0,0.0,0.0,0.0,0.0,-1.9648,-1.9375,-1.9785,-1.9922,-1.9922,-1.9922,-2.1256,-2.2827,-2.3391,-2.4518,-2.5887,-2.7017,-2.8122,-2.964,-3.2441,-3.3136,-3.3765,-3.5952,-3.467,-3.3093,-3.3093,-3.3136,0.0,-3.5232,-3.6935,-3.8391,-3.9521,-3.9697,-3.9697,-3.9697,-3.9697,-3.9697,-3.9697,-3.9697,-3.9446,-3.8969,-3.9371,-3.9446,-3.8944,-3.9371,-3.9421,-3.8919,-3.8919,-3.8366,-3.7186,-3.7739,-3.7713,-3.7186,-3.7739,-3.8291,-3.8919,-3.9421,-3.9672,-3.9622,-3.8492,-3.799,-3.7914,-3.6883,-3.6732,-3.7236,-3.7789,-3.8366,-3.8919,-3.8919,-3.922,-3.9697,0.0,0.0,0.0,0.0,0.0,0.0,0.0,0.0,0.0,0.0,0.0,0.0,0.0,0.0,0.0,0.0,0.0,0.0,-1.6346,-1.7895,-1.887,-1.9082,-1.9219,-1.9297,-1.9297,-1.9687,-2.0059,-2.041,-1.994,-1.9687,-1.9727,-1.9202,-1.9007,-1.9102,-1.9238,-1.9512,-1.9922,-1.9922,-2.0098,-2.041,-2.041,-2.0117,-1.9707,0.0,0.0,0.0,0.0,0.0,0.0,0.0,0.0,0.0,-1.9961,-2.0589,-2.1336,-2.1044,-2.2564,-2.4354,-2.4517,-2.5657,-2.6967,-2.767,-2.9001,-3.0733,-3.3119,-3.3646,-3.4274,-3.6531,-3.5805,-3.4781,-3.4781,-3.5152,0.0,-3.6081,-3.7538,-3.8718,-3.9069,-3.9446,-3.9546,-3.917,-3.912,-3.927,-3.9647,-3.8969,-3.8617,-3.8894,-3.8642,-3.8442,-3.8266,-3.8417,-3.8442,-3.8266,-3.8266,-3.7914,-3.7186,-3.7337,-3.7161,-3.6656,-3.7161,-3.7713,-3.8266,-3.8442,-3.8492,-3.8467,-3.7739,-3.7437,-3.7412,-3.7086,-3.7036,-3.7287,-3.8241,-3.8718,-3.8969,-3.9295,-3.9546,-3.9647,0.0,0.0,0.0,0.0,0.0,0.0,0.0,0.0,0.0,0.0,-1.1832,-1.202,0.0,0.0,0.0,0.0,0.0,0.0,-1.7066,-1.8527,-1.9453,-1.9531,-1.9531,-1.9531,-1.9531,-1.9961,-2.0331,-2.0605,-2.0077,-1.9844,-1.9902,-1.9709,-1.9707,-1.9842,-2.0156,-2.0371,-2.043,-2.043,-2.0488,-2.0605,-2.0605,-2.0449,-2.0156,0.0,0.0,0.0,0.0,0.0,0.0,0.0,0.0,0.0,-2.0254,-2.0753,-2.1466,-2.159,-2.2783,-2.4236,-2.4838,-2.5966,-2.7278,-2.8473,-2.9854,-3.1512,-3.3721,0.0,0.0,0.0,-3.6634,-3.5558,-3.583,-3.5805,0.0,-3.6332,-3.7412,-3.8266,-3.8492,-3.8818,-3.8894,-3.8567,-3.8517,-3.8668,-3.8994,-3.8391,-3.8065,-3.8191,-3.809,-3.7914,-3.7688,-3.7889,-3.7914,-3.7688,-3.7688,-3.7412,-3.6908,-3.6908,-3.6732,-3.6405,-3.6757,-3.7036,-3.7362,-3.7814,-3.8015,-3.7965,-3.7412,-3.7061,-3.6908,-3.6908,-3.6908,-3.6983,-3.7839,-3.8191,-3.8291,-3.9069,-3.922,-3.9019,0.0,0.0,0.0,0.0,0.0,0.0,0.0,0.0,0.0,0.0,-1.1744,-1.2047,0.0,0.0,0.0,0.0,0.0,0.0,0.0,-1.9925,-2.0352,-1.998,-1.998,-1.998,-1.998,-2.0371,-2.0625,-2.0664,-2.0586,-2.0352,-2.0021,-2.0781,-2.0996,-2.0762,-2.1564,-2.1641,-2.119,-2.1229,-2.1035,-2.0664,-2.0703,-2.0703,-2.0625,-2.0176,0.0,0.0,0.0,0.0,0.0,0.0,0.0,0.0,-2.0605,-2.0644,-2.0895,-2.1849,-2.2498,-2.3251,-2.4779,-2.5914,-2.7178,-2.9377,-3.0909,-3.239,-3.4474,-3.6483,-3.8065,-3.8592,0.0,-3.5859,-3.6405,-3.5655,-3.5328,-3.6329,-3.6933,-3.7412,-3.7864,-3.7965,-3.799,-3.7939,-3.7939,-3.7939,-3.799,-3.7914,-3.7663,-3.7211,-3.7613,-3.7638,-3.7136,-3.7588,-3.7638,-3.7136,-3.7111,-3.686,-3.6405,-3.6405,-3.6405,-3.6405,-3.6405,-3.6405,-3.643,-3.7387,-3.7864,-3.7839,-3.7337,-3.6883,-3.6405,-3.6405,-3.6405,-3.6455,-3.696,-3.7186,-3.7312,-3.8391,-3.8467,-3.8065,0.0,0.0,0.0,0.0,0.0,0.0,0.0,0.0,0.0,0.0,0.0,0.0,0.0,0.0,0.0,0.0,0.0,0.0,0.0,-1.9336,-2.0156,-2.0449,-2.0468,-2.0468,-2.0468,-2.0566,-2.0742,-2.1094,-2.0391,-2.0352,-2.0917,-2.0781,-2.1075,-2.1602,-2.1797,-2.1641,-2.121,-2.1602,-2.1484,-2.1113,-2.1465,-2.1406,-2.1074,-2.0956,-2.0781,0.0,0.0,0.0,0.0,0.0,0.0,0.0,-2.0605,-2.1126,-2.1886,-2.2877,-2.3822,-2.4838,-2.6413,-2.7276,-2.8273,-3.0482,-3.3237,-3.5575,-3.6433,-3.701,-3.7287,-3.7008,-3.7211,-3.7387,-3.7061,-3.7161,-3.7236,-3.7036,-3.7462,-3.7713,-3.7412,-3.7739,-3.7839,-3.7412,-3.7362,-3.7538,-3.7965,-3.7236,-3.6883,-3.7161,-3.6933,-3.6707,-3.6581,-3.6707,-3.6707,-3.6581,-3.6581,-3.6531,-3.6405,-3.6405,-3.6405,-3.6405,-3.6405,-3.6405,-3.6405,-3.6656,-3.6757,-3.6757,-3.6631,-3.6505,-3.6405,-3.6405,-3.6405,-3.6455,-3.696,-3.7186,-3.7262,-3.7939,-3.8115,-3.7965,0.0,0.0,0.0,0.0,0.0,0.0,0.0,0.0,0.0,0.0,0.0,0.0,0.0,0.0,0.0,0.0,0.0,0.0,0.0,0.0,-2.043,-2.0859,-2.0879,-2.0977,-2.1231,-2.1231,-2.1309,-2.1543,-2.1074,-2.1094,-2.1543,-2.1309,-2.1543,-2.2187,-2.2402,-2.2246,-2.1814,-2.209,-2.1934,-2.1562,-2.1797,-2.1758,-2.1543,-2.1543,-2.1269,-2.0879,-2.0879,0.0,0.0,0.0,0.0,0.0,0.0,0.0,-2.1527,-2.2489,-2.3489,-2.4575,-2.5851,-2.7146,0.0,-3.116,0.0,-3.6056,-3.6332,-3.6408,-3.6383,-3.6405,-3.681,-3.7136,-3.6883,-3.7036,-3.7036,-3.6483,-3.686,-3.7036,-3.6483,-3.6885,-3.7111,-3.6883,-3.6832,-3.681,-3.6787,-3.6307,-3.5981,-3.6006,-3.573,-3.5705,-3.5956,-3.573,-3.5705,-3.5956,-3.5705,-3.5579,-3.5579,-3.5579,-3.5705,-3.5981,-3.5981,-3.6107,-3.6405,-3.6405,-3.6405,-3.6405,-3.6405,-3.6405,-3.6405,-3.6405,-3.6405,-3.643,-3.6732,-3.6832,-3.6908,-3.7412,-3.7437,-3.7211,0.0,0.0,0.0,0.0,0.0,0.0,0.0,0.0,0.0,0.0,0.0,0.0,0.0,0.0,0.0,0.0,0.0,0.0,0.0,0.0,0.0,-2.1171,-2.1268,-2.1523,-2.1875,-2.1894,-2.1914,-2.1992,-2.1914,-2.1992,-2.2207,-2.207,-2.2227,-2.2637,-2.2945,-2.2867,-2.2519,-2.2598,-2.2383,-2.1992,-2.207,-2.2051,-2.1992,-2.1992,-2.1719,-2.1307,-2.1307,-2.1113,-2.084,-2.084,0.0,0.0,0.0,0.0,-2.0898,-2.1718,-2.2579,-2.3526,-2.4765,-2.6797,-2.9126,-3.1612,-3.3702,0.0,-3.5332,-3.5357,-3.5483,-3.5981,-3.6128,-3.6153,-3.6254,-3.6179,-3.5931,-3.5433,-3.5855,-3.6031,-3.5433,-3.5881,-3.6229,-3.6128,-3.6128,-3.5906,-3.5408,-3.5357,-3.5182,-3.4705,-3.468,-3.4881,-3.5332,-3.4931,-3.4881,-3.5332,-3.4906,-3.468,-3.468,-3.468,-3.4906,-3.5357,-3.5357,-3.568,-3.6254,-3.6179,-3.6229,-3.6405,-3.6405,-3.6405,-3.6405,-3.6405,-3.6405,-3.6405,-3.6405,-3.6405,-3.6455,-3.6933,-3.6807,-3.648,0.0,0.0,0.0,0.0,0.0,0.0,0.0,0.0,0.0,0.0,-1.2278,-1.2622,0.0,0.0,0.0,0.0,0.0,0.0,0.0,0.0,0.0,-2.119,-2.1602,-2.1836,-2.1894,-2.1894,-2.207,-2.2422,-2.207,-2.2441,-2.3516,-2.2773,-2.2613,-2.3023,-2.3081,-2.2867,-2.2539,-2.2847,-2.2769,-2.2461,-2.2789,-2.2711,-2.2422,-2.2422,-2.2168,-2.1797,-2.1797,-2.1758,-2.176,-2.176,-2.176,0.0,0.0,0.0,-2.1253,-2.1821,-2.2113,-2.2703,-2.5078,0.0,-3.0583,0.0,-3.3169,-3.4248,0.0,0.0,-3.4806,0.0,-3.4951,-3.5077,-3.5508,-3.5232,-3.4926,-3.4806,-3.5257,-3.5408,-3.4856,-3.5257,-3.5433,-3.5002,-3.4951,-3.4901,-3.4781,-3.4826,-3.4756,-3.4726,-3.468,-3.4705,-3.4781,-3.4731,-3.4705,-3.4781,-3.4731,-3.468,-3.468,-3.468,-3.4751,-3.4826,-3.4826,-3.5082,-3.5583,-3.5152,-3.5454,-3.6405,-3.6405,-3.6405,-3.6405,-3.6405,-3.6405,-3.6405,-3.6405,-3.6405,-3.6405,-3.648,-3.648,-3.6405,0.0,0.0,0.0,0.0,0.0,0.0,0.0,0.0,0.0,0.0,0.0,-1.2765,0.0,0.0,0.0,0.0,0.0,0.0,0.0,0.0,0.0,-2.1582,-2.2012,-2.2344,-2.2578,-2.2578,-2.2676,-2.2828,-2.2676,-2.3008,-2.3789,-2.3398,-2.332,-2.3496,-2.3496,-2.3262,-2.2828,-2.3023,-2.2984,-2.2828,-2.3023,-2.2847,-2.2539,-2.273,-2.2461,-2.1914,-2.2148,-2.209,-2.1894,-2.1894,-2.1894,-2.1855,-2.166,0.0,0.0,0.0,-2.175,-2.2574,-2.5112,-2.747,-2.9478,0.0,-3.1687,-3.2641,-3.3194,0.0,-3.342,-3.3721,-3.3294,-3.3319,-3.4756,-3.4831,-3.4625,-3.4299,-3.468,-3.4856,-3.4349,-3.468,-3.4956,-3.4705,-3.468,-3.46,-3.4299,-3.4248,-3.4123,-3.3822,-3.3796,-3.3922,-3.4248,-3.3972,-3.3947,-3.4248,-3.3972,-3.3796,-3.3796,-3.3796,-3.3947,-3.4274,-3.4575,-3.4806,-3.5031,-3.4826,-3.5328,-3.638,-3.6031,-3.6081,-3.6405,-3.6405,-3.6405,-3.6405,-3.6405,-3.6405,-3.6405,-3.6405,-3.6405,-3.6405,0.0,0.0,0.0,0.0,0.0,0.0,0.0,0.0,0.0,0.0,0.0,0.0,0.0,0.0,0.0,0.0,0.0,0.0,0.0,0.0,0.0,-2.2031,-2.2441,-2.2769,-2.3081,-2.3101,-2.3101,-2.3101,-2.3101,-2.3374,-2.3945,-2.3945,-2.4004,-2.4102,-2.3887,-2.3555,-2.3101,-2.3101,-2.3101,-2.3081,-2.2984,-2.275,-2.2539,-2.2734,-2.25,-2.209,-2.2402,-2.2383,0.0,0.0,0.0,0.0,0.0,-2.1738,0.0,0.0,0.0,-2.2478,0.0,0.0,-2.7804,-2.9063,-3.0055,-3.0959,0.0,0.0,-3.1964,0.0,-3.1989,-3.1888,-3.3571,-3.3872,-3.3746,-3.3319,-3.3847,-3.4073,-3.337,-3.3872,-3.4198,-3.3922,-3.3997,-3.3922,-3.352,-3.3596,-3.352,-3.3119,-3.3111,-3.3244,-3.3671,-3.3169,-3.3043,-3.347,-3.3068,-3.2867,-3.2867,-3.2867,-3.2993,-3.3269,-3.3822,-3.4173,-3.4299,-3.4299,-3.4901,-3.5931,-3.5655,-3.5855,-3.6405,-3.6405,-3.6405,-3.6405,-3.6405,-3.6405,-3.6405,-3.6405,-3.6405,-3.6405,0.0,0.0,0.0,0.0,0.0,0.0,0.0,0.0,0.0,0.0,0.0,0.0,-1.6005,-1.7133,-1.8322,-1.9713,-1.9865,0.0,0.0,0.0,0.0,-2.2461,-2.2847,0.0,-2.3101,-2.3101,-2.3101,-2.3101,-2.3101,-2.353,-2.4375,-2.4375,-2.4609,-2.5008,-2.416,-2.3555,-2.3101,-2.3101,-2.3101,-2.3062,-2.2652,-2.2539,-2.248,-2.209,-2.2168,-2.248,-2.25,0.0,0.0,0.0,0.0,0.0,0.0,-2.2187,-2.1777,0.0,0.0,0.0,0.0,-2.4755,0.0,-2.7802,-2.8624,0.0,0.0,0.0,0.0,0.0,-3.1436,-3.1436,-3.1537,-3.1562,-3.1562,-3.1512,-3.2441,-3.2792,-3.1687,-3.2466,-3.2767,-3.1687,-3.2014,-3.234,-3.2315,-3.2792,-3.3119,-3.3111,-3.3111,-3.3093,-3.3162,-3.2566,-3.2265,-3.229,-3.2265,-3.2265,-3.2265,-3.2265,-3.2014,-3.1537,-3.2089,-3.2641,-3.3169,-3.3169,-3.3771,-3.4826,-3.5282,-3.5855,-3.6405,-3.6405,-3.6405,-3.6405,-3.6405,-3.6405,-3.6405,-3.6405,-3.6405,-3.6405,0.0,0.0,0.0,0.0,0.0,0.0,0.0,0.0,0.0,0.0,0.0,0.0,0.0,-1.8485,-1.9401,-2.1033,-2.1172,0.0,0.0,0.0,0.0,-2.25,-2.2867,-2.3101,-2.3101,-2.3101,-2.3101,-2.3101,-2.3101,-2.3393,-2.4004,-2.4004,-2.4102,-2.4238,-2.4199,-2.3965,-2.3535,-2.3218,-2.3101,-2.3081,-2.2925,-2.2711,-2.2519,-2.2637,-2.2617,0.0,0.0,0.0,0.0,0.0,0.0,0.0,-2.3166,-2.2617,-2.2148,-2.1405,-2.1989,-2.2772,0.0,0.0,0.0,-2.6469,-2.7261,-2.8072,-2.8825,-2.9001,-2.9151,-2.9704,-2.9804,-2.993,-3.0306,-3.0934,-3.1386,-3.1386,-3.1738,-3.1863,-3.1461,-3.1738,-3.1838,-3.1436,-3.1863,-3.2215,-3.2215,-3.2742,-3.3111,-3.3111,-3.3111,-3.2918,-3.2541,-3.2315,-3.2039,-3.1687,-3.2039,-3.2215,-3.2215,-3.1863,-3.1587,-3.1386,-3.1587,-3.1989,-3.2516,-3.2516,-3.3144,-3.4198,-3.4399,-3.5002,-3.5855,-3.6254,-3.6157,-3.5881,-3.6279,-3.6132,-3.5881,-3.6279,-3.6405,-3.6405,0.0,0.0,0.0,0.0,0.0,0.0,0.0,0.0,-1.6563,-1.6563,0.0,0.0,0.0,0.0,-2.0585,-2.1795,-2.1894,-2.1953,-2.209,-2.2363,-2.2578,-2.2715,-2.2945,-2.3101,-2.3101,-2.3101,-2.3101,-2.3101,-2.3101,-2.3315,-2.3789,-2.3789,-2.3867,-2.4004,-2.4141,-2.3965,-2.3555,-2.3218,-2.3179,-2.332,-2.3418,-2.337,-2.3313,-2.341,0.0,0.0,0.0,0.0,0.0,0.0,0.0,0.0,-2.393,-2.3133,-2.2344,-2.1444,-2.185,0.0,-2.2514,0.0,0.0,0.0,0.0,-2.7122,-2.7483,0.0,-2.7971,-2.8512,-2.8762,-2.9013,-2.9428,0.0,0.0,0.0,0.0,0.0,0.0,0.0,0.0,0.0,0.0,-3.1662,-3.1662,-3.219,-3.2516,-3.2516,-3.2516,0.0,-3.1964,-3.1763,-3.1512,-3.1135,-3.1486,-3.1662,-3.1662,-3.1311,-3.1035,-3.0859,-3.121,-3.1587,-3.1938,-3.234,-3.2918,-3.3646,-3.3822,-3.4424,-3.5257,-3.5655,-3.5604,-3.5282,-3.5881,-3.5855,-3.5558,-3.6157,-3.6405,-3.6405,0.0,0.0,0.0,0.0,0.0,0.0,0.0,0.0,-1.7041,-1.7058,0.0,0.0,0.0,0.0,0.0,-2.1914,-2.1914,-2.209,-2.25,-2.2539,-2.2672,-2.3081,0.0,0.0,-2.3101,-2.3101,-2.3101,-2.3101,-2.3101,-2.3379,-2.3769,-2.3789,-2.4004,-2.4355,-2.3945,-2.3535,-2.3101,-2.3101,-2.3398,-2.389,-2.4156,-2.4493,-2.4851,0.0,0.0,0.0,-2.5081,-2.5588,0.0,-2.6524,0.0,0.0,0.0,-2.3754,-2.2363,-2.1483,-2.1249,0.0,0.0,0.0,0.0,0.0,0.0,0.0,-2.6474,0.0,-2.7419,-2.7971,0.0,0.0,0.0,0.0,0.0,0.0,0.0,0.0,0.0,0.0,0.0,0.0,0.0,0.0,0.0,-3.1085,-3.1386,-3.1386,-3.1386,-3.1386,-3.1361,-3.0884,-3.0608,-3.0608,-3.0608,-3.0608,-3.0608,-3.0608,-3.0331,-2.9804,-3.0859,-3.1361,-3.1436,-3.2541,-3.3086,-3.3119,-3.3646,-3.4173,-3.4675,-3.47,-3.468,-3.4705,-3.5257,-3.5483,-3.5533,-3.6132,-3.638,-3.6405,0.0,0.0,0.0,0.0,0.0,-1.969,-1.9951,-2.0008,-2.0101,0.0,0.0,0.0,-2.169,-2.2349,-2.275,-2.275,-2.275,-2.2808,-2.2906,-2.2925,-2.2984,-2.3081,-2.3101,-2.3101,-2.3101,-2.3101,-2.3101,-2.3101,-2.3457,-2.3516,-2.3276,-2.3633,-2.3691,-2.3432,-2.3335,-2.3198,-2.3101,-2.3101,-2.3887,-2.5109,-2.5207,-2.5765,0.0,0.0,0.0,0.0,0.0,-2.6748,-2.7522,0.0,-2.6789,-2.6889,0.0,0.0,-2.2808,-2.2324,-2.234,0.0,-2.2392,0.0,0.0,0.0,0.0,0.0,0.0,0.0,0.0,0.0,0.0,0.0,0.0,0.0,0.0,0.0,0.0,0.0,0.0,0.0,0.0,0.0,0.0,0.0,0.0,-3.1085,-3.1386,0.0,-3.1386,-3.1235,-3.0859,-3.0306,-3.0206,-3.0608,-3.0231,-3.0206,-3.0608,-3.0231,-2.9955,-2.9804,-3.0105,-3.0633,-3.1411,-3.1712,-3.229,-3.3136,-3.3244,-3.3395,-3.3596,-3.4399,-3.4474,-3.4173,-3.4726,-3.4906,-3.4981,-3.5533,-3.6031,-3.6405,0.0,0.0,0.0,0.0,0.0,-2.0996,-2.1445,-2.1504,-2.1602,0.0,0.0,0.0,-2.2734,-2.2945,-2.3101,-2.3101,-2.3101,-2.3101,-2.3101,-2.3101,-2.3101,-2.3101,-2.3101,-2.3179,-2.3398,-2.3418,-2.3418,-2.3418,-2.3848,-2.3828,-2.3418,-2.3672,-2.3652,-2.3354,-2.3179,-2.3101,-2.3101,-2.3296,-2.4368,-2.5951,-2.645,0.0,0.0,-2.729,-2.6909,0.0,0.0,0.0,-2.8084,-2.7907,-2.7988,0.0,0.0,0.0,0.0,0.0,0.0,0.0,0.0,0.0,0.0,0.0,0.0,0.0,-2.5527,-2.607,-2.6876,0.0,0.0,0.0,0.0,0.0,0.0,0.0,0.0,0.0,0.0,0.0,0.0,0.0,0.0,0.0,0.0,-3.0557,-3.0733,-3.0733,-3.0733,-3.0583,-3.0281,-2.9955,-2.993,-3.0256,-2.9955,-2.9955,-3.0256,-2.9955,-2.9804,-2.9804,-3.003,-3.0457,-3.1085,-3.1537,-3.2089,-3.2742,-3.2968,-3.3111,-3.3162,-3.3771,-3.3847,-3.3621,-3.4173,-3.4374,-3.4474,-3.5207,-3.5708,-3.6056,0.0,0.0,-2.082,-2.123,-2.1268,-2.1405,-2.1894,-2.1953,-2.1973,0.0,-2.2344,-2.2672,-2.3062,-2.3101,-2.3101,-2.3101,-2.314,-2.314,-2.3101,-2.314,-2.3159,-2.3159,-2.3159,-2.3374,-2.3848,-2.3867,-2.3867,-2.3867,-2.4277,-2.4258,-2.3789,-2.3828,-2.3809,-2.3691,-2.332,-2.3101,-2.312,-2.3727,-2.4909,-2.6514,-2.7621,-2.8138,0.0,0.0,-2.7137,-2.6734,-2.7079,-2.7525,-2.8108,-2.9248,-2.8949,0.0,0.0,0.0,0.0,0.0,-2.2663,0.0,0.0,0.0,0.0,0.0,0.0,0.0,-2.5276,-2.6171,-2.7153,0.0,0.0,0.0,0.0,0.0,0.0,0.0,0.0,0.0,0.0,0.0,0.0,0.0,0.0,0.0,-2.9804,-2.9804,-2.9804,-2.9804,-2.9804,-2.9804,-2.9804,-2.9804,-2.9804,-2.9804,-2.9804,-2.9804,-2.9804,-2.9804,-2.9804,-2.9804,-3.0281,-3.0557,-3.0658,-3.1662,-3.2164,-3.224,-3.2817,-3.3111,-3.3111,-3.3111,-3.3111,-3.3162,-3.3621,-3.3847,-3.4022,-3.4956,-3.5382,-3.5583,0.0,-2.1073,-2.125,-2.168,-2.1758,-2.1894,-2.2324,-2.2383,-2.2519,-2.2808,-2.2925,-2.3003,-2.3081,-2.3101,-2.3101,-2.3101,-2.3457,-2.3516,-2.312,-2.3477,-2.3672,-2.3672,-2.3672,-2.3867,-2.4277,-2.4297,-2.4297,-2.4297,-2.4727,-2.4551,-2.3789,-2.4141,-2.3926,-2.3218,-2.314,-2.3101,-2.3208,-2.4547,-2.5848,-2.7143,-2.773,0.0,-3.063,-3.0114,-2.9028,-2.7827,-2.7881,-2.7452,-2.6953,-2.8068,-2.8307,-2.7884,0.0,0.0,0.0,0.0,0.0,0.0,0.0,0.0,0.0,0.0,0.0,0.0,-2.6505,-2.6773,-2.7153,0.0,0.0,0.0,0.0,0.0,0.0,0.0,0.0,0.0,0.0,0.0,0.0,0.0,0.0,0.0,-2.9804,-2.9804,-2.9804,-2.9804,-2.9804,-2.9804,-2.9804,-2.9804,-2.9804,-2.9804,-2.9804,-2.9804,-2.9804,-2.9804,-2.9804,-2.9804,-2.9905,-3.0181,-3.0633,-3.126,-3.1788,-3.224,-3.2817,-3.3111,-3.3111,-3.3111,-3.3111,-3.3136,-3.3237,-3.3495,-3.3922,-3.4148,-3.4776,-3.5508,-2.1465,-2.1562,-2.1699,-2.2129,-2.2207,-2.2344,-2.2711,-2.2789,-2.2969,-2.3398,-2.3608,-2.3647,-2.3496,-2.3457,-2.3335,-2.312,-2.334,-2.3457,-2.3457,-2.3672,-2.3887,-2.4102,-2.4102,-2.4297,-2.4727,-2.4746,-2.4746,-2.4746,-2.5176,-2.4961,-2.4102,-2.4316,-2.4082,-2.3457,-2.3457,-2.3791,-2.4381,-2.4982,-2.6663,-2.8932,-2.8803,0.0,-3.0514,-2.96,-2.861,-2.7689,-2.7607,-2.7446,-2.7279,-2.7279,-2.744,0.0,0.0,-2.5956,-2.5616,0.0,-2.3676,-2.4082,0.0,0.0,0.0,-2.6235,0.0,0.0,0.0,-2.7531,-2.7946,-2.7394,-2.7102,-2.7077,0.0,0.0,0.0,0.0,0.0,0.0,0.0,0.0,0.0,0.0,0.0,0.0,-2.9804,-2.9804,-2.9804,-2.9804,-2.9804,-2.9804,-2.9804,-2.9804,-2.9804,-2.9804,-2.9804,-2.9804,-2.9804,-2.9804,-2.9804,-2.9804,-2.9804,-2.993,-3.0231,-3.1035,-3.1537,-3.1838,-3.239,-3.2817,-3.3086,-3.2767,-3.2817,-3.3111,-3.3111,-3.3244,-3.352,-3.3796,-3.4248,-3.4731,-2.2031,-2.2012,-2.2129,-2.2559,-2.2637,-2.2754,-2.3042,-2.3101,-2.3276,-2.3848,-2.4199,-2.4428,-2.4524,-2.4185,-2.3957,-2.4108,-2.359,-2.3516,-2.4121,-2.4004,-2.4062,-2.4394,-2.4492,-2.4707,-2.5106,-2.5204,-2.5195,-2.5195,-2.5566,-2.5284,-2.4531,-2.4531,-2.4316,-2.3906,-2.3828,-2.4504,-2.5713,-2.5165,-2.7083,-3.0381,0.0,-2.9872,-3.0158,-2.8998,-2.808,-2.7357,-2.6778,-2.7066,-2.7579,-2.671,-2.6768,-2.7036,-2.5889,-2.567,0.0,0.0,0.0,0.0,0.0,0.0,0.0,0.0,0.0,-2.6635,0.0,0.0,0.0,-2.7866,0.0,0.0,0.0,0.0,0.0,0.0,0.0,0.0,0.0,0.0,0.0,0.0,0.0,0.0,-2.9628,-2.9729,-2.9804,-2.9804,-2.9804,-2.9804,-2.9804,-2.9804,-2.9804,-2.9804,-2.9804,-2.9804,-2.9804,-2.9804,-2.9804,-2.9804,-2.9804,-2.9804,-2.9829,-3.0809,-3.1235,-3.126,-3.1813,-3.2315,-3.2717,-3.224,-3.239,-3.2918,-3.3043,-3.3111,-3.3144,-3.3571,-3.3796,-3.3972,-2.2519,-2.2441,-2.2578,-2.2945,-2.3023,-2.3042,-2.3081,-2.3101,-2.3393,-2.4238,-2.4394,-2.5133,-2.7035,-2.551,-2.5278,-2.7598,-2.5309,-2.4238,-2.5401,-2.4785,-2.4355,-2.4414,-2.4785,-2.5067,-2.5106,-2.5449,-2.5615,-2.5615,-2.5674,-2.5488,-2.5047,-2.5047,-2.4766,-2.4336,-2.3965,-2.4686,-2.6133,-2.4965,-2.657,0.0,-2.953,-3.042,0.0,-3.1232,-2.9648,-2.7545,-2.5435,-2.5415,-2.6292,0.0,-2.68,-2.7436,0.0,-2.6666,-2.6955,0.0,0.0,0.0,0.0,0.0,0.0,0.0,-2.7197,0.0,0.0,0.0,-2.6102,-2.6567,0.0,0.0,0.0,0.0,0.0,0.0,0.0,0.0,0.0,0.0,0.0,0.0,0.0,0.0,-2.9038,-2.9503,-2.9804,-2.9804,-2.9804,-2.9804,-2.9804,-2.9804,-2.9804,-2.9804,-2.9804,-2.9804,-2.9804,-2.9804,-2.9804,-2.9804,-2.9804,-2.9804,-2.9804,-3.0432,-3.0708,-3.0733,-3.126,-3.1512,-3.1587,-3.1512,-3.1813,-3.2365,-3.2867,-3.3111,-3.3136,-3.3144,-3.347,-3.3897,-2.2867,-2.2828,-2.2886,-2.3062,-2.3101,-2.3101,-2.3101,-2.3958,-2.4719,-2.5089,-2.584,-2.6576,-2.72,-2.6458,0.0,0.0,0.0,-2.4883,0.0,0.0,-2.4648,-2.5109,-2.5352,-2.5449,-2.5449,-2.5596,-2.5693,-2.5693,-2.5693,-2.5508,-2.5106,-2.5106,-2.4844,-2.4414,-2.4238,-2.5308,-2.7151,0.0,-2.8121,0.0,0.0,0.0,0.0,-3.0989,-2.9011,-2.7027,-2.5846,-2.5719,-2.5989,0.0,-2.561,0.0,0.0,0.0,0.0,0.0,0.0,0.0,0.0,0.0,0.0,0.0,0.0,0.0,-2.6783,0.0,-2.6386,0.0,0.0,0.0,0.0,0.0,0.0,0.0,-2.8172,0.0,0.0,0.0,0.0,0.0,0.0,0.0,-2.9428,-2.9654,-2.9804,-2.9804,-2.9804,-2.9804,-2.9804,-2.9804,-2.9804,-2.9804,-2.9804,-2.9804,-2.9804,-2.9804,-2.9804,-2.9804,-2.9804,-2.9804,-2.9804,-3.0357,-3.0608,-3.0633,-3.0859,-3.111,-3.1386,-3.1386,-3.1537,-3.1838,-3.2717,-3.3111,-3.3111,-3.3111,-3.3219,-3.342,-2.3101,0.0,0.0,-2.3101,-2.3101,-2.314,-2.3257,-2.4605,-2.5829,-2.6355,-2.6971,-2.7712,-2.8674,-2.8066,0.0,0.0,-2.6833,-2.6035,0.0,0.0,-2.5156,0.0,0.0,0.0,0.0,-2.5557,-2.5693,-2.5693,-2.5693,-2.5566,-2.5254,-2.5254,-2.5078,-2.4766,-2.4648,-2.5762,-2.7788,0.0,-2.9083,-3.2525,-3.1601,-3.1773,-3.2467,-3.0602,-2.8853,-2.7381,-2.6743,-2.6273,-2.586,-2.5046,-2.498,0.0,-2.5254,0.0,0.0,0.0,0.0,0.0,-2.4082,0.0,0.0,0.0,0.0,0.0,0.0,0.0,0.0,0.0,0.0,0.0,0.0,0.0,0.0,0.0,0.0,-2.8323,0.0,0.0,0.0,0.0,0.0,0.0,0.0,0.0,0.0,-2.9578,0.0,-2.9804,-2.9804,-2.9804,-2.9804,-2.9804,-2.9804,-2.9804,-2.9804,-2.9804,-2.9804,-2.9804,-2.9804,-2.9804,-2.9804,-3.0206,-3.0382,-3.0382,-3.0382,-3.0608,-3.0959,-3.111,-3.126,-3.1486,-3.2466,-3.2943,-3.3111,-3.3111,-3.3111,-3.3111,-2.3101,-2.3101,0.0,-2.3101,-2.3101,-2.3237,-2.3711,-2.4727,-2.6124,-2.8067,-2.7209,0.0,0.0,0.0,0.0,0.0,0.0,-2.8027,-2.7689,0.0,-2.6016,0.0,0.0,-2.5762,0.0,0.0,-2.5693,-2.5693,-2.5693,-2.5674,-2.5674,-2.5674,-2.5654,-2.5635,-2.5234,-2.6013,-2.7563,-2.7121,-2.8586,-3.1267,-3.1223,-3.0553,-2.9647,0.0,-3.0395,-2.9144,-2.796,0.0,0.0,-2.5654,-2.5654,0.0,0.0,0.0,0.0,0.0,0.0,0.0,0.0,0.0,0.0,-2.521,0.0,0.0,0.0,0.0,-2.3517,0.0,0.0,0.0,0.0,0.0,0.0,-2.8988,0.0,0.0,0.0,0.0,0.0,0.0,0.0,0.0,0.0,0.0,0.0,0.0,-2.9478,-2.9804,-2.9804,-2.9804,-2.9804,-2.9804,-2.9804,-2.9804,-2.9804,-2.9804,-2.9804,-2.9804,-2.9804,-2.9804,-2.9804,-2.9804,-2.9829,-2.9829,-2.9829,-2.9829,-2.988,-3.0407,-3.0934,-3.1461,-3.2014,-3.2591,-3.3111,-3.3111,-3.3111,-3.3111,0.0,0.0,0.0,0.0,-2.3101,-2.3767,-2.5715,-2.69,0.0,0.0,-3.2094,0.0,0.0,-3.5285,-3.4105,0.0,0.0,-2.9824,-2.9375,-2.8144,0.0,0.0,0.0,-2.6328,0.0,0.0,0.0,-2.5693,-2.5693,-2.583,-2.6172,-2.583,-2.5898,-2.6133,-2.5391,-2.5799,0.0,0.0,0.0,0.0,0.0,-3.2219,-3.0973,0.0,-2.9258,-2.8049,-2.6791,-2.662,0.0,-2.5965,-2.5693,-2.5693,-2.5693,-2.5693,-2.5654,-2.5547,-2.5508,0.0,0.0,0.0,-2.6801,-2.5144,0.0,0.0,0.0,0.0,0.0,0.0,0.0,0.0,0.0,0.0,-2.9729,-2.9528,-2.9176,0.0,0.0,0.0,0.0,0.0,0.0,0.0,0.0,0.0,0.0,0.0,-2.9679,0.0,-2.9804,-2.9804,-2.9804,-2.9804,-2.9804,-2.9804,-2.9804,-2.9804,-2.9804,-2.9804,-2.9804,-2.9804,-2.9804,-2.9804,-2.998,-3.0306,-2.9955,-3.0206,-3.0859,-3.106,-3.1235,-3.1486,-3.2416,-3.2667,-3.2541,-3.2943,-3.3111,-3.3162,-2.3769,0.0,0.0,0.0,0.0,0.0,0.0,0.0,0.0,0.0,-3.6016,0.0,-4.0514,0.0,-3.681,0.0,-3.3942,-3.1601,-3.0078,-2.9394,0.0,-2.6855,-2.7226,0.0,0.0,0.0,0.0,0.0,0.0,-2.625,-2.6387,-2.6094,-2.6035,-2.6133,-2.5566,-2.5722,-2.6437,-2.8267,-2.9624,0.0,0.0,-3.2995,0.0,0.0,-2.8983,-2.7923,0.0,-2.7085,-2.7016,-2.6024,-2.5693,-2.5693,-2.5693,-2.5693,-2.5693,-2.5693,-2.5693,-2.5635,-2.5391,-2.6411,0.0,-2.5166,-2.5808,0.0,-2.5324,0.0,0.0,0.0,0.0,0.0,0.0,0.0,0.0,-2.974,-2.9145,0.0,0.0,-2.9227,0.0,0.0,0.0,0.0,0.0,0.0,0.0,-2.9478,-2.9478,-2.9578,0.0,-2.9804,-2.9804,-2.9804,-2.9804,-2.9804,-2.9804,-2.9804,-2.9804,-2.9804,-2.9804,-2.9804,-2.9804,-2.9804,-3.0105,-3.0583,-3.003,-3.0407,-3.1386,-3.1386,-3.1512,-3.1788,-3.2717,-3.2968,-3.2842,-3.3018,-3.3111,-3.3169,-2.3906,-2.418,0.0,0.0,-2.6186,0.0,0.0,0.0,-3.6514,0.0,-3.8661,-4.025,-4.3116,-4.0408,-3.823,-3.7827,-3.5986,-3.3485,-3.0096,-3.0937,0.0,0.0,-2.7754,-2.7773,-2.6445,0.0,0.0,0.0,0.0,-2.6797,-2.6445,-2.6406,-2.6191,-2.5791,-2.5771,0.0,-2.5908,-2.8305,-2.9372,-2.9715,-3.267,-3.2774,-3.1118,-3.0513,-2.9659,-2.883,-2.9146,-2.8084,-2.6427,-2.5937,-2.5732,-2.5693,-2.5713,-2.5713,-2.5693,-2.5693,-2.5693,-2.5693,-2.5693,-2.5742,-2.5673,-2.5262,-2.5192,0.0,0.0,0.0,-2.492,0.0,0.0,0.0,0.0,0.0,0.0,0.0,0.0,0.0,0.0,0.0,0.0,0.0,0.0,0.0,0.0,0.0,-2.8938,-2.8938,-2.8938,-2.9164,0.0,-2.9804,-2.9804,-2.9829,-2.9804,-2.9804,-2.9829,-2.9804,-2.9804,-2.9829,-2.9829,-2.9829,-2.9829,-2.9854,-3.0156,-3.0633,-3.0105,-3.0482,-3.1461,-3.1436,-3.1763,-3.2315,-3.2893,-3.3445,-3.3872,-3.3345,-3.3169,-3.3287,-2.4277,-2.4863,-2.5254,0.0,-2.613,-2.7858,0.0,0.0,0.0,0.0,-4.0616,-4.192,-4.7322,-4.4708,-4.2259,-4.1528,-3.919,0.0,0.0,0.0,0.0,-2.9824,-2.9726,-2.8809,-2.6894,-2.748,0.0,-2.6387,0.0,-2.6816,-2.7376,-2.668,-2.666,-2.7148,-2.6836,-2.6504,-2.631,-2.7862,-2.936,-3.0866,-3.263,-3.2337,-3.0874,0.0,-3.0219,-2.8316,-2.7451,-2.7411,-2.7631,-2.6902,-2.622,-2.5752,-2.6113,-2.5996,-2.5693,-2.5693,-2.5693,-2.5693,-2.5693,-2.638,-2.6867,-2.5827,-2.6247,-2.6816,0.0,0.0,0.0,0.0,0.0,0.0,0.0,0.0,0.0,0.0,0.0,0.0,0.0,0.0,0.0,0.0,0.0,0.0,0.0,0.0,-2.9578,-2.9578,-2.9578,-2.9628,-2.9779,0.0,-2.998,-3.0382,-3.0005,-2.998,-3.0407,-3.0005,-3.0005,-3.0407,-3.0407,-3.0407,-3.0407,-3.0809,-3.106,-3.1185,-3.1035,-3.1612,-3.2616,-3.219,-3.234,-3.2918,-3.347,-3.4022,-3.45,-3.4349,-3.4299,-3.4374,-2.4453,0.0,0.0,-2.626,0.0,0.0,-3.2162,-3.3846,0.0,-4.2594,-4.27,0.0,-4.8056,-4.6574,-4.4662,-4.3219,-4.0601,0.0,-3.4642,0.0,0.0,-3.0957,-3.0449,-2.9375,-2.7617,-2.7871,0.0,-2.666,0.0,-2.6914,-2.7363,-2.6699,-2.6641,-2.709,-2.6855,-2.6719,-2.6741,-2.8334,-3.009,-3.1912,-3.2658,-3.2361,0.0,-3.1095,-3.007,-2.8677,-2.7393,-2.7251,-2.7571,-2.6951,-2.6289,-2.5732,-2.6035,-2.5937,-2.5693,-2.5693,-2.5693,-2.5693,-2.5693,-2.6207,-2.662,-2.5868,-2.6255,-2.6683,-2.6324,-2.6827,-2.7441,0.0,0.0,0.0,0.0,0.0,0.0,0.0,0.0,0.0,0.0,0.0,0.0,0.0,0.0,0.0,0.0,-2.9553,-2.9528,-2.9779,-2.9553,-2.9528,0.0,0.0,-3.0055,-3.0608,-3.0532,-3.0633,-3.0959,-3.0658,-3.0658,-3.0959,-3.0733,-3.0733,-3.0959,-3.126,-3.1512,-3.1738,-3.1486,-3.2039,-3.3043,-3.2466,-3.2566,-3.3169,-3.3947,-3.46,-3.5056,-3.5353,-3.5127,-3.4731,-2.4824,0.0,0.0,0.0,0.0,0.0,0.0,-3.713,0.0,-4.3894,0.0,-4.5812,-4.737,-4.7062,-4.5829,-4.3601,0.0,-3.8158,-3.453,-3.3828,-3.2851,-3.1211,-3.0703,-2.9805,-2.8398,-2.8027,0.0,0.0,0.0,-2.7051,-2.709,-2.666,-2.6504,-2.6562,-2.6562,0.0,0.0,-2.9327,-3.0993,-3.2371,-3.2628,-3.2535,-3.2063,-3.032,-2.9525,-2.9229,-2.8152,-2.7461,-2.7051,-2.668,-2.623,-2.5771,-2.5771,-2.5732,-2.5693,-2.5693,-2.5693,-2.5693,-2.5693,-2.5693,-2.5693,-2.5693,-2.5693,-2.5693,-2.5693,-2.582,-2.6235,-2.7363,-2.8034,-2.8813,0.0,0.0,0.0,0.0,0.0,0.0,0.0,0.0,0.0,0.0,0.0,0.0,0.0,0.0,-2.9252,-2.9754,-2.9327,0.0,0.0,0.0,-3.008,-3.0708,-3.1085,-3.1361,-3.1486,-3.1436,-3.1436,-3.1486,-3.1035,-3.106,-3.1486,-3.1587,-3.1838,-3.219,-3.1788,-3.2164,-3.3086,-3.2541,-3.2667,-3.3294,-3.4324,-3.5006,-3.5558,-3.6157,-3.5755,-3.4926,-2.6504,0.0,0.0,0.0,0.0,-3.539,-3.6269,-3.9388,-4.2974,-4.6686,-4.6508,-4.6981,-4.9526,-4.7984,-4.5712,-4.3149,-4.2102,0.0,0.0,0.0,0.0,-3.2519,-3.2051,-3.0879,-2.8848,-2.873,-2.832,0.0,0.0,-2.7207,-2.7591,-2.7109,-2.709,-2.7493,0.0,0.0,-2.8595,-3.011,0.0,-3.0621,-3.209,-3.1652,-3.0013,-2.9644,-2.9116,-2.8483,-2.829,-2.791,-2.7591,-2.7513,-2.6914,-2.6269,-2.6269,-2.6035,-2.5693,-2.5693,-2.5693,-2.5693,-2.5693,-2.5693,-2.5693,-2.5693,-2.5693,-2.5693,-2.5693,-2.6524,-2.7315,-2.7531,-2.7408,-2.7869,-3.0003,0.0,0.0,0.0,0.0,0.0,0.0,0.0,0.0,0.0,0.0,0.0,0.0,0.0,0.0,0.0,0.0,0.0,0.0,0.0,-3.0256,0.0,-3.0934,0.0,0.0,0.0,-3.1612,-3.2064,-3.1964,-3.1989,-3.2089,-3.2566,-3.2566,-3.224,-3.2616,-3.2935,-3.3111,-3.3011,-3.3244,-3.3822,-3.4474,-3.5006,-3.5558,-3.6157,-3.6279,-3.6128,0.0,0.0,0.0,0.0,0.0,0.0,0.0,-4.2122,-4.4925,-4.4559,-4.3083,-4.2794,-4.4842,-4.4809,-4.3822,-4.1612,-4.1506,-4.0192,-3.6897,-3.6578,-3.5665,-3.378,-3.3313,0.0,-2.9297,-2.9043,-2.8613,-2.7988,0.0,0.0,-2.7708,-2.7226,-2.7129,-2.7324,0.0,-2.7803,0.0,0.0,0.0,-3.0197,-3.0816,-3.0606,-2.9838,-2.9134,-2.8615,-2.8301,-2.8301,-2.8164,-2.7949,-2.7787,-2.7246,-2.6719,-2.6719,-2.6562,-2.6317,-2.6133,-2.6074,-2.6035,-2.5752,-2.5693,-2.5693,-2.5693,-2.5693,-2.5693,-2.5693,-2.6159,-2.662,-2.662,-2.694,-2.7714,-2.9214,-2.8344,0.0,0.0,0.0,0.0,0.0,0.0,0.0,0.0,0.0,0.0,0.0,0.0,0.0,0.0,0.0,0.0,0.0,0.0,-3.0281,0.0,0.0,0.0,-3.2641,0.0,-3.239,-3.2641,-3.2365,-3.2365,-3.2667,-3.2943,-3.2918,-3.2667,-3.2943,-3.3111,-3.3111,-3.3111,-3.3395,-3.3947,-3.45,-3.5006,-3.5558,-3.6157,-3.6405,-3.6405,0.0,-2.9687,0.0,0.0,-3.6606,-3.99,-3.9252,-4.3533,-4.5843,-4.275,-4.0606,-3.9823,-4.086,-4.1943,-4.1927,-4.0108,-4.0716,-4.0166,-3.78,-3.8204,-3.7389,-3.4749,-3.4265,-3.2757,-2.9939,-2.9238,-2.875,0.0,0.0,0.0,-2.7708,-2.7324,-2.7109,0.0,0.0,0.0,0.0,0.0,-2.9492,-3.0087,-2.9785,-2.9735,-2.9755,-2.8708,-2.8301,-2.8301,-2.8301,-2.8301,-2.8242,-2.791,-2.7519,-2.7129,-2.7051,-2.7012,-2.6953,-2.6621,-2.6465,-2.6309,-2.5977,-2.5752,-2.5693,-2.5693,-2.5693,-2.5693,-2.5693,-2.5693,-2.5693,-2.5693,-2.6716,-2.7661,-2.795,-2.7494,0.0,0.0,0.0,0.0,0.0,0.0,0.0,0.0,0.0,0.0,0.0,0.0,0.0,0.0,0.0,0.0,-2.9804,0.0,0.0,0.0,0.0,-3.2365,-3.3111,0.0,-3.3111,-3.3111,-3.2616,-3.2641,-3.3111,-3.3111,-3.3111,-3.3136,-3.3194,-3.3319,-3.3395,-3.3169,-3.347,-3.4123,-3.455,-3.5006,-3.5558,-3.6157,-3.6405,-3.6405,0.0,0.0,0.0,0.0,0.0,-4.0979,-3.7947,-4.1433,-4.4615,-4.5242,-4.4409,-4.3735,-4.3871,-4.2815,-4.1397,-3.9622,-4.0519,-4.0076,-3.7338,-3.8641,-3.8248,-3.5233,-3.4669,-3.3296,-3.0839,-2.9551,-2.8906,0.0,0.0,-2.7669,0.0,-2.7669,0.0,0.0,0.0,0.0,0.0,-2.9764,-2.9941,-2.9617,-3.0046,-2.9525,-2.8441,-2.8354,-2.8301,-2.8301,-2.8301,-2.8301,-2.8281,-2.8242,-2.7949,-2.7539,-2.7129,-2.7012,-2.7012,-2.6973,-2.668,-2.6387,-2.6348,-2.6035,-2.5693,-2.5693,-2.5693,-2.5693,-2.5693,-2.5693,-2.5693,-2.5693,-2.6716,-2.7247,-2.6196,-2.6826,-2.7563,0.0,0.0,0.0,0.0,0.0,0.0,0.0,0.0,0.0,0.0,-2.8267,0.0,0.0,-2.9804,0.0,0.0,0.0,0.0,-3.1361,-3.1436,-3.1989,-3.3111,-3.3111,-3.3111,-3.3111,-3.3018,-3.3061,-3.3111,-3.3111,-3.3111,-3.3136,-3.3596,-3.4098,-3.45,-3.3495,-3.3696,-3.465,-3.4655,-3.5006,-3.5558,-3.6157,-3.6405,-3.6405,0.0,0.0,0.0,0.0,0.0,0.0,0.0,-4.0323,-4.1823,-4.1126,-4.0485,-4.0007,-3.9737,-3.989,-3.9269,-3.7503,-4.0318,-4.0756,-3.7318,-4.0266,-4.0329,-3.629,-3.6027,-3.479,-3.2285,-3.0532,-2.9551,0.0,0.0,0.0,0.0,0.0,0.0,0.0,0.0,-2.7858,-2.8537,-2.8669,-2.877,-2.8798,-2.9031,-2.8794,-2.8301,-2.8301,-2.8301,-2.8301,-2.8301,-2.8301,-2.8301,-2.8301,-2.8184,-2.8008,-2.7832,-2.7773,-2.7734,-2.748,-2.7285,-2.709,-2.6836,-2.6445,-2.6133,-2.6133,-2.5937,-2.5693,-2.5693,-2.5693,-2.5693,-2.5693,-2.611,-2.6284,-2.5791,-2.611,-2.6476,-2.6476,0.0,0.0,0.0,0.0,0.0,0.0,0.0,0.0,0.0,0.0,0.0,0.0,0.0,0.0,0.0,0.0,0.0,-3.1361,0.0,-3.2265,-3.3111,-3.3111,-3.3111,-3.3111,-3.3111,-3.3111,-3.3136,-3.342,-3.3746,-3.4073,-3.4299,-3.4525,-3.47,-3.4248,-3.4324,-3.4705,-3.5031,-3.5307,-3.5558,-3.6157,-3.6405,-3.6405,-3.5312,0.0,-3.5566,0.0,-3.8792,-3.9495,-3.8846,-4.0277,-4.0751,-3.8779,-3.8586,-3.832,-3.7488,-3.7638,-3.7575,-3.6789,-3.9756,-4.0563,-3.7995,-4.1268,-4.1692,-3.7988,-3.7223,0.0,-3.3534,-3.1311,-3.0059,-2.9746,-2.9199,0.0,0.0,0.0,0.0,0.0,-2.7598,-2.7656,-2.8105,-2.793,-2.8027,-2.8301,-2.8301,-2.8301,-2.8301,-2.8301,-2.8301,-2.8301,-2.8301,-2.8301,-2.8301,-2.8301,-2.8301,-2.8301,-2.8301,-2.8301,-2.8242,-2.793,-2.7806,-2.765,-2.7285,-2.6894,-2.6543,-2.6426,-2.6152,-2.5849,-2.5713,-2.5693,-2.5693,-2.5693,-2.5693,-2.5693,-2.5693,-2.5693,-2.5693,-2.5693,0.0,0.0,0.0,0.0,0.0,0.0,-2.5692,-2.6022,-2.7204,-2.7609,0.0,0.0,0.0,0.0,0.0,0.0,0.0,0.0,0.0,0.0,-3.3111,-3.3111,-3.3111,-3.3111,-3.3244,-3.3319,-3.3345,-3.3897,-3.4449,-3.4906,-3.4756,-3.4901,-3.5177,-3.4851,-3.4901,-3.5228,-3.5408,-3.5608,-3.583,-3.6254,-3.6405,-3.6405,-3.6934,-3.7266,-3.7812,-3.9551,-4.1041,-4.1369,-3.9475,-4.1524,-4.2454,-4.0183,-4.0953,-4.1111,-3.9336,-3.732,-3.6722,-3.8399,-3.8597,-3.8894,-3.9437,-4.1112,-4.1627,0.0,0.0,-3.6148,-3.4538,-3.169,-3.0195,-3.0195,0.0,0.0,-2.8906,0.0,-2.8066,-2.7748,-2.8105,-2.8047,-2.7748,-2.8105,-2.8281,-2.8301,-2.8301,-2.8301,-2.8301,-2.8301,-2.8301,-2.8301,-2.8301,-2.8301,-2.8301,-2.8301,-2.8301,-2.8301,-2.8301,-2.8301,-2.8301,-2.8281,-2.7988,-2.7728,-2.7708,-2.7344,-2.6914,-2.6484,-2.6387,-2.6269,-2.5791,-2.5693,-2.5693,-2.5693,-2.5693,-2.5693,-2.5693,-2.5693,-2.5693,-2.5693,0.0,0.0,0.0,0.0,0.0,0.0,-2.5666,-2.5915,-2.5499,-2.6475,0.0,0.0,0.0,0.0,0.0,0.0,0.0,-3.2164,-3.2215,0.0,-3.3111,-3.3111,-3.3111,-3.3136,-3.3621,-3.3897,-3.3897,-3.4449,-3.4956,-3.5458,-3.4906,-3.5328,-3.6304,-3.5177,-3.5353,-3.6329,-3.5708,-3.5881,-3.6405,-3.6405,-3.6405,-3.6405,-3.7559,-3.7969,-3.834,-3.8906,-3.9123,-3.9022,-3.8393,-3.9556,-4.0256,-3.9521,-4.0236,-4.1152,-4.2194,-4.1633,-4.103,0.0,-4.2131,-4.2286,0.0,-4.1888,-4.2143,-3.9569,-3.7816,-3.6295,-3.5087,-3.215,-3.0508,-3.0195,0.0,0.0,0.0,-2.8789,-2.8496,-2.8105,-2.8242,-2.8223,-2.8105,-2.8242,-2.8301,-2.8301,-2.8301,-2.8301,-2.832,-2.8613,-2.8711,-2.8769,-2.9062,-2.916,-2.9121,-2.8828,-2.8711,-2.8672,-2.8379,-2.8301,-2.8301,-2.8301,-2.8203,-2.8086,-2.8086,-2.7773,-2.7363,-2.6914,-2.6602,-2.6269,-2.5791,-2.5693,-2.5693,-2.5693,-2.5693,-2.5693,-2.5693,-2.5693,-2.5693,-2.5693,-2.5693,0.0,0.0,0.0,0.0,0.0,-2.527,-2.5548,-2.5847,-2.6955,0.0,0.0,0.0,0.0,0.0,0.0,0.0,0.0,-3.2792,0.0,-3.3646,-3.3646,-3.3646,-3.3646,-3.4198,-3.465,-3.4981,-3.5157,-3.5579,-3.6081,-3.5906,-3.6031,-3.638,-3.6028,-3.6078,-3.638,-3.6182,-3.6207,-3.6405,-3.6405,-3.6405,-3.6405,-3.7871,-3.8144,-3.8379,-3.8555,-3.8359,-3.8105,-3.7949,-3.8804,-3.9614,-4.0094,-4.1011,-4.2265,-4.4183,-4.439,0.0,-4.1988,-4.2891,-4.2637,-4.0433,-4.1176,-4.0971,-3.9355,-3.7054,-3.5426,-3.4799,-3.2252,0.0,-3.0449,-3.0293,-2.9844,-2.916,-2.916,-2.9023,-2.8769,-2.8594,-2.8535,-2.8516,-2.8359,-2.8301,-2.8301,-2.8457,-2.8535,-2.8574,-2.9004,-2.916,-2.9199,-2.9473,-2.9473,-2.9277,-2.9004,-2.8809,-2.8633,-2.8379,-2.8301,-2.8301,-2.8301,-2.8301,-2.8301,-2.8301,-2.8105,-2.7793,-2.7363,-2.6934,-2.6465,-2.583,-2.5859,-2.5937,-2.5732,-2.5693,-2.5693,-2.5693,-2.5693,-2.5693,-2.5693,-2.5693,-2.5693,-2.5693,0.0,0.0,0.0,0.0,0.0,0.0,-2.64,-2.7127,0.0,0.0,0.0,0.0,0.0,0.0,-3.337,-3.3395,-3.3646,-3.4198,-3.4198,-3.4198,-3.4223,-3.4731,-3.5282,-3.5855,-3.5855,-3.6031,-3.6405,-3.6405,-3.6405,-3.6405,-3.6405,-3.6405,-3.6405,-3.6405,-3.6405,-3.6405,-3.6405,-3.6405,-3.643,-3.793,-3.7949,-3.8086,0.0,-3.8588,-3.8432,-3.8073,-3.9036,-4.0252,-4.144,-4.2708,-4.3949,-4.5216,-4.5295,-4.466,-4.3142,0.0,0.0,-4.1365,-3.9387,-3.8706,-3.9911,-3.6153,-3.3949,-3.3886,-3.1971,-3.0918,-3.0898,-3.0449,-3.0019,-2.9609,-2.9609,-2.9646,-2.9551,-2.9121,-2.8926,-2.8887,-2.8476,-2.832,-2.8379,-2.8769,-2.8945,-2.9004,-2.9453,-2.9609,-2.9665,-2.9704,-2.9394,-2.9043,-2.8984,-2.8711,-2.8359,-2.832,-2.8301,-2.8301,-2.8301,-2.8301,-2.8301,-2.8301,-2.8301,-2.8184,-2.7826,-2.7344,-2.6797,-2.5927,-2.6094,-2.6269,-2.5771,-2.5693,-2.5693,-2.5693,-2.5693,-2.5693,-2.5693,-2.5693,-2.5693,-2.5693,0.0,0.0,0.0,0.0,0.0,-2.5156,-2.5212,-2.5531,0.0,0.0,0.0,0.0,0.0,-3.2646,-3.3922,-3.3922,-3.4173,-3.4731,-3.4776,-3.4801,-3.4851,-3.5307,-3.5881,-3.6405,-3.6405,-3.6405,-3.6405,-3.6405,-3.6405,-3.6405,-3.6405,-3.6405,-3.6405,-3.6405,-3.6405,-3.6405,-3.6405,-3.643,-3.6531,0.0,0.0,-3.8945,-4.0422,-3.8989,-3.8034,-3.9363,-3.9187,-3.9024,-3.9295,-4.0401,-4.1907,-4.3887,-4.3397,-4.3273,-4.415,-4.2328,-4.1697,-4.3078,-4.0059,-3.8706,-3.9798,-3.6677,-3.4543,-3.377,-3.2193,-3.1211,-3.0898,-3.0781,-3.0488,-3.0059,-3.0059,-2.9883,-2.9551,-2.9121,-2.8926,-2.8887,-2.8476,-2.8476,-2.8769,-2.8887,-2.9121,-2.9453,-2.9883,-3.0059,-3.0098,-3.0449,-3.0508,-3.0312,-2.9648,-2.9355,-2.916,-2.8496,-2.8301,-2.8301,-2.8301,-2.8301,-2.8301,-2.8301,-2.8301,-2.8184,-2.7826,-2.7344,-2.6875,-2.6348,-2.6309,-2.6269,-2.5771,-2.5693,-2.5693,-2.5693,-2.5693,-2.5693,-2.5693,-2.5693,-2.5693,-2.5693,-2.5693,0.0,0.0,-2.5693,-2.5654,-2.5586,-2.6458,-2.6868,0.0,0.0,0.0,-2.9489,-3.0125,-3.1731,-3.441,-3.4123,-3.4374,-3.5282,-3.5307,-3.5554,-3.6028,-3.6153,-3.6279,-3.6405,-3.6405,-3.6405,-3.6405,-3.6405,-3.6405,-3.6405,-3.6405,-3.6405,-3.6405,-3.6405,-3.6405,-3.6405,-3.6405,-3.6681,-3.701,-3.7851,-3.7969,-3.8386,-3.9546,-3.8743,-3.8031,-3.8511,-3.8234,-3.8159,-3.8528,-3.9151,-4.0204,-4.1959,-4.215,-4.2365,-4.2974,-4.2681,-4.247,-4.2364,-4.0232,-3.8943,-3.8781,-3.6129,-3.4332,-3.3828,-3.2113,-3.1113,-3.0898,-3.0898,-3.0762,-3.0508,-3.0508,-3.0391,-3.0137,-2.9512,-2.9316,-2.9473,-2.8848,-2.8828,-2.9238,-2.9434,-2.9648,-2.9902,-3.0351,-3.0508,-3.0547,-3.0801,-3.0762,-3.0469,-2.9805,-2.9434,-2.916,-2.8496,-2.8301,-2.8301,-2.8301,-2.8301,-2.8301,-2.8301,-2.8301,-2.8184,-2.7826,-2.7637,-2.7441,-2.6816,-2.6836,-2.6797,-2.6152,-2.6035,-2.5977,-2.5732,-2.5693,-2.5693,-2.5693,-2.5693,-2.5693,-2.5693,-2.5693,0.0,-2.5693,-2.5693,-2.5693,-2.5693,-2.6332,-2.6615,-2.6256,-2.7857,0.0,-2.8751,-2.973,-3.1503,-3.4061,-3.3885,-3.4431,-3.5906,-3.5906,-3.6081,-3.6405,-3.6405,-3.6405,-3.6405,-3.6405,-3.6405,-3.6405,-3.6405,-3.6405,-3.6405,-3.6405,-3.6405,-3.6405,-3.6405,-3.6405,-3.643,-3.6681,-3.6935,-3.7262,-3.7871,-3.7734,-3.7669,-3.8307,-3.8478,-3.823,-3.7332,-3.7221,-3.7451,-3.8125,-3.8221,-3.8713,-3.9878,-4.0845,-4.1372,-4.1342,-4.2543,-4.2643,-4.1043,-4.0188,-3.9242,-3.8086,-3.5831,-3.4349,-3.397,-3.1971,-3.0898,-3.0898,-3.0898,-3.0898,-3.0898,-3.0898,-3.0898,-3.0859,-3.0019,-2.9863,-3.0137,-2.9355,-2.9258,-2.9687,-3.0059,-3.0234,-3.0351,-3.0742,-3.0898,-3.0898,-3.0898,-3.0644,-3.0234,-2.9805,-2.9414,-2.9043,-2.8613,-2.8437,-2.8398,-2.8398,-2.834,-2.8301,-2.8301,-2.8301,-2.8203,-2.7904,-2.8027,-2.8086,-2.7305,-2.7402,-2.7474,-2.6562,-2.6387,-2.625,-2.5771,-2.5693,-2.5693,-2.5693,-2.5693,-2.5693,-2.5693,0.0,-2.5713,-2.5771,-2.5791,-2.581,-2.5869,-2.5888,-2.5888,-2.5888,-2.7215,-2.8056,-2.8139,-2.9455,-3.1113,-3.2975,-3.3313,-3.4413,-3.6405,-3.6405,-3.6405,-3.6405,-3.6405,-3.6405,-3.6405,-3.6405,-3.6405,-3.6405,-3.6405,-3.6405,-3.6405,-3.6405,-3.6405,-3.6405,-3.6405,-3.6455,-3.6581,-3.701,-3.7287,-3.7563,-3.8379,-3.8418,-3.8885,-4.0533,-3.924,-3.8383,-3.9433,-3.7955,-3.672,-3.6414,-3.6403,-3.7018,-3.869,-3.8295,-3.8975,-4.1743,-4.141,-4.1516,-4.2569,-4.0035,-3.8997,-4.0069,-3.8426,-3.6544,-3.4454,-3.2131,-3.0898,-3.0898,-3.0898,-3.0898,-3.0898,-3.0898,-3.0898,-3.0859,-3.0332,-3.0137,-3.0156,-2.9668,-2.9707,-3.0098,-3.0176,-3.043,-3.0801,-3.0859,-3.0898,-3.0898,-3.0898,-3.084,-3.0703,-3.0254,-3.0059,-2.9922,-2.9512,-2.9121,-2.8828,-2.8828,-2.8574,-2.8301,-2.8301,-2.8301,-2.8281,-2.8203,-2.8242,-2.8164,-2.7676,-2.7669,-2.7474,-2.6562,-2.6387,-2.625,-2.5771,-2.5693,-2.5693,-2.5693,-2.5693,-2.5693,-2.5693,0.0,-2.583,-2.625,-2.6289,-2.6426,-2.6777,-2.6816,-2.6816,-2.6816,-2.7027,-2.7377,-2.7732,-2.8018,-2.8941,-3.0747,-3.2555,-3.4413,-3.6405,-3.6405,-3.6405,-3.6405,-3.6405,-3.6405,-3.6405,-3.6405,-3.6405,-3.6405,-3.6405,-3.6405,-3.6405,-3.6405,-3.6405,-3.6405,-3.6405,-3.6707,-3.7061,-3.7161,-3.7789,-3.8693,-3.7754,-3.7715,-3.7881,-3.893,-3.8442,-3.798,-3.8263,-3.7599,-3.6777,-3.6113,-3.6016,-3.6287,-3.7126,-3.8184,-3.9346,-4.0586,-4.1707,-4.2527,-4.2986,-4.1615,-4.0707,-4.0592,-3.9673,-3.7605,-3.426,-3.2051,-3.0898,-3.0898,-3.0898,-3.0898,-3.0898,-3.0898,-3.0898,-3.0859,-3.041,-3.0332,-3.0547,-3.0098,-3.0156,-3.0566,-3.0566,-3.0703,-3.0898,-3.0898,-3.0898,-3.0898,-3.0898,-3.0898,-3.082,-3.0351,-3.0195,-3.0117,-2.9707,-2.9434,-2.9277,-2.9277,-2.8809,-2.8301,-2.8301,-2.8301,-2.8301,-2.8301,-2.8301,-2.8242,-2.8047,-2.8008,-2.7832,-2.7207,-2.6894,-2.6602,-2.6172,-2.5849,-2.5693,-2.5693,-2.5693,0.0,-2.5693,-2.5937,-2.6172,-2.6367,-2.6582,-2.6797,-2.6992,-2.7012,-2.7012,-2.7012,-2.7226,-2.7461,-2.7708,-2.7943,-2.87,-3.0255,-3.2677,-3.4414,-3.5307,-3.6073,-3.6405,-3.6405,-3.6405,-3.6405,-3.6405,-3.6405,-3.6405,-3.6405,-3.6405,-3.6405,-3.6405,-3.6405,-3.6405,-3.643,-3.6732,-3.696,-3.7262,-3.7864,-3.8466,-3.8969,-3.7285,-3.7187,-3.707,-3.7383,-3.7715,-3.7637,-3.6797,-3.6953,-3.6875,-3.6113,-3.6016,-3.6016,-3.6016,-3.785,-3.9147,-3.9092,-4.1435,-4.2601,-4.2062,-4.2743,-4.2581,-4.1191,-4.0281,-3.8168,-3.4668,-3.2493,-3.1208,-3.0898,-3.0898,-3.0898,-3.0898,-3.0898,-3.0898,-3.0879,-3.0508,-3.0547,-3.0859,-3.0508,-3.0508,-3.0742,-3.084,-3.082,-3.0742,-3.0859,-3.0898,-3.0898,-3.0898,-3.0898,-3.084,-3.0488,-3.0351,-3.0293,-2.998,-2.9805,-2.9726,-2.9726,-2.9101,-2.8418,-2.832,-2.8301,-2.8301,-2.8301,-2.8301,-2.8301,-2.8301,-2.8301,-2.8184,-2.7806,-2.7402,-2.7031,-2.6621,-2.6269,-2.5986,-2.5986,0.0,-2.5849,0.0,-2.6172,-2.6426,-2.6523,-2.6914,-2.7207,-2.7305,-2.7305,-2.7305,-2.7305,-2.7617,-2.7812,-2.7812,-2.8125,-2.8741,-2.9807,-3.2805,-3.4385,-3.4385,-3.5715,-3.6405,-3.6405,-3.6531,-3.6531,-3.6405,-3.6681,-3.6732,-3.6606,-3.6732,-3.6782,-3.6782,-3.6782,-3.6782,-3.6784,-3.7211,-3.7462,-3.7688,-3.8592,-3.8994,-3.912,-3.7715,-3.7851,-3.7851,-3.7871,-3.791,-3.7637,-3.6797,-3.6699,-3.6543,-3.6074,-3.6016,-3.6016,-3.6016,-3.5827,-3.6329,-3.7798,-3.9176,-3.974,-3.9243,-4.2055,-4.3457,-4.2874,-4.0505,-3.8409,-3.6712,-3.4239,-3.2264,-3.0898,-3.0898,-3.0898,-3.0898,-3.0898,-3.0898,-3.0898,-3.0859,-3.0859,-3.0898,-3.0859,-3.0605,-3.0293,-3.0723,-3.0625,-3.0293,-3.0723,-3.0898,-3.0898,-3.0898,-3.0898,-3.0879,-3.0859,-3.084,-3.084,-3.0801,-3.0508,-3.0156,-3.0156,-2.9551,-2.8789,-2.8398,-2.8301,-2.8301,-2.8301,-2.8301,-2.8301,-2.8301,-2.8301,-2.8184,-2.7806,-2.7689,-2.748,-2.7051,-2.6934,-2.6914,-2.6914,0.0,0.0,-2.6348,-2.6367,-2.6523,-2.6914,-2.7363,-2.7773,-2.8164,-2.8203,-2.8203,-2.8203,-2.8223,-2.8242,-2.8242,-2.8281,-2.8354,-2.8441,-3.2303,-3.4385,-3.4385,-3.5715,-3.6405,-3.6405,-3.6885,-3.6908,-3.643,-3.7412,-3.7613,-3.7161,-3.7663,-3.7889,-3.7889,-3.7889,-3.7889,-3.7889,-3.7939,-3.8266,-3.8793,-3.8894,-3.9195,-3.9647,-3.668,-3.6738,-3.6836,-3.7109,-3.7148,-3.7031,-3.6719,-3.668,-3.6523,-3.6074,-3.6016,-3.6016,-3.6016,-3.6851,-3.7538,-3.7752,-3.8991,-3.9501,-3.8947,-3.9808,-4.1153,-4.293,-4.0852,-3.9243,-3.8274,-3.6072,-3.4089,-3.2264,-3.2264,-3.1825,-3.0898,-3.0898,-3.0898,-3.0898,-3.0898,-3.0898,-3.0898,-3.0898,-3.0781,-3.0644,-3.082,-3.0781,-3.0644,-3.082,-3.0898,-3.0898,-3.0898,-3.0898,-3.0898,-3.0898,-3.0898,-3.0898,-3.0898,-3.0762,-3.0566,-3.0293,-2.9785,-2.9238,-2.8789,-2.8496,-2.8301,-2.8301,-2.8301,-2.8301,-2.8301,-2.8301,-2.8242,-2.8086,-2.7851,-2.7669,-2.7441,-2.7207,-2.7012,-2.7012,0.0,-2.6777,-2.6777,-2.7012,-2.7246,-2.7402,-2.7793,-2.8125,-2.8281,-2.8301,-2.8301,-2.8301,-2.8301,-2.8301,-2.8301,-2.8301,-2.8301,-2.8301,-3.144,-3.3105,-3.3105,-3.4818,-3.6038,-3.6885,-3.7437,-3.7588,-3.7387,-3.7814,-3.7889,-3.7713,-3.7914,-3.8015,-3.8015,-3.8015,-3.8015,-3.804,-3.8391,-3.8668,-3.8969,-3.9245,-3.9521,-3.9697,-3.6191,-3.623,-3.6309,-3.6621,-3.668,-3.6621,-3.6484,-3.6465,-3.6348,-3.6055,-3.6016,-3.6016,-3.6016,-3.7059,-3.7652,-3.7278,-3.853,-3.8818,-3.7627,-3.7493,-3.8676,-4.1362,-3.9893,-3.8534,-3.7655,-3.6005,-3.4245,-3.2416,-3.2416,-3.1883,-3.0898,-3.0898,-3.0898,-3.0898,-3.0898,-3.0898,-3.0898,-3.0898,-3.0801,-3.0684,-3.084,-3.0801,-3.0684,-3.084,-3.0898,-3.0898,-3.0898,-3.0898,-3.0898,-3.0898,-3.0898,-3.0898,-3.0898,-3.0898,-3.0801,-3.0332,-3.0,-2.9668,-2.9238,-2.8906,-2.8633,-2.8359,-2.8398,-2.8457,-2.832,-2.8301,-2.8301,-2.8301,-2.8066,-2.7871,-2.7871,-2.7617,-2.7422,-2.7422,-2.7305,-2.7226,-2.7226,-2.748,-2.7728,-2.7728,-2.8047,-2.8301,-2.8301,-2.8301,-2.8301,-2.8301,-2.8708,-2.8953,-2.8953,-2.8953,-2.9013,-2.9153,-3.0934,-3.2441,-3.3439,-3.5027,-3.6309,-3.7186,-3.7939,-3.809,-3.7764,-3.8291,-3.8442,-3.8291,-3.8467,-3.8542,-3.8542,-3.8542,-3.8542,-3.8567,-3.8969,-3.912,-3.917,-3.9546,-3.9697,-3.9697,-3.6582,-3.666,-3.666,-3.666,-3.666,-3.6523,-3.6094,-3.6016,-3.6016,-3.6016,-3.6016,-3.6016,-3.6016,-3.6016,-3.6016,-3.6016,-3.7575,-3.7497,-3.4877,-3.5413,-3.6478,-3.8104,-3.7224,-3.6055,-3.4597,-3.3654,-3.2436,-3.0957,-3.0957,-3.0937,-3.0898,-3.0898,-3.0898,-3.0898,-3.0898,-3.0898,-3.0898,-3.0898,-3.0625,-3.0234,-3.0703,-3.0605,-3.0254,-3.0723,-3.0898,-3.0898,-3.0898,-3.0898,-3.0898,-3.0898,-3.0898,-3.0898,-3.0898,-3.0898,-3.0801,-3.0332,-3.0195,-3.0098,-2.9687,-2.957,-2.9375,-2.8516,-2.8613,-2.8809,-2.8398,-2.8301,-2.8301,-2.8301,-2.8301,-2.8301,-2.8301,-2.8301,-2.8301,-2.8301,-2.7949,-2.7728,-2.7728,-2.7728,-2.7728,-2.7728,-2.8047,-2.8301,-2.8301,-2.8301,-2.8301,-2.8301,-2.9565,-3.0276,-3.0276,-3.0276,-3.0538,-3.1053,-3.1106,-3.2669,-3.5935,-3.6801,-3.7186,-3.7211,-3.8341,-3.8291,-3.7262,-3.8944,-3.9396,-3.8969,-3.9446,-3.9697,-3.9697,-3.9697,-3.9697,-3.9697,-3.9697,-3.9697,-3.9697,-3.9697,-3.9697,-3.9697,-3.6191,-3.6211,-3.6211,-3.6211,-3.6211,-3.6172,-3.6035,-3.6016,-3.6016,-3.6016,-3.6016,-3.6016,-3.6016,-3.6016,-3.6016,-3.6016,-3.6194,-3.5772,-3.4381,-3.4156,-3.432,-3.4798,-3.742,-3.901,-3.9268,-3.8653,-3.6913,-3.3979,-3.3979,-3.2928,-3.0898,-3.0898,-3.0898,-3.0898,-3.0898,-3.0898,-3.0898,-3.0898,-3.082,-3.0703,-3.084,-3.082,-3.0703,-3.084,-3.0898,-3.0898,-3.0898,-3.0898,-3.0898,-3.0898,-3.0898,-3.0898,-3.0898,-3.0664,-3.0449,-3.0625,-3.0254,-2.9785,-2.9961,-3.0,-2.9883,-2.9316,-2.9043,-2.8887,-2.8769,-2.8496,-2.8301,-2.8301,-2.8301,-2.8301,-2.8301,-2.8301,-2.8301,-2.8301,-2.8184,-2.8105,-2.8105,-2.8105,-2.8105,-2.8105,-2.8223,-2.8301,-2.8301,-2.8301,-2.8301,-2.8301,-2.8931,-2.9425,-2.9799,-2.9819,-2.9879,-3.0053,-3.1966,-3.3674,-3.5017,-3.6288,-3.7438,-3.8416,-3.9094,-3.927,-3.8969,-3.9471,-3.9597,-3.9446,-3.9622,-3.9697,-3.9697,-3.9697,-3.9697,-3.9697,-3.9697,-3.9697,-3.9697,-3.9697,-3.9697,-3.9697,-3.6016,-3.6016,-3.6016,-3.6016,-3.6016,-3.6016,-3.6016,-3.6016,-3.6016,-3.6016,-3.6016,-3.6016,-3.6016,-3.6016,-3.6016,-3.6016,-3.5644,-3.5019,-3.4141,-3.3828,-3.3911,-3.432,-3.6627,-3.8126,-3.8521,-3.8687,-3.7442,-3.4687,-3.4743,-3.3521,-3.1133,-3.0976,-3.0898,-3.0898,-3.0898,-3.0898,-3.0898,-3.0898,-3.0898,-3.0898,-3.0898,-3.0898,-3.0898,-3.0898,-3.0898,-3.0898,-3.0898,-3.0898,-3.0898,-3.0898,-3.0898,-3.0898,-3.0898,-3.0703,-3.0527,-3.082,-3.0508,-3.0156,-3.041,-3.0469,-3.041,-3.0156,-2.9766,-2.9375,-2.9219,-2.8848,-2.8594,-2.8769,-2.8535,-2.834,-2.8516,-2.8398,-2.8301,-2.8301,-2.8301,-2.8301,-2.8301,-2.8301,-2.8301,-2.8301,-2.8301,-2.8301,-2.8301,-2.8301,-2.8627,-2.93,-2.9721,-3.0336,-3.1202,-3.0695,-3.1031,-3.2435,-3.3514,-3.4933,-3.6632,-3.7497,-3.8253,-3.8919,-3.9421,-3.9572,-3.9371,-3.9597,-3.9697,-3.9697,-3.9697,-3.9697,-3.9697,-3.9697,-3.9697,-3.9697,-3.9697,-3.9697,-3.9697,-3.9697,-3.9697,-3.9697,-3.6016,-3.6016,-3.6016,-3.6016,-3.6016,-3.6016,-3.6016,-3.6016,-3.6016,-3.6016,-3.6016,-3.6016,-3.6016,-3.6016,-3.6016,-3.6016,-3.5644,-3.5059,-3.4238,-3.4121,-3.4569,-3.5582,-3.5225,-3.4847,-3.4466,-3.5716,-3.5622,-3.4195,-3.4116,-3.3248,-3.1663,-3.1152,-3.0898,-3.0898,-3.0898,-3.0898,-3.0898,-3.0898,-3.0898,-3.0898,-3.0898,-3.0898,-3.0898,-3.0898,-3.0898,-3.0898,-3.0898,-3.0898,-3.0898,-3.0898,-3.0898,-3.0898,-3.0898,-3.0859,-3.084,-3.0879,-3.0859,-3.084,-3.0879,-3.0898,-3.0898,-3.0898,-3.0566,-3.0156,-2.9726,-2.9297,-2.9082,-2.9492,-2.8945,-2.8516,-2.8848,-2.8633,-2.8398,-2.8359,-2.8379,-2.8398,-2.8359,-2.8379,-2.8379,-2.8301,-2.8359,-2.8398,-2.8359,-2.8379,-2.9092,-3.0784,-3.1254,-3.2081,-3.3466,-3.2394,-3.3182,-3.6349,-3.5314,-3.6237,-3.9465,-3.9517,-3.9318,-3.8994,-3.9446,-3.9421,-3.902,-3.9471,-3.9697,-3.9697,-3.9697,-3.9697,-3.9697,-3.9697,-3.9697,-3.9697,-3.9697,-3.9697,-3.9697,-3.9697,-3.9697,-3.9697,-3.6016,-3.6016,-3.6016,-3.6016,-3.6016,-3.6016,-3.6016,-3.6016,-3.6016,-3.6016,-3.6016,-3.6016,-3.6016,-3.6016,-3.6016,-3.6016,-3.5644,-3.5312,-3.5117,-3.4453,-3.4216,-3.4481,-3.4821,-3.4933,-3.4888,-3.7121,-3.8166,-3.7943,-3.6376,-3.484,-3.3364,-3.1698,-3.0898,-3.0898,-3.0898,-3.0898,-3.0898,-3.0898,-3.0898,-3.0898,-3.0898,-3.0898,-3.0898,-3.0898,-3.0898,-3.0898,-3.0898,-3.0898,-3.0898,-3.0898,-3.0898,-3.0898,-3.0898,-3.0644,-3.041,-3.0781,-3.0625,-3.043,-3.0801,-3.0898,-3.0898,-3.0898,-3.082,-3.0625,-3.0156,-2.9726,-2.9453,-2.9551,-2.9434,-2.9219,-2.8965,-2.9121,-2.918,-2.8848,-2.9062,-2.918,-2.8828,-2.9082,-2.9043,-2.8379,-2.8887,-2.916,-2.8828,-2.9082,-2.962,-3.0313,-3.0432,-3.0821,-3.1466,-3.2354,-3.3141,-3.3896,-3.4692,-3.6048,-3.7954,-3.7954,-3.8509,-3.9521,-3.9647,-3.9622,-3.9521,-3.9647,-3.9697,-3.9697,-3.9697,-3.9697,-3.9697,-3.9697,-3.9697,-3.9697,-3.9697,-3.9697,-3.9697,-3.9697,-3.9697,-3.9697,-3.6016,-3.6016,-3.6016,-3.6016,-3.6016,-3.6016,-3.6016,-3.6016,-3.6016,-3.6016,-3.6016,-3.6016,-3.6016,-3.6016,-3.5937,-3.5742,-3.5527,-3.5293,-3.5078,-3.4434,-3.4082,-3.4082,-3.4173,-3.4575,-3.5349,-3.6728,-3.7305,-3.7161,-3.6143,-3.4763,-3.3069,-3.1781,-3.1074,-3.0898,-3.0898,-3.0898,-3.0898,-3.0898,-3.0898,-3.0898,-3.0898,-3.0898,-3.0898,-3.0898,-3.0898,-3.0898,-3.0898,-3.0898,-3.0898,-3.0898,-3.0898,-3.0898,-3.0898,-3.0723,-3.0586,-3.082,-3.0723,-3.0586,-3.082,-3.0898,-3.0898,-3.0898,-3.0898,-3.082,-3.0586,-3.0195,-2.9922,-3.0156,-2.9863,-2.9548,-2.9277,-2.9414,-2.9434,-2.8984,-2.9277,-2.9492,-2.9258,-2.9434,-2.945,-2.8945,-2.9297,-2.9473,-2.9258,-2.9609,-2.9961,-3.0176,-3.041,-3.0952,-3.192,-3.2701,-3.3733,-3.5156,-3.5288,-3.5999,-3.7477,-3.753,-3.7902,-3.8635,-3.9362,-3.9697,-3.9697,-3.9697,-3.9697,-3.9697,-3.9697,-3.9697,-3.9697,-3.9697,-3.9697,-3.9697,-3.9697,-3.9697,-3.9697,-3.9697,-3.9697,-3.9697,-3.6016,-3.6016,-3.6016,-3.6016,-3.6016,-3.6016,-3.6016,-3.6016,-3.6016,-3.6016,-3.6016,-3.6016,-3.6016,-3.6016,-3.5879,-3.5527,-3.5508,-3.5312,-3.4844,-3.4414,-3.418,-3.418,-3.3769,-3.4127,-3.55,-3.55,-3.5538,-3.5562,-3.5297,-3.4324,-3.2553,-3.1838,-3.1289,-3.0898,-3.0898,-3.0898,-3.0898,-3.0898,-3.0898,-3.0898,-3.0898,-3.0898,-3.0898,-3.0898,-3.0898,-3.0898,-3.0898,-3.0898,-3.0898,-3.0898,-3.0898,-3.0898,-3.0898,-3.0898,-3.0898,-3.0898,-3.0898,-3.0898,-3.0898,-3.0898,-3.0898,-3.0898,-3.0898,-3.0898,-3.0898,-3.0586,-3.043,-3.082,-3.0312,-2.9822,-2.9744,-2.9746,-2.9648,-2.9219,-2.9512,-2.9766,-2.9687,-2.9746,-2.9746,-2.9646,-2.9629,-2.9707,-2.9785,-3.0117,-3.0312,-3.0312,-3.0664,-3.1441,-3.2644,-3.2964,-3.4348,-3.7026,-3.5945,-3.6108,-3.7849,-3.7636,-3.7636,-3.7902,-3.9228,-3.9798,-3.9697,-3.9697,-3.9697,-3.9697,-3.9697,-3.9697,-3.9697,-3.9697,-3.9697,-3.9697,-3.9697,-3.9697,-3.9697,-3.9697,-3.9697,-3.9697,-3.6016,-3.6016,-3.6016,-3.6016,-3.6016,-3.6016,-3.6016,-3.6016,-3.6016,-3.6016,-3.6016,-3.6016,-3.6016,-3.6016,-3.5996,-3.5937,-3.5937,-3.5742,-3.5332,-3.4863,-3.4609,-3.4609,-3.4199,-3.4113,-3.4349,-3.4349,-3.5478,-3.7754,-3.6046,-3.4844,-3.4146,-3.2336,-3.1289,-3.0898,-3.0898,-3.0898,-3.0898,-3.0898,-3.0898,-3.0898,-3.0898,-3.0898,-3.0898,-3.0898,-3.0898,-3.0898,-3.0898,-3.0898,-3.0898,-3.0898,-3.0898,-3.0898,-3.0898,-3.0898,-3.0898,-3.0898,-3.0898,-3.0898,-3.0898,-3.0898,-3.0898,-3.0898,-3.0898,-3.0898,-3.0898,-3.084,-3.082,-3.0879,-3.0801,-3.0586,-3.0176,-3.0449,-3.0566,-3.0098,-3.041,-3.0566,-3.0176,-3.0449,-3.043,-2.9668,-2.9883,-3.0273,-3.0664,-3.0762,-3.0801,-3.0801,-3.0859,-3.0995,-3.117,-3.2416,-3.3845,-3.5563,-3.5398,-3.6619,-3.9362,-3.8137,-3.8137,-3.9413,-4.007,-4.0149,-3.9697,-3.9697,-3.9697,-3.9697,-3.9697,-3.9697,-3.9697,-3.9697,-3.9697,-3.9697,-3.9697,-3.9697,-3.9697,-3.9697,-3.9697,-3.9697,-3.6016,-3.6016,-3.6016,-3.6016,-3.6016,-3.6016,-3.6016,-3.6016,-3.6016,-3.6016,-3.6016,-3.6016,-3.6016,-3.6016,-3.6016,-3.6016,-3.5801,-3.5684,-3.5742,-3.5098,-3.4707,-3.4707,-3.4297,-3.3965,-3.3711,-3.3711,-3.4289,-3.552,-3.4411,-3.3498,-3.2811,-3.1939,-3.1289,-3.0898,-3.0898,-3.0898,-3.0898,-3.0898,-3.0898,-3.0898,-3.0898,-3.0898,-3.0898,-3.0898,-3.0898,-3.0898,-3.0898,-3.0898,-3.0898,-3.0898,-3.0898,-3.0898,-3.0898,-3.0898,-3.0898,-3.0898,-3.0898,-3.0898,-3.0898,-3.0898,-3.0898,-3.0898,-3.0898,-3.0898,-3.0898,-3.0898,-3.0898,-3.0898,-3.0898,-3.0742,-3.0293,-3.0586,-3.0742,-3.0273,-3.0586,-3.082,-3.0605,-3.0762,-3.0742,-3.0351,-3.0469,-3.0664,-3.0879,-3.0898,-3.0898,-3.0898,-3.0898,-3.0898,-3.0898,-3.2322,-3.3789,-3.5233,-3.5613,-3.6763,-3.8916,-3.8593,-3.8737,-3.9355,-4.0454,-4.0701,-4.0149,-4.0149,-4.0325,-4.0576,-3.9973,-3.9873,-4.0124,-3.9823,-3.9697,-3.9697,-3.9697,-3.9697,-3.9697,-3.9697,-3.9697,-3.9697]},{"header":{"parameterUnit":"m.s-1","parameterCategory":1,"la1":30.6,"la2":28.766,"lo1":-90.7593,"lo2":-88.6598,"dy":0.0162,"dx":0.0183,"nx":116,"ny":114,"refTime":"2023-05-12T12:00:00:Z","depth":0,"parameterNumber":3,"parameterNumberName":"V-component_of_WINDS"},"data":[0.0,0.0,0.0,0.0,0.0,0.0,0.0,0.0,0.0,0.0,0.0,0.0,0.0,0.0,0.0,0.0,0.0,0.0,0.0,0.0,0.0,0.0,0.0,0.0,0.0,0.0,0.0,0.0,0.0,0.0,0.0,0.0,0.0,0.0,0.0,0.0,0.0,0.0,0.0,0.0,0.0,0.0,0.0,0.0,0.0,0.0,0.0,0.0,0.0,0.0,0.0,0.0,0.0,0.0,0.0,0.0,0.0,0.0,0.0,0.0,0.0,0.0,0.0,0.0,0.0,0.0,0.0,0.0,0.0,0.0,0.0,0.0,0.0,0.0,0.0,0.0,0.0,0.0,0.0,0.0,0.0,0.0,0.0,0.0,0.0,0.0,0.0,0.0,0.0,0.0,0.0,0.0,0.0,0.0,0.0,0.0,0.0,0.0,0.0,0.0,0.0,0.0,0.0,0.0,0.0,0.0,0.0,0.0,0.0,0.0,0.0,0.0,0.0,0.0,0.0,0.0,0.0,0.0,0.0,0.0,0.0,0.0,0.0,0.0,0.0,0.0,0.0,0.0,0.0,0.0,0.0,0.0,0.0,0.0,0.0,0.0,0.0,0.0,0.0,0.0,0.0,0.0,0.0,0.0,0.0,0.0,0.0,0.0,0.0,0.0,0.0,0.0,0.0,0.0,0.0,0.0,0.0,0.0,0.0,0.0,0.0,0.0,0.0,0.0,0.0,0.0,0.0,0.0,0.0,0.0,0.0,0.0,0.0,0.0,0.0,0.0,0.0,0.0,0.0,0.0,0.0,0.0,0.0,0.0,0.0,0.0,0.0,0.0,0.0,0.0,0.0,0.0,0.0,0.0,0.0,0.0,0.0,0.0,0.0,0.0,0.0,0.0,0.0,0.0,0.0,0.0,0.0,0.0,0.0,0.0,0.0,0.0,0.0,0.0,0.0,0.0,0.0,0.0,0.0,0.0,0.0,0.0,0.0,0.0,0.0,0.0,0.0,0.0,0.0,0.0,0.0,0.0,0.0,0.0,0.0,0.0,0.0,0.0,0.0,0.0,0.0,0.0,0.0,0.0,0.0,0.0,0.0,0.0,0.0,0.0,0.0,0.0,0.0,0.0,0.0,0.0,0.0,0.0,0.0,0.0,0.0,0.0,0.0,0.0,0.0,0.0,0.0,0.0,0.0,0.0,0.0,0.0,0.0,0.0,0.0,0.0,0.0,0.0,0.0,0.0,0.0,0.0,0.0,0.0,0.0,0.0,0.0,0.0,0.0,0.0,0.0,0.0,0.0,0.0,0.0,0.0,0.0,0.0,0.0,0.0,0.0,0.0,0.0,0.0,0.0,0.0,0.0,0.0,0.0,0.0,0.0,0.0,0.0,0.0,0.0,0.0,0.0,0.0,0.0,0.0,0.0,0.0,0.0,0.0,0.0,0.0,0.0,0.0,0.0,0.0,0.0,0.0,0.0,0.0,0.0,0.0,0.0,0.0,0.0,0.0,0.0,0.0,0.0,0.0,0.0,0.0,0.0,0.0,0.0,0.0,0.0,0.0,0.0,0.0,0.0,0.0,0.0,0.0,0.0,0.0,0.0,0.0,0.0,0.0,0.0,0.0,0.0,0.0,0.0,0.0,0.0,0.0,0.0,0.0,0.0,0.0,0.0,0.0,0.0,0.0,0.0,0.0,0.0,0.0,0.0,0.0,0.0,0.0,0.0,0.0,0.0,0.0,0.0,0.0,0.0,0.0,0.0,0.0,0.0,0.0,0.0,0.0,0.0,0.0,0.0,0.0,0.0,0.0,0.0,0.0,0.0,0.0,0.0,0.0,0.0,0.0,0.0,0.0,0.0,0.0,0.0,0.0,0.0,0.0,0.0,0.0,0.0,0.0,0.0,0.0,0.0,0.0,0.0,0.0,0.0,0.0,0.0,0.0,0.0,0.0,0.0,0.0,0.0,0.0,0.0,0.0,0.0,0.0,0.0,0.0,0.0,0.0,0.0,0.0,0.0,0.0,0.0,0.0,0.0,0.0,0.0,0.0,0.0,0.0,0.0,0.0,0.0,0.0,0.0,0.0,0.0,0.0,0.0,0.0,0.0,0.0,0.0,0.0,0.0,0.0,0.0,0.0,0.0,0.0,0.0,0.0,0.0,0.0,0.0,0.0,0.0,0.0,0.0,0.0,0.0,0.0,0.0,0.0,0.0,0.0,0.0,0.0,0.0,0.0,0.0,0.0,0.0,0.0,0.0,0.0,0.0,0.0,0.0,0.0,0.0,0.0,0.0,0.0,0.0,0.0,0.0,0.0,0.0,0.0,0.0,0.0,0.0,0.0,0.0,0.0,0.0,0.0,0.0,0.0,0.0,0.0,0.0,0.0,0.0,0.0,0.0,0.0,0.0,0.0,0.0,0.0,0.0,0.0,0.0,0.0,0.0,0.0,0.0,0.0,0.0,0.0,0.0,0.0,0.0,0.0,0.0,0.0,0.0,0.0,0.0,0.0,0.0,0.0,0.0,0.0,0.0,0.0,0.0,0.0,0.0,0.0,0.0,0.0,0.0,0.0,0.0,0.0,0.0,0.0,0.0,0.0,0.0,0.0,0.0,0.0,0.0,0.0,0.0,0.0,0.0,0.0,0.0,0.0,0.0,0.0,0.0,0.0,0.0,0.0,0.0,0.0,0.0,0.0,0.0,0.0,0.0,0.0,0.0,0.0,0.0,0.0,0.0,0.0,0.0,0.0,0.0,0.0,0.0,0.0,0.0,0.0,0.0,0.0,0.0,0.0,0.0,0.0,0.0,0.0,0.0,0.0,0.0,0.0,0.0,0.0,0.0,0.0,0.0,0.0,0.0,0.0,0.0,0.0,0.0,0.0,0.0,0.0,0.0,0.0,0.0,0.0,0.0,0.0,0.0,0.0,0.0,0.0,0.0,0.0,0.0,0.0,0.0,0.0,0.0,0.0,0.0,0.0,0.0,0.0,0.0,0.0,0.0,0.0,0.0,0.0,0.0,0.0,0.0,0.0,0.0,0.0,0.0,0.0,0.0,0.0,0.0,0.0,0.0,0.0,0.0,0.0,0.0,0.0,0.0,0.0,0.0,0.0,0.0,0.0,0.0,0.0,0.0,0.0,0.0,0.0,0.0,0.0,0.0,0.0,0.0,0.0,0.0,0.0,0.0,0.0,0.0,0.0,0.0,0.0,0.0,0.0,0.0,0.0,0.0,0.0,0.0,0.0,0.0,0.0,0.0,0.0,0.0,0.0,0.0,0.0,0.0,0.0,0.0,0.0,0.0,0.0,0.0,0.0,0.0,0.0,0.0,0.0,0.0,0.0,0.0,0.0,0.0,0.0,0.0,0.0,0.0,0.0,0.0,0.0,0.0,0.0,0.0,0.0,0.0,0.0,0.0,0.0,0.0,0.0,0.0,0.0,0.0,0.0,0.0,0.0,0.0,0.0,0.0,0.0,0.0,0.0,0.0,0.0,0.0,0.0,0.0,0.0,0.0,0.0,0.0,0.0,0.0,0.0,0.0,0.0,0.0,0.0,0.0,0.0,0.0,0.0,0.0,0.0,0.0,0.0,0.0,0.0,0.0,0.0,0.0,0.0,0.0,0.0,0.0,0.0,0.0,0.0,0.0,0.0,0.0,0.0,0.0,0.0,0.0,0.0,0.0,0.0,0.0,0.0,0.0,0.0,0.0,0.0,0.0,0.0,0.0,0.0,0.0,0.0,0.0,0.0,0.0,0.0,0.0,0.0,0.0,0.0,0.0,0.0,0.0,0.0,0.0,0.0,0.0,0.0,0.0,0.0,0.0,0.0,0.0,0.0,0.0,0.0,0.0,0.0,0.0,0.0,0.0,0.0,0.0,0.0,0.0,0.0,0.0,0.0,0.0,0.0,0.0,0.0,0.0,0.0,0.0,0.0,0.0,0.0,0.0,0.0,0.0,0.0,0.0,0.0,0.0,0.0,0.0,0.0,0.0,0.0,0.0,0.0,0.0,0.0,0.0,0.0,0.0,0.0,0.0,0.0,0.0,0.0,0.0,0.0,0.0,0.0,0.0,0.0,0.0,0.0,0.0,0.0,0.0,0.0,0.0,0.0,0.0,0.0,0.0,0.0,0.0,0.0,0.0,0.0,0.0,0.0,0.0,0.0,0.0,0.0,0.0,0.0,0.0,0.0,0.0,0.0,0.0,0.0,0.0,0.0,0.0,0.0,0.0,0.0,0.0,0.0,0.0,0.0,0.0,0.0,0.0,0.0,0.0,0.0,0.0,0.0,0.0,0.0,0.0,0.0,0.0,0.0,0.0,0.0,0.0,0.0,0.0,0.0,0.0,0.0,0.0,0.0,0.0,0.0,0.0,0.0,0.0,0.0,0.0,0.0,0.0,0.0,0.0,0.0,0.0,0.0,0.0,0.0,0.0,0.0,0.0,0.0,0.0,0.0,0.0,0.0,0.0,0.0,0.0,0.0,0.0,0.0,0.0,0.0,0.0,0.0,0.0,0.0,0.0,0.0,0.0,0.0,0.0,0.0,0.0,0.0,0.0,0.0,0.0,0.0,0.0,0.0,0.0,0.0,0.0,0.0,0.0,0.0,0.0,0.0,0.0,0.0,0.0,0.0,0.0,0.0,0.0,0.0,0.0,0.0,0.0,0.0,0.0,0.0,0.0,0.0,0.0,0.0,0.0,0.0,0.0,0.0,0.0,0.0,0.0,0.0,0.0,0.0,0.0,0.0,0.0,0.0,0.0,0.0,0.0,0.0,0.0,0.0,0.0,0.0,0.0,0.0,0.0,0.0,0.0,0.0,0.0,0.0,0.0,0.0,0.0,0.0,0.0,0.0,0.0,0.0,0.0,0.0,0.0,0.0,0.0,0.0,0.0,0.0,0.0,0.0,0.0,0.0,0.0,0.0,0.0,0.0,0.0,0.0,0.0,0.0,0.0,0.0,0.0,0.0,0.0,0.0,0.0,0.0,0.0,0.0,0.0,0.0,0.0,0.0,0.0,0.0,0.0,0.0,0.0,0.0,0.0,0.0,0.0,0.0,0.0,0.0,0.0,0.0,0.0,0.0,0.0,0.0,0.0,0.0,0.0,0.0,0.0,0.0,0.0,0.0,0.0,0.0,0.0,0.0,0.0,0.0,0.0,0.0,0.0,0.0,0.0,0.0,0.0,0.0,0.0,0.0,0.0,0.0,0.0,0.0,0.0,0.0,0.0,0.0,0.0,0.0,0.0,0.0,0.0,0.0,0.0,0.0,0.0,0.0,0.0,0.0,0.0,0.0,0.0,0.0,0.0,0.0,0.0,0.0,0.0,0.0,0.0,0.0,0.0,0.0,0.0,0.0,0.0,0.0,0.0,0.0,0.0,0.0,0.0,0.0,0.0,0.0,0.0,0.0,0.0,0.0,0.0,0.0,0.0,0.0,0.0,0.0,0.0,0.0,0.0,0.0,0.0,0.0,0.0,0.0,0.0,0.0,0.0,0.0,0.0,0.0,0.0,0.0,0.0,0.0,0.0,0.0,0.0,0.0,0.0,0.0,0.0,0.0,0.0,0.0,0.0,0.0,0.0,0.0,0.0,0.0,0.0,0.0,0.0,0.0,0.0,0.0,0.0,0.0,0.0,0.0,0.0,0.0,0.0,0.0,0.0,0.0,0.0,0.0,0.0,0.0,0.0,0.0,0.0,0.0,0.0,0.0,0.0,0.0,0.0,0.0,0.0,0.0,0.0,0.0,0.0,0.0,0.0,0.0,0.0,0.0,0.0,0.0,0.0,0.0,0.0,0.0,0.0,0.0,0.0,0.0,0.0,0.0,0.0,0.0,0.0,0.0,0.0,0.0,0.0,0.0,0.0,0.0,0.0,0.0,0.0,0.0,0.0,0.0,0.0,0.0,0.0,0.0,0.0,0.0,0.0,0.0,0.0,0.0,0.0,0.0,0.0,0.0,0.0,0.0,0.0,0.0,0.0,0.0,0.0,0.0,0.0,0.0,0.0,0.0,0.0,0.0,0.0,0.0,0.0,0.0,0.0,0.0,0.0,0.0,0.0,0.0,0.0,0.0,0.0,0.0,0.0,0.0,0.0,0.0,0.0,0.0,2.3498,0.0,0.0,0.0,0.0,0.0,0.0,0.0,0.0,0.0,0.0,0.0,0.0,0.0,0.0,0.0,0.0,0.0,0.0,0.0,0.0,0.0,0.0,0.0,0.0,0.0,0.0,0.0,0.0,0.0,0.0,0.0,0.0,0.0,0.0,0.0,0.0,0.0,0.0,2.6471,2.5915,2.6104,2.7055,2.7641,2.7945,2.8091,0.0,0.0,0.0,0.0,0.0,0.0,0.0,0.0,0.0,0.0,0.0,0.0,0.0,0.0,0.0,0.0,0.0,0.0,0.0,0.0,0.0,0.0,0.0,0.0,0.0,0.0,0.0,0.0,0.0,0.0,0.0,0.0,0.0,0.0,0.0,0.0,0.0,0.0,0.0,0.0,0.0,0.0,0.0,0.0,0.0,0.0,0.0,0.0,0.0,0.0,0.0,0.0,0.0,0.0,0.0,0.0,0.0,0.0,0.0,0.0,0.0,0.0,0.0,0.0,0.0,0.0,0.0,0.0,0.0,0.0,0.0,2.331,0.0,0.0,0.0,0.0,0.0,0.0,0.0,0.0,0.0,0.0,0.0,0.0,0.0,0.0,0.0,0.0,0.0,0.0,0.0,0.0,0.0,0.0,0.0,2.5273,2.5566,2.5694,2.5241,2.4884,0.0,0.0,0.0,0.0,0.0,0.0,2.4019,2.3991,2.4695,2.6105,2.5289,2.5884,2.7815,2.8202,2.846,2.8564,2.8649,0.0,0.0,0.0,0.0,0.0,0.0,0.0,0.0,0.0,0.0,0.0,0.0,0.0,0.0,0.0,0.0,0.0,0.0,0.0,0.0,0.0,0.0,0.0,0.0,0.0,0.0,0.0,0.0,0.0,0.0,0.0,0.0,0.0,0.0,0.0,0.0,0.0,0.0,0.0,0.0,0.0,0.0,0.0,0.0,0.0,0.0,0.0,0.0,0.0,0.0,0.0,0.0,0.0,0.0,0.0,0.0,0.0,0.0,0.0,0.0,0.0,0.0,0.0,2.5153,2.5238,2.5871,2.6849,2.7125,2.6669,2.4755,2.3739,2.3541,2.4146,0.0,0.0,0.0,0.0,0.0,0.0,0.0,0.0,0.0,0.0,0.0,0.0,0.0,0.0,0.0,0.0,0.0,0.0,0.0,2.5003,2.5367,2.5467,2.5782,2.6498,2.5857,2.5216,2.4846,0.0,0.0,0.0,0.0,0.0,2.4396,2.4414,2.4807,2.5689,2.6183,2.7538,2.9727,3.0057,3.0865,3.1816,2.8792,2.881,3.1005,0.0,0.0,0.0,0.0,0.0,0.0,0.0,0.0,0.0,0.0,0.0,0.0,0.0,0.0,0.0,0.0,0.0,0.0,0.0,0.0,0.0,0.0,0.0,0.0,0.0,0.0,0.0,0.0,0.0,0.0,0.0,0.0,0.0,0.0,0.0,0.0,0.0,0.0,0.0,0.0,0.0,2.5436,2.5331,0.0,0.0,0.0,0.0,0.0,0.0,0.0,0.0,0.0,0.0,0.0,0.0,0.0,2.5497,2.7284,2.6891,2.6973,2.7512,2.7508,2.7237,2.6729,2.691,2.7583,2.8589,2.7853,0.0,2.4988,2.4575,0.0,0.0,0.0,0.0,0.0,0.0,0.0,0.0,0.0,0.0,0.0,0.0,0.0,0.0,0.0,0.0,0.0,0.0,0.0,0.0,0.0,2.5773,2.6331,2.6676,2.7697,2.7343,2.5064,2.5407,0.0,0.0,0.0,2.3522,2.3864,2.4271,2.5286,2.6843,2.8856,3.0548,3.1968,3.21,3.2846,3.3873,3.1022,3.0606,3.1935,2.9989,0.0,0.0,0.0,0.0,0.0,0.0,0.0,0.0,0.0,0.0,0.0,0.0,0.0,0.0,0.0,0.0,0.0,0.0,0.0,0.0,0.0,0.0,0.0,0.0,0.0,0.0,0.0,0.0,0.0,0.0,0.0,0.0,0.0,0.0,0.0,0.0,0.0,0.0,0.0,2.7192,2.6498,2.549,2.6585,2.701,0.0,0.0,0.0,0.0,0.0,0.0,0.0,0.0,0.0,2.703,2.7161,2.8052,2.9702,2.886,2.9108,3.05,2.9744,2.9434,2.9506,2.9872,3.0361,3.0968,3.1119,3.0253,2.8646,2.6903,2.5606,2.4755,0.0,0.0,0.0,0.0,2.6492,2.708,0.0,0.0,0.0,0.0,0.0,0.0,0.0,0.0,0.0,0.0,0.0,0.0,2.5586,2.6449,2.73,2.8062,2.9141,2.8767,2.6292,2.6422,2.5616,2.3388,2.3764,2.4041,2.3951,2.5083,2.6843,2.9244,3.1664,3.3423,3.4573,3.4573,3.5172,3.6222,3.4091,3.3212,3.3177,3.0963,2.9917,2.9759,0.0,0.0,0.0,0.0,0.0,0.0,0.0,0.0,0.0,0.0,0.0,0.0,0.0,0.0,0.0,0.0,0.0,0.0,0.0,0.0,0.0,0.0,0.0,0.0,0.0,0.0,0.0,0.0,0.0,0.0,0.0,0.0,0.0,0.0,0.0,0.0,0.0,2.7479,2.6869,2.536,2.6653,2.7029,0.0,0.0,0.0,0.0,0.0,0.0,2.7807,2.8557,2.9235,2.9825,3.0026,3.0831,3.2307,3.1426,3.1838,3.357,3.2214,3.1824,3.2309,3.2616,3.2856,3.3036,3.3544,3.3185,3.2049,2.9415,2.7649,2.6651,2.6846,2.7163,2.75,2.7861,2.8388,2.8986,0.0,0.0,0.0,0.0,0.0,0.0,0.0,0.0,0.0,0.0,0.0,2.5695,2.747,2.7689,2.8906,3.1785,2.9517,2.8304,2.9128,2.5676,2.3989,2.487,2.4618,2.4794,2.5473,2.7656,3.0194,3.3119,3.3964,3.552,3.7686,3.7686,3.8355,3.95,3.7854,3.6439,3.4999,3.1153,3.0468,3.1763,2.9783,0.0,0.0,0.0,0.0,0.0,0.0,0.0,0.0,0.0,0.0,0.0,0.0,0.0,0.0,0.0,0.0,0.0,0.0,0.0,0.0,0.0,0.0,0.0,0.0,0.0,0.0,0.0,0.0,0.0,0.0,0.0,0.0,0.0,0.0,0.0,0.0,0.0,0.0,2.4074,2.5782,0.0,0.0,0.0,0.0,2.8946,3.0798,3.165,3.0987,3.1667,3.2075,3.213,3.282,3.3895,3.5366,3.5391,3.5786,3.6569,3.5166,3.4492,3.4525,3.3759,3.3784,3.4414,3.4444,3.4414,3.4144,3.145,2.9983,2.9352,2.8723,2.9229,3.0248,2.9678,2.9888,3.031,0.0,0.0,0.0,0.0,0.0,0.0,0.0,0.0,2.48,2.4686,2.5934,2.7266,2.8434,3.0277,3.1833,3.2916,3.2476,3.1283,2.9258,2.7793,2.6521,2.5425,2.5723,2.6725,2.8484,3.0209,3.2341,3.4822,3.6535,3.8058,3.9334,3.9334,3.9559,3.9949,3.8911,3.8045,3.7171,3.4076,3.2314,3.1362,2.9669,2.8573,0.0,0.0,0.0,0.0,0.0,0.0,0.0,0.0,0.0,0.0,0.0,0.0,0.0,0.0,0.0,0.0,0.0,0.0,0.0,0.0,0.0,0.0,0.0,0.0,0.0,0.0,0.0,0.0,0.0,0.0,0.0,0.0,0.0,0.0,0.0,0.0,0.0,2.7788,2.9373,0.0,2.8575,2.9215,2.9977,3.0632,3.1186,3.2024,3.3249,3.3999,3.4439,3.4414,3.5158,3.5999,3.6986,3.6566,3.6707,3.7446,3.642,3.5645,3.5213,3.4898,3.4921,3.513,3.513,3.513,3.507,3.4113,3.2826,3.142,3.0733,3.0733,3.1152,3.139,3.1869,3.2467,0.0,0.0,0.0,0.0,0.0,0.0,0.0,0.0,2.4406,2.5151,2.6759,2.85,3.0277,3.2679,3.4349,3.4878,3.4201,3.2733,3.0262,2.8705,2.7266,2.6015,2.6928,2.8518,3.0784,3.251,3.4404,3.6377,3.8396,3.9639,4.0113,4.0113,4.0113,4.0079,3.9605,3.9234,3.8906,3.6907,3.458,3.2056,3.0411,2.9667,2.9239,0.0,0.0,0.0,0.0,0.0,0.0,0.0,0.0,0.0,0.0,0.0,0.0,0.0,0.0,0.0,0.0,0.0,0.0,0.0,0.0,0.0,0.0,0.0,0.0,0.0,0.0,0.0,0.0,0.0,0.0,0.0,0.0,0.0,0.0,0.0,2.8984,3.0097,3.1505,3.1838,3.0521,3.0866,3.1463,3.2133,3.2685,3.3636,3.5136,3.5699,3.5961,3.5935,3.6658,3.7324,3.7813,3.784,3.8096,3.8585,3.7499,3.6753,3.6258,3.5748,3.5519,3.5519,3.5519,3.5519,3.5519,3.5519,3.4711,3.3484,3.3005,3.2856,3.2886,3.3365,3.3784,3.4233,0.0,0.0,0.0,0.0,0.0,0.0,2.3274,2.3444,2.4255,2.642,2.7418,2.9379,3.3051,3.4788,3.6309,3.7821,3.4472,3.2293,3.2293,2.8078,2.5981,2.6759,2.8265,3.0127,3.2395,3.4539,3.6377,3.799,3.9377,4.0113,4.0113,4.0113,4.0113,4.0113,4.0113,4.0113,4.0045,3.9334,3.7206,3.4071,3.2109,3.1481,3.1386,0.0,0.0,0.0,0.0,0.0,0.0,0.0,0.0,0.0,0.0,0.0,0.0,0.0,0.0,0.0,0.0,0.0,0.0,0.0,0.0,0.0,0.0,0.0,0.0,0.0,0.0,0.0,0.0,0.0,0.0,0.0,0.0,0.0,2.9274,3.0148,3.0582,3.0612,3.1809,3.2108,3.0791,3.2407,3.3571,3.3599,3.5496,3.6653,3.6681,3.665,3.66,3.66,3.7352,3.7793,3.7851,3.9295,4.0062,4.0028,3.8557,3.7822,3.7764,3.6258,3.5554,3.5522,3.5522,3.5522,3.5519,3.5519,3.5519,3.5519,3.5519,3.5519,3.5519,3.5519,3.5519,3.5519,0.0,0.0,0.0,0.0,0.0,0.0,2.3376,2.4323,2.5406,2.6556,2.9702,3.2476,3.4032,3.6975,3.8802,3.87,3.4776,3.2307,3.2293,2.8078,2.6691,2.9059,3.0074,3.2158,3.5475,3.6186,3.7472,3.9503,3.991,4.0113,4.0113,4.0113,4.0113,4.0113,4.0113,4.0113,4.0079,3.9876,3.8967,3.741,3.469,3.3196,3.2267,0.0,0.0,0.0,0.0,0.0,0.0,0.0,0.0,0.0,0.0,0.0,0.0,0.0,0.0,0.0,0.0,0.0,0.0,0.0,0.0,0.0,0.0,0.0,0.0,0.0,0.0,0.0,0.0,0.0,0.0,0.0,0.0,3.1351,3.0978,3.1534,3.2317,3.3275,3.4562,3.507,3.4203,3.463,3.5185,3.5703,3.5799,3.6045,3.6592,3.6628,3.66,3.66,3.6813,3.7469,3.858,3.8502,3.8723,3.9236,3.8799,3.8302,3.7793,3.7354,3.6844,3.6321,3.6321,3.6006,3.5519,3.5519,3.5519,3.5519,3.5519,3.5519,3.5519,3.5519,3.5519,3.5519,0.0,0.0,0.0,0.0,0.0,0.0,2.2936,2.368,2.468,2.6048,2.96,3.2544,3.3897,3.6863,3.8183,3.6772,3.3998,3.1765,3.048,2.8281,2.8213,3.0886,3.2002,3.4032,3.7178,3.7879,3.8962,4.0561,4.0561,4.0561,4.0527,4.0248,4.0113,4.0113,4.0392,4.0561,4.0561,4.0891,4.0764,4.0189,3.8125,3.6559,3.513,3.2203,3.1643,3.2143,3.0048,3.0005,3.0728,2.9055,0.0,0.0,0.0,0.0,0.0,0.0,0.0,0.0,0.0,0.0,0.0,0.0,0.0,0.0,0.0,0.0,0.0,0.0,0.0,0.0,0.0,0.0,0.0,0.0,3.2642,3.3485,3.3575,3.3933,3.4472,3.5252,3.6028,3.6237,3.5579,3.5519,3.5683,3.6102,3.5718,3.5836,3.6529,3.6286,3.6286,3.6561,3.66,3.7023,3.793,3.8161,3.8469,3.8908,3.8908,3.8663,3.8246,3.7966,3.7528,3.7084,3.7084,3.6661,3.5943,3.5943,3.5782,0.0,0.0,0.0,0.0,0.0,3.5519,3.5519,0.0,0.0,0.0,0.0,0.0,0.0,2.2349,2.2375,2.3158,2.5203,2.8112,3.0717,3.2679,3.4934,3.5475,3.3457,3.2462,3.0818,2.8229,2.8789,3.0262,3.2564,3.402,3.5791,3.799,3.9445,4.0527,4.1204,4.1271,4.1271,4.1204,4.062,4.0316,4.0282,4.1001,4.1339,4.1373,4.2016,4.2286,4.2219,4.1508,4.0358,3.8734,3.525,3.5253,3.6741,3.3948,3.2884,3.2582,3.0964,0.0,0.0,0.0,0.0,0.0,0.0,0.0,0.0,0.0,0.0,0.0,0.0,0.0,0.0,0.0,0.0,0.0,0.0,0.0,0.0,0.0,0.0,0.0,0.0,3.4152,3.4592,3.6447,3.6776,3.6746,3.6507,3.6626,3.6387,3.5579,3.5579,3.5609,3.5609,3.5609,3.5908,3.6567,0.0,0.0,0.0,0.0,3.6693,3.6873,3.8129,3.8887,3.9148,3.9148,3.9181,3.928,3.8618,3.8248,3.819,3.819,3.7753,3.697,3.6816,3.6289,3.5683,3.6259,3.6101,3.5519,3.5519,3.5519,3.5519,0.0,0.0,0.0,0.0,0.0,0.0,2.2639,2.2931,2.3545,2.4575,2.7351,2.9382,2.9822,3.1853,3.3004,3.2564,3.0736,2.9653,2.9649,3.0345,3.2036,3.4844,3.5859,3.7134,3.8734,4.0223,4.1068,4.1204,4.1813,4.1779,4.1204,4.1644,4.1542,4.1035,4.1745,4.2083,4.2083,4.2219,4.2286,4.2219,4.1508,4.0663,3.9656,3.7753,3.6581,3.57,3.3956,3.4427,3.5578,3.3183,3.3833,3.5307,3.3055,3.1522,0.0,0.0,0.0,0.0,0.0,0.0,0.0,0.0,0.0,0.0,0.0,0.0,0.0,0.0,0.0,0.0,0.0,0.0,0.0,3.427,3.5707,3.6985,3.7883,3.8512,3.8272,3.6686,3.7404,3.7375,3.5669,3.5998,3.6297,3.6297,3.6297,3.6567,3.7195,3.7105,3.7138,3.7368,3.6823,3.7126,3.8437,3.8161,3.8935,4.0759,0.0,0.0,4.1661,4.1493,4.1111,4.0516,4.0516,4.0079,3.927,3.7997,3.7064,3.6322,3.5879,3.5619,3.5519,3.5519,3.5519,3.5519,0.0,0.0,0.0,0.0,0.0,0.0,2.296,2.3145,2.3515,2.4124,2.6475,2.8186,2.8367,3.0074,3.0717,2.9619,2.8502,2.8807,3.1055,3.2239,3.4032,3.6637,3.7483,3.8565,4.0054,4.117,4.1948,4.232,4.2692,4.2658,4.232,4.2286,4.2083,4.1779,4.2523,4.2861,4.2895,4.3267,4.3464,4.3369,4.2625,4.2057,4.155,3.9715,3.8531,3.7719,3.6603,3.6705,3.7022,3.4968,3.4985,3.5621,3.3928,3.2647,3.1719,0.0,0.0,0.0,0.0,0.0,0.0,0.0,0.0,0.0,0.0,0.0,0.0,0.0,0.0,3.3003,0.0,0.0,3.5519,3.7165,3.8272,3.914,3.9798,3.9888,3.929,3.7644,3.8003,3.7883,3.6596,3.6746,3.6956,3.6956,3.6956,3.7225,3.7853,3.7584,3.7579,3.7986,3.7312,3.7543,3.8784,3.8846,3.9653,4.1203,4.1586,4.1948,4.2286,4.2286,4.2099,4.1738,4.1738,4.1314,4.0469,3.8873,3.7964,3.759,3.6781,3.6501,3.6493,3.6132,3.6178,3.6417,0.0,0.0,0.0,0.0,0.0,0.0,0.0,2.3236,2.3316,2.3623,2.5478,2.6827,2.6911,2.8297,2.8552,2.686,2.7232,2.9044,3.2496,3.4121,3.596,3.8227,3.8903,3.9851,4.117,4.1914,4.2658,4.3375,4.3572,4.3544,4.3375,4.2963,4.2753,4.276,4.3369,4.3713,4.3882,4.4384,4.4615,4.4547,4.3741,4.3308,4.2997,4.1035,4.0316,4.0214,3.9309,3.8328,3.729,3.6343,3.5453,3.4675,3.437,3.3761,3.3066,3.2505,3.23,0.0,0.0,0.0,0.0,0.0,0.0,0.0,0.0,0.0,3.1662,3.2422,3.3531,3.4729,3.5857,3.6716,3.7943,4.0068,4.0516,4.0786,4.1294,4.0816,4.0008,3.8901,3.8661,3.8272,3.7494,3.7524,3.7584,3.7584,3.7584,3.7883,3.8571,3.8093,3.7973,3.8392,3.7883,3.7937,3.8645,3.947,4.0388,4.1403,4.2165,4.2591,4.2753,4.2753,4.2753,4.2753,4.2753,4.2244,4.1284,3.9971,3.9123,3.8613,3.795,3.7676,3.7672,3.6953,3.6985,3.7345,0.0,0.0,0.0,0.0,0.0,0.0,0.0,0.0,2.3117,2.2885,2.4227,2.4913,2.3996,2.5236,2.6251,2.6657,2.9161,3.1698,3.4121,3.5712,3.754,3.9774,3.9943,4.0383,4.117,4.1914,4.2658,4.3375,4.4113,4.4079,4.3409,4.4045,4.4344,4.4344,4.4445,4.4823,4.5399,4.4823,4.4615,4.4547,4.3741,4.3031,4.232,4.1407,4.1068,4.0899,3.9478,3.7652,3.6039,3.7222,3.6681,3.5701,3.7009,3.6874,3.6017,3.4605,3.3317,3.228,3.215,3.1934,3.1911,3.285,3.2186,3.2109,0.0,0.0,3.5186,3.6469,3.7297,3.7897,3.8068,3.911,4.0068,4.0337,4.0876,4.1294,4.1422,4.0816,4.0337,4.0187,3.9649,3.8811,3.7524,3.7943,3.8272,3.8272,3.8272,3.8571,3.926,3.923,3.896,3.8422,3.8332,3.8387,3.8611,3.947,4.0647,4.2104,4.2909,4.3639,4.4344,4.4344,4.4344,4.4344,4.4344,4.3513,4.2158,4.195,4.063,3.8677,3.858,3.8424,3.8232,3.7558,3.7345,3.7404,0.0,0.0,0.0,0.0,0.0,0.0,0.0,0.0,0.0,2.3958,2.435,2.4704,2.5001,2.5378,2.5728,2.6048,2.8434,3.1021,3.3694,3.5712,3.7777,4.0011,4.0113,4.0451,4.117,4.1508,4.2016,4.276,4.3538,4.3741,4.3409,4.4215,4.4615,4.4615,4.4615,4.4784,4.5026,4.475,4.4615,4.4547,4.3741,4.3234,4.2794,4.1144,3.9783,3.8565,3.7946,3.6806,0.0,3.5859,3.5487,3.5216,3.6772,3.6434,3.534,3.4675,3.4066,3.3596,3.3618,3.311,3.2673,3.3289,3.3614,3.4152,3.5584,3.6258,3.6808,3.7803,3.8811,3.9679,4.0068,4.0905,4.1654,0.0,4.2342,4.2372,4.2051,4.1055,4.0247,3.9858,3.923,3.8751,3.8601,3.8841,3.899,3.899,3.899,3.911,3.9373,3.9373,3.929,3.899,3.899,3.9446,4.0405,4.0778,4.1531,4.2682,4.3974,4.453,4.449,4.4995,4.4993,4.4615,4.4615,4.4243,4.3595,4.3098,4.1997,4.0577,4.0055,3.9497,3.8901,3.8242,3.8242,3.8512,0.0,0.0,0.0,0.0,0.0,0.0,0.0,0.0,0.0,0.0,2.4635,2.4799,2.5753,2.5769,2.5705,2.5609,2.769,3.0093,3.2645,3.4912,3.7168,3.9402,3.9706,4.0223,4.117,4.1204,4.1576,4.2286,4.2828,4.32,4.3409,4.4012,4.4485,4.4891,4.4716,4.4716,4.4886,4.4682,4.4479,4.4215,4.3639,4.3037,4.226,4.0265,3.8125,3.6186,3.6186,3.4979,3.347,3.3558,3.3322,3.3343,3.525,3.5238,3.4506,3.4506,3.425,3.3941,3.3985,3.382,3.3724,3.4182,3.5306,3.6387,3.6776,3.7584,3.8482,3.932,4.0127,4.0876,4.1572,4.2081,4.256,4.3,4.317,4.314,4.2701,4.1354,4.0217,3.9738,3.8751,3.8302,3.8811,3.9164,3.9373,3.9373,3.9373,3.9499,3.9679,3.9529,3.9463,3.9679,3.9679,4.0215,4.1352,4.1754,4.2271,4.2956,4.4366,4.4882,4.4704,4.535,4.5098,4.419,4.4658,4.4711,4.4543,4.4331,4.376,4.288,4.1776,4.0828,3.9954,3.9037,3.899,3.9313,0.0,0.0,0.0,0.0,0.0,0.0,0.0,0.0,0.0,0.0,0.0,0.0,0.0,2.5671,2.5953,2.5641,2.769,2.9653,3.1157,3.3322,3.5588,3.7889,3.8633,3.9715,4.117,4.1204,4.1576,4.2286,4.232,4.2692,4.3375,4.3409,4.422,4.5635,4.4919,4.4993,4.5635,4.4919,4.4147,4.3409,4.3409,4.2091,4.0028,3.8541,3.6569,3.4573,3.4573,3.1765,2.8365,3.0548,3.0364,2.9687,3.2577,3.3964,3.4506,3.4506,3.3561,3.2529,3.2403,3.3405,3.4775,3.5984,3.7306,3.8631,3.9948,4.0277,4.0666,4.2021,4.1811,4.1602,4.2261,4.2381,4.241,4.241,4.291,4.329,4.326,4.1624,4.0397,4.0367,3.8631,3.7434,0.0,3.8661,3.9373,3.9373,3.9373,3.9709,4.0337,3.9768,3.9709,4.0337,4.0367,4.0367,4.0434,4.1924,4.27,4.2736,4.3617,4.4527,4.5367,4.5398,4.456,4.3136,4.4688,4.5001,4.4533,4.6055,4.6173,4.5235,4.3654,4.2507,4.155,3.9949,3.9409,3.9373,0.0,0.0,0.0,0.0,0.0,0.0,0.0,0.0,0.0,0.0,0.0,0.0,0.0,0.0,0.0,0.0,2.6603,2.8315,3.0345,3.207,3.3816,3.5554,3.684,3.7777,3.8261,3.9242,3.9614,3.9377,4.0865,4.1441,4.1238,4.2219,4.32,4.4153,4.391,4.4248,4.4925,4.4147,4.3673,4.3206,4.1271,4.002,3.9039,3.6062,3.3525,3.1529,0.0,2.9871,2.8619,2.889,2.8601,2.8653,3.1157,3.1765,3.1867,3.3355,3.3395,3.3288,3.4723,3.5757,3.6751,3.8058,3.9409,4.0643,4.1542,4.2043,4.2222,4.1841,4.1175,4.0666,4.0457,4.0397,4.0696,4.1602,4.2252,4.2671,4.2671,4.1743,4.0546,3.923,3.8871,0.0,0.0,0.0,0.0,3.9379,3.9828,4.0367,4.1025,4.0846,4.0816,4.1055,4.1055,4.1265,4.1722,4.2236,4.2478,4.2516,4.3417,4.4348,4.5204,4.5204,4.4649,4.3708,4.4885,4.5268,4.5164,4.6324,4.6301,4.5461,4.4914,4.3488,4.1717,4.1186,4.0314,3.9373,0.0,0.0,0.0,0.0,0.0,0.0,0.0,0.0,0.0,0.0,0.0,0.0,0.0,0.0,0.0,0.0,0.0,2.7165,2.9142,3.0412,3.1785,3.3254,3.4527,3.534,3.5554,3.6502,3.6772,3.6299,3.7719,3.843,3.8497,3.9445,4.0595,4.1847,4.1847,4.2252,4.2929,4.2151,4.1542,4.0865,3.8667,3.7313,3.6265,3.3355,3.119,0.0,2.857,2.8197,2.8096,2.7571,2.7418,2.7739,2.9508,3.0316,3.0991,3.2914,3.3585,3.4206,3.6596,3.7841,3.8796,4.0147,4.1444,4.2491,4.2671,4.2671,4.2252,4.0935,3.9948,3.92,3.8745,3.8512,3.8781,4.0098,4.0703,4.1242,4.1961,4.1063,4.0098,3.9529,3.923,3.8811,0.0,0.0,0.0,3.9379,4.0247,4.0935,4.1392,4.1422,4.1542,4.1752,4.1782,4.1961,4.241,4.262,4.2701,4.274,4.3714,4.4278,4.4466,4.4827,4.4413,4.3501,4.4665,4.504,4.4948,4.6472,4.6762,4.622,4.6021,4.4919,4.3405,4.2216,4.1151,4.0182,0.0,0.0,0.0,0.0,0.0,0.0,0.0,0.0,0.0,0.0,0.0,0.0,0.0,0.0,0.0,0.0,0.0,0.0,2.7553,2.8416,2.9517,3.092,3.1718,3.2496,3.322,3.3288,3.3288,3.3288,3.3355,3.41,3.543,3.5464,3.6671,3.8768,3.8768,3.9174,3.9825,3.9073,3.7956,3.6626,3.5723,3.4134,3.209,3.0548,2.9533,2.8739,2.7232,2.6691,2.6708,2.6725,2.6843,2.7094,2.7949,2.9772,3.1887,3.3308,3.418,3.5264,3.8079,3.9683,4.0905,4.2201,4.3389,4.4137,4.3349,4.2252,4.0935,3.9559,3.8182,3.7255,0.0,0.0,3.6866,3.8182,3.8482,3.923,4.1205,3.9828,3.932,0.0,0.0,0.0,0.0,0.0,0.0,3.9493,0.0,4.1414,4.1474,4.1474,4.1811,4.244,4.244,4.244,4.244,4.303,4.329,4.3329,4.4243,4.4205,4.3329,4.4282,4.3869,4.2509,4.412,4.444,4.4034,4.6505,4.7506,4.7474,4.6848,4.6551,4.6061,4.3005,4.1779,4.148,0.0,0.0,0.0,0.0,0.0,0.0,0.0,0.0,0.0,0.0,0.0,0.0,0.0,0.0,0.0,0.0,0.0,0.0,2.5302,2.6573,2.7435,2.7807,2.9145,3.0194,3.092,3.1495,3.1765,3.1765,3.2848,3.3322,3.3152,3.3694,3.4573,3.5656,3.5656,3.6062,3.6681,3.596,3.5419,3.4912,3.3085,3.1968,3.1258,2.9176,2.8263,2.7959,2.7029,2.6691,2.6759,2.7317,2.8605,2.9929,2.9726,3.1126,3.322,3.5107,3.6456,3.7955,4.0684,4.2339,4.3389,4.3718,4.4077,4.3898,4.2252,4.1235,4.0008,3.7704,3.6148,3.507,0.0,0.0,0.0,3.8093,3.9649,0.0,4.2641,4.2363,0.0,4.1444,0.0,4.1564,4.0277,4.1436,0.0,0.0,4.1205,4.1803,4.2751,4.2851,4.2871,4.309,4.309,4.309,4.309,4.32,4.329,4.329,4.3536,4.3566,4.329,4.3566,4.3476,4.3129,4.4297,4.4719,4.4645,4.6003,4.6558,4.6558,4.6364,4.5562,4.4358,4.3016,4.1786,4.0643,0.0,0.0,0.0,0.0,0.0,0.0,0.0,0.0,0.0,0.0,0.0,0.0,0.0,0.0,0.0,0.0,0.0,0.0,0.0,2.5766,2.6239,2.692,2.7318,2.7841,2.8586,2.8991,2.9228,2.9228,3.004,3.0243,2.9856,3.0615,3.136,3.209,3.2408,3.2983,3.3626,3.2882,3.2374,0.0,0.0,2.9499,2.9093,2.7807,2.7334,2.7249,2.686,2.7537,2.8749,2.9158,3.0521,3.1983,3.1665,3.3022,3.5175,3.759,3.8948,4.0264,4.3045,4.4504,4.5125,4.4825,4.4526,4.3658,4.1115,3.9559,3.7853,3.4921,3.3724,3.3066,3.2706,3.3484,0.0,0.0,0.0,0.0,4.2162,4.2222,4.2192,0.0,4.306,0.0,4.2611,4.3299,4.3569,0.0,4.2821,4.2731,4.291,4.3718,4.3888,4.3319,4.3589,4.3589,4.329,4.329,4.329,4.329,4.329,4.329,4.329,4.329,4.329,4.3329,0.0,4.4159,4.4205,4.519,4.5597,4.5634,4.6032,4.5667,4.4688,4.3635,4.2663,4.1748,0.0,0.0,0.0,0.0,0.0,0.0,0.0,0.0,0.0,0.0,2.6429,0.0,0.0,0.0,0.0,0.0,0.0,0.0,0.0,0.0,2.5822,2.7095,2.6099,2.591,2.6657,2.6488,2.6505,2.6691,2.659,2.6556,2.6556,2.7215,2.7875,2.857,2.933,3.0006,3.0548,2.9939,2.9262,2.8637,2.7925,2.7266,2.6691,0.0,2.6691,2.6691,2.6691,2.8586,3.1079,3.1279,3.2437,3.3846,3.3856,3.5302,3.7545,4.0247,4.1389,4.2355,4.4978,4.6072,4.6262,4.5484,4.4736,4.3299,3.9918,3.7683,3.5409,3.2078,3.1387,3.1386,3.139,3.1989,3.3425,3.6148,0.0,3.7883,4.1175,4.1085,4.1534,4.3898,4.3798,4.4018,4.5065,4.4796,4.4796,4.5244,4.4855,4.4047,4.286,4.4287,4.4646,4.3469,4.4018,4.3988,4.329,4.329,4.329,4.329,4.329,4.329,4.329,4.329,4.329,4.329,4.329,4.329,4.3369,4.4243,4.4586,4.4699,4.5525,4.5818,4.5647,4.419,4.3611,4.3408,0.0,0.0,0.0,0.0,0.0,0.0,0.0,0.0,0.0,0.0,2.8069,2.7813,0.0,0.0,0.0,0.0,0.0,0.0,0.0,0.0,0.0,2.6398,2.5611,2.5659,2.6674,2.5523,2.5489,2.6691,2.6082,2.5778,2.5795,2.5931,2.6082,2.6218,2.6962,2.7368,2.7469,2.7334,2.7199,2.7114,2.6962,2.6793,2.6691,2.6691,0.0,0.0,2.6691,2.8247,3.0499,3.1693,3.4182,3.6756,3.6706,3.8072,4.0134,4.2234,4.3298,4.4148,4.571,4.6659,4.683,4.5603,4.4407,4.2551,3.8631,3.6604,0.0,0.0,3.0661,3.0662,3.0666,3.1689,3.3544,3.6746,3.7704,3.923,4.2482,4.2432,4.2402,0.0,4.4377,4.4825,4.4496,4.5394,0.0,0.0,4.5723,4.5633,4.4825,4.4586,4.4377,4.4137,4.4257,4.3988,4.329,4.329,4.329,4.329,4.329,4.329,4.329,4.329,4.329,4.329,4.329,0.0,4.3329,4.3488,4.3536,4.3606,4.3732,4.378,4.3719,4.293,4.265,4.2522,0.0,0.0,0.0,0.0,0.0,0.0,0.0,2.6297,2.7166,2.7739,2.8888,2.8851,2.688,2.7383,2.7109,0.0,0.0,0.0,0.0,0.0,0.0,0.0,2.6167,2.5995,2.6674,2.6031,2.5997,2.6691,0.0,2.5981,2.5609,2.5981,2.5981,2.5626,2.6353,2.6691,2.6691,2.6691,2.6825,2.7003,2.7003,2.7147,2.7334,2.7334,0.0,0.0,2.7432,2.8918,3.0836,3.1847,3.4843,3.8229,3.8882,4.0492,4.246,4.3908,4.4891,4.5758,4.6569,4.707,4.698,4.5633,4.4077,4.1713,3.7404,0.0,0.0,0.0,2.9515,2.9869,2.9579,3.0853,0.0,3.5011,3.5908,3.7614,4.1294,4.1534,0.0,4.4107,4.5214,4.5843,0.0,4.6441,4.6711,4.6352,4.6322,4.6022,4.5334,4.5005,4.4975,4.5334,4.4676,4.4167,4.3798,4.3469,4.329,4.329,4.329,4.329,4.329,4.329,4.329,4.329,4.329,4.329,4.329,4.329,4.329,4.329,4.329,4.329,4.326,4.3,4.309,4.3329,0.0,0.0,0.0,0.0,0.0,0.0,0.0,2.6826,2.7768,2.8033,2.9329,2.9659,2.8227,2.8473,2.797,0.0,0.0,0.0,0.0,0.0,0.0,0.0,0.0,0.0,2.6807,0.0,0.0,2.6691,2.6522,0.0,0.0,0.0,0.0,0.0,2.6353,2.6691,2.6708,2.6791,2.7003,0.0,0.0,2.7636,0.0,0.0,0.0,0.0,0.0,2.9557,3.1181,3.189,3.4546,3.7791,3.9282,4.1713,4.4184,4.4752,4.5865,4.6982,4.7292,4.7332,4.698,4.5633,4.3599,4.089,3.6676,3.4392,0.0,2.8516,2.8701,2.9274,2.8703,2.9836,3.1451,0.0,3.3933,3.5669,3.9619,4.0427,4.1654,0.0,4.5723,0.0,4.704,4.7219,0.0,4.7309,4.683,4.6232,4.5544,4.5633,4.5903,4.6279,4.5304,4.4676,4.4526,4.4018,4.3708,4.3708,4.3708,4.3708,4.3708,4.3559,4.3499,4.3499,4.3349,4.329,4.329,4.329,4.329,4.329,4.329,4.329,4.329,4.329,4.3618,4.4107,0.0,0.0,0.0,0.0,0.0,0.0,0.0,2.6964,2.7743,2.8732,2.9659,2.9879,2.8987,2.8301,2.7824,0.0,0.0,0.0,0.0,0.0,0.0,0.0,0.0,0.0,0.0,0.0,0.0,2.6691,2.6015,0.0,0.0,0.0,0.0,0.0,0.0,2.6691,2.6725,2.7083,0.0,0.0,0.0,0.0,0.0,0.0,0.0,0.0,0.0,2.9418,3.0886,3.1933,3.2929,3.408,3.6202,4.0503,4.4675,4.4053,0.0,0.0,4.7648,4.749,4.698,4.5633,4.291,3.9824,3.6958,0.0,3.1647,2.8969,2.8943,2.9234,2.869,2.8757,2.9894,3.3006,3.3544,3.4981,3.896,4.0546,4.1833,4.329,0.0,0.0,0.0,4.695,0.0,4.7309,4.7249,4.692,4.6219,4.68,4.689,4.6352,4.616,4.5843,4.5214,4.5155,4.5125,4.5125,4.5125,4.5125,4.5095,4.4496,4.4227,4.4197,4.3559,4.329,0.0,4.329,4.329,4.329,4.329,4.329,4.329,4.329,4.3319,4.3379,0.0,0.0,0.0,0.0,0.0,0.0,2.6334,2.7185,2.7931,2.8865,2.9684,2.9867,2.9097,2.8693,2.8338,2.7824,0.0,0.0,0.0,0.0,0.0,0.0,0.0,0.0,0.0,0.0,2.642,2.6691,2.686,0.0,0.0,0.0,0.0,0.0,0.0,0.0,2.6725,2.7131,0.0,0.0,0.0,0.0,0.0,0.0,0.0,0.0,0.0,0.0,3.0733,3.0889,3.2034,3.3317,3.3295,3.6995,4.1478,0.0,4.3997,4.6091,4.6692,4.7069,4.698,4.5633,4.2821,3.9601,3.6537,0.0,3.1032,2.8478,2.8439,2.8668,2.8097,2.8338,2.9146,3.0851,3.115,3.2527,3.6507,3.7524,0.0,0.0,4.4336,0.0,0.0,0.0,4.7309,4.7309,4.7309,4.7189,4.692,4.716,4.7189,4.692,4.6488,4.6202,4.5903,4.5514,4.5304,4.5304,4.5304,4.5304,4.5274,4.5035,4.4915,4.4855,4.4197,4.3888,0.0,4.3469,4.329,4.329,4.329,4.329,4.329,4.329,4.3559,4.3888,0.0,0.0,0.0,0.0,0.0,2.4614,2.6334,2.7273,2.8081,2.8877,2.9684,2.9867,2.9097,2.8987,2.8767,2.8191,2.8656,0.0,0.0,0.0,0.0,0.0,0.0,0.0,0.0,0.0,2.7029,2.7029,2.7756,2.7909,0.0,0.0,0.0,0.0,0.0,0.0,0.0,0.0,0.0,0.0,0.0,0.0,0.0,0.0,0.0,0.0,0.0,0.0,0.0,0.0,0.0,3.2577,3.1529,3.4032,3.7718,3.9425,4.2129,4.4713,4.5616,4.6248,4.6441,4.5274,4.2252,3.8786,0.0,0.0,3.0284,2.8263,2.8198,2.8319,2.771,2.8004,2.8577,2.9472,2.9894,3.133,3.4711,3.5878,0.0,0.0,0.0,4.4436,0.0,4.695,4.7309,4.7309,4.7309,4.7309,4.7309,4.7309,4.7309,4.7309,4.686,4.6621,4.6621,4.6142,4.5873,4.5873,4.5873,4.5873,4.5873,4.5693,4.5603,4.5544,4.4676,4.4436,0.0,4.3648,4.3409,4.3559,4.3379,4.3409,4.3559,4.3349,4.3708,4.4287,0.0,0.0,0.0,0.0,0.0,0.0,2.6313,2.7273,2.8081,2.8877,2.9684,2.9867,2.9097,2.8987,2.8987,2.8987,2.8987,0.0,0.0,0.0,0.0,0.0,0.0,0.0,0.0,0.0,2.779,2.779,2.8586,2.8976,2.8976,2.8976,2.8976,2.8942,0.0,0.0,0.0,0.0,0.0,0.0,0.0,0.0,0.0,0.0,0.0,0.0,0.0,0.0,0.0,0.0,0.0,0.0,0.0,3.2239,3.3897,3.6174,4.016,4.3949,4.4643,4.5048,4.5155,4.4496,4.0846,3.7064,0.0,3.2341,2.9323,2.8642,2.8487,2.8319,2.771,2.7615,2.8034,2.9382,3.0672,3.2168,3.4234,3.675,0.0,0.0,0.0,4.295,4.4227,4.6142,4.7309,4.7309,4.7309,0.0,4.7309,4.7309,4.7309,4.7309,4.7309,4.7309,4.7309,4.7279,4.7279,4.7279,4.7279,4.7279,4.7249,4.6621,4.6279,4.619,4.4885,4.4676,0.0,4.3828,4.3678,4.4227,4.3559,4.3678,4.4227,4.3529,4.3708,4.4227,0.0,0.0,0.0,0.0,0.0,0.0,0.0,2.6677,2.7457,2.8803,2.9207,2.928,2.9023,2.8761,2.8713,2.8964,2.8987,0.0,0.0,0.0,0.0,0.0,0.0,0.0,0.0,2.808,2.806,2.8619,2.9364,2.9499,2.901,2.901,2.901,2.8994,2.8494,0.0,0.0,0.0,0.0,0.0,0.0,0.0,0.0,0.0,0.0,0.0,0.0,0.0,0.0,0.0,0.0,0.0,0.0,0.0,0.0,3.3512,3.682,4.0462,4.1564,4.1914,4.1803,4.1163,3.8534,3.5764,3.4422,3.1734,2.9372,2.8707,2.8218,2.7835,2.7635,2.7585,2.8184,2.9924,3.0552,3.1689,0.0,0.0,0.0,4.0516,4.3718,4.5903,0.0,0.0,4.7309,4.7309,4.7309,4.7309,4.7309,4.7309,4.7309,4.7309,4.7309,4.7309,4.7309,4.7309,4.7309,4.7309,4.7309,4.7309,4.7309,4.71,4.698,4.692,4.5574,4.5364,4.5843,4.4037,4.3678,4.4287,4.4077,4.4137,4.4347,4.4586,4.4796,4.4945,0.0,0.0,0.0,0.0,0.0,0.0,0.0,2.6403,2.7314,2.8591,2.8773,2.8821,2.8975,2.8627,2.8515,2.8749,2.8905,0.0,0.0,0.0,0.0,0.0,0.0,0.0,2.8591,2.8469,2.861,2.901,3.0006,3.0277,2.9822,2.9822,2.9822,2.9807,2.9024,2.8748,0.0,0.0,0.0,0.0,0.0,0.0,3.0283,0.0,0.0,0.0,0.0,0.0,0.0,0.0,0.0,0.0,0.0,0.0,0.0,0.0,3.4342,3.7018,3.8827,3.9692,3.9922,3.9254,3.7113,0.0,0.0,3.0911,2.9026,2.8338,2.7884,2.7585,2.7585,2.7585,2.8154,2.9864,3.0582,3.1659,0.0,0.0,0.0,4.1482,0.0,0.0,0.0,4.701,4.7309,4.7309,4.7309,4.7309,4.7309,4.7309,4.7309,4.7309,4.7309,4.7309,4.7309,4.7309,4.7309,4.7309,4.7309,4.7309,4.7309,4.7309,4.7309,4.7249,4.6172,4.6082,0.0,4.4796,4.4466,4.5035,4.4796,4.4855,4.5095,4.5244,4.5454,4.5633,0.0,0.0,0.0,0.0,0.0,0.0,0.0,2.6399,2.7378,2.8242,2.8376,2.854,2.8893,2.8577,2.8386,2.8458,0.0,0.0,0.0,0.0,0.0,0.0,0.0,0.0,2.7925,2.8888,2.9265,2.9077,3.0446,3.1157,3.119,3.1157,3.1157,3.1123,2.9758,2.9297,2.9538,2.8493,2.8465,2.9112,2.8686,2.9282,0.0,0.0,0.0,0.0,0.0,0.0,0.0,0.0,0.0,0.0,0.0,0.0,0.0,0.0,0.0,0.0,0.0,3.8051,3.8933,3.8307,3.6229,3.3769,3.1864,2.9956,0.0,2.7794,2.7615,2.7615,2.7735,2.7705,2.8154,2.9592,3.0821,0.0,0.0,3.6477,0.0,0.0,4.3748,0.0,4.5304,4.6531,4.7309,4.7309,4.7309,4.7309,4.7309,4.7309,4.7309,4.7309,4.7309,4.7309,4.7309,4.7309,4.7309,4.7309,4.7309,4.7309,4.7309,4.7309,4.7309,0.0,4.6621,4.6681,4.7189,4.5843,4.5693,4.6262,4.5603,4.5753,4.6219,4.5663,4.5843,4.6249,0.0,0.0,0.0,0.0,0.0,0.0,0.0,0.0,0.0,0.0,2.8232,2.8324,2.8174,2.8079,2.8237,0.0,0.0,0.0,0.0,0.0,0.0,0.0,0.0,0.0,2.8281,2.8236,2.8743,2.9837,3.0209,3.0649,3.119,3.0615,3.0649,3.1176,3.0569,3.0525,3.0818,2.969,2.967,3.0337,2.994,3.0686,0.0,0.0,0.0,0.0,3.3292,3.2905,0.0,0.0,0.0,0.0,0.0,0.0,0.0,0.0,3.1989,3.2702,3.3387,0.0,3.489,3.4781,3.3509,3.2009,0.0,0.0,0.0,0.0,0.0,0.0,0.0,2.8697,2.9116,3.145,0.0,0.0,3.4084,0.0,0.0,4.5005,4.6112,4.6471,4.6112,4.683,4.7309,4.7309,4.7309,4.7309,4.7309,4.7309,4.7309,4.7309,4.7309,4.7309,4.7309,4.7309,4.7309,4.7309,4.7309,4.7309,4.7309,4.7309,4.7309,4.7279,4.6621,4.6681,4.7189,4.5843,4.5693,4.6279,4.6142,4.613,4.6309,4.6711,4.695,4.704,0.0,0.0,0.0,0.0,0.0,0.0,0.0,0.0,0.0,0.0,0.0,2.8324,2.8139,2.7996,0.0,0.0,0.0,0.0,0.0,0.0,0.0,0.0,0.0,2.8345,2.8398,2.8853,2.9429,3.0108,3.0446,3.0818,3.119,3.0784,3.0818,3.1176,3.0813,3.0594,3.0445,2.9808,2.9899,3.0454,3.0048,0.0,0.0,0.0,0.0,0.0,3.2711,3.24,0.0,3.166,3.1389,3.119,0.0,0.0,0.0,0.0,3.1718,3.2319,3.2398,3.2932,3.3508,3.353,3.2587,3.1486,3.108,2.9744,0.0,0.0,0.0,0.0,0.0,0.0,0.0,0.0,3.2587,0.0,0.0,0.0,4.2611,4.5891,4.6651,4.683,0.0,4.71,4.7309,4.7309,4.7309,4.7309,4.7309,4.7309,4.7309,4.7309,4.7309,4.7309,4.7309,4.7309,4.7309,4.7309,4.7309,4.7309,4.7309,4.7309,4.7309,4.7279,4.692,4.698,4.7249,4.6531,4.6441,4.677,4.677,4.677,4.68,4.7189,4.7309,4.7309,0.0,0.0,0.0,0.0,0.0,0.0,0.0,0.0,0.0,0.0,0.0,0.0,0.0,0.0,0.0,0.0,0.0,0.0,0.0,0.0,0.0,0.0,2.9162,2.9127,2.8507,2.9713,3.0274,3.0108,3.0852,3.1258,3.136,3.1461,3.1461,3.1345,3.0875,3.0316,2.9748,2.9678,2.9949,3.0347,2.9931,0.0,0.0,0.0,0.0,0.0,0.0,0.0,0.0,3.1332,3.119,3.119,3.119,0.0,0.0,0.0,0.0,0.0,3.2241,3.2765,3.3339,3.3345,3.2571,3.167,3.1413,2.9896,2.8637,0.0,0.0,0.0,0.0,2.9564,0.0,0.0,0.0,0.0,4.0217,4.1324,4.2851,4.592,4.6369,0.0,4.71,4.7249,4.7309,4.7309,4.7309,4.7309,4.7309,4.7309,4.7309,4.7309,4.7309,4.7309,4.7309,4.7309,4.7309,4.7309,4.7309,4.7309,4.7309,4.7309,4.7309,4.7309,0.0,0.0,4.7309,4.7309,4.7309,4.7309,4.7309,4.7309,4.7309,4.7309,4.7309,4.7309,0.0,0.0,0.0,0.0,0.0,0.0,0.0,0.0,0.0,0.0,0.0,0.0,0.0,0.0,0.0,0.0,0.0,0.0,0.0,0.0,0.0,2.9863,2.9338,2.8999,2.8897,2.9152,2.9539,3.0108,3.0852,3.1515,3.2158,3.278,3.2713,3.209,3.1404,3.107,3.0919,3.0572,3.0855,3.1533,3.1177,0.0,0.0,0.0,0.0,0.0,0.0,0.0,0.0,3.1332,3.119,3.119,3.119,0.0,0.0,0.0,0.0,0.0,3.1725,3.2045,3.2609,3.2722,3.2602,3.2133,3.093,2.9594,2.8757,0.0,0.0,0.0,0.0,3.1511,3.2019,0.0,0.0,3.8242,0.0,0.0,4.3828,4.601,0.0,4.698,4.6531,4.698,4.7309,4.7309,4.7309,4.7309,4.7309,4.7309,4.7309,4.7309,4.7309,4.7309,4.7309,4.7309,4.7309,4.7309,4.7309,4.7309,4.7309,4.7309,4.7309,4.7309,0.0,4.7309,4.7309,4.7309,4.7309,4.7309,4.7309,4.7309,4.7309,4.7309,4.7309,4.7309,0.0,0.0,0.0,0.0,0.0,0.0,0.0,0.0,0.0,0.0,0.0,0.0,0.0,0.0,0.0,0.0,0.0,0.0,0.0,0.0,3.1224,3.1292,3.0973,3.0398,2.96,3.0398,3.0939,3.1292,3.165,3.2171,3.2882,3.2814,3.2536,3.2006,3.1463,3.155,3.2128,3.1264,3.1382,3.2036,0.0,0.0,0.0,0.0,0.0,0.0,0.0,0.0,0.0,0.0,3.119,3.119,3.119,0.0,0.0,0.0,0.0,0.0,3.216,3.2468,3.2903,3.2625,3.254,3.2484,3.2196,3.112,3.0372,3.1031,0.0,0.0,0.0,0.0,3.4651,3.7674,0.0,4.0457,4.2931,4.3589,4.4426,0.0,0.0,4.68,4.686,4.713,4.7309,4.7309,4.7309,4.7309,4.7309,4.7309,4.7309,4.7309,4.7309,4.7309,4.7309,4.7309,4.7309,4.7309,4.7309,4.7309,4.7309,4.7309,4.7309,4.7309,0.0,4.71,4.677,4.677,4.6561,4.6262,4.6621,4.677,4.68,4.7189,4.707,4.683,0.0,0.0,0.0,0.0,0.0,0.0,0.0,0.0,0.0,0.0,0.0,0.0,0.0,0.0,0.0,0.0,0.0,0.0,0.0,3.119,3.1427,3.2022,3.2226,3.1853,3.0866,3.1968,3.2564,3.2564,3.2733,3.3085,3.366,3.2882,3.2324,3.1916,3.14,3.1798,3.2777,3.1842,3.1785,3.2259,0.0,0.0,0.0,0.0,0.0,0.0,0.0,0.0,0.0,0.0,0.0,0.0,0.0,0.0,0.0,3.2361,3.2873,3.3379,3.2681,3.2859,3.3077,3.2405,3.2378,3.2766,3.3754,3.2946,3.2228,3.3245,3.2796,0.0,0.0,3.4831,0.0,3.9948,4.1205,4.2342,4.3798,4.4426,4.5214,4.6369,4.6518,4.6741,4.7249,4.7309,4.7309,4.7309,4.7309,4.7309,4.7309,4.7309,4.7309,4.7309,4.7309,4.7219,4.707,4.7219,4.7309,4.7309,4.7309,4.7309,4.7309,4.7309,4.7309,4.7309,4.713,4.68,4.6279,4.6142,4.5873,4.5603,4.6112,4.6369,4.6591,4.695,4.686,4.6621,0.0,0.0,0.0,0.0,0.0,0.0,0.0,0.0,0.0,0.0,0.0,0.0,0.0,0.0,0.0,0.0,0.0,0.0,0.0,3.119,3.1224,3.1258,3.1921,3.2564,3.3152,3.3288,3.3322,3.3322,3.3998,3.437,3.4404,3.366,3.2936,3.2252,3.1515,3.1636,3.2354,3.228,3.2259,3.2293,3.2226,0.0,0.0,0.0,0.0,0.0,0.0,0.0,0.0,0.0,0.0,0.0,0.0,0.0,3.3186,3.2496,3.2892,3.3425,3.2684,3.2513,3.2406,3.1749,3.2019,3.3006,3.4921,3.4322,3.3903,3.5818,3.516,3.4472,0.0,3.6866,3.8661,4.0157,4.1944,4.3828,4.5801,0.0,4.6441,4.716,4.7249,4.7249,4.7309,4.7309,4.7309,4.7309,4.7309,4.7309,4.7309,4.7309,4.7309,4.7309,4.7309,4.701,4.6411,4.701,4.7309,4.7309,4.7309,4.7309,4.7309,4.7309,4.7309,4.7279,4.6651,4.6339,4.6219,4.5633,4.5723,4.6219,4.6249,4.6681,4.716,4.6548,4.6741,4.7249,0.0,0.0,0.0,0.0,0.0,0.0,0.0,0.0,0.0,0.0,0.0,0.0,0.0,0.0,0.0,0.0,0.0,0.0,0.0,3.1332,3.1393,3.1853,3.2577,3.3119,3.3389,3.3863,3.4066,3.4066,3.437,3.4053,3.3139,3.2869,3.2488,3.2029,3.1448,3.2012,3.3382,3.2618,3.2835,3.3647,3.3152,3.2544,0.0,0.0,0.0,0.0,0.0,0.0,0.0,0.0,3.2429,3.2544,3.2361,3.3139,3.3931,3.3186,3.3297,3.3534,3.3278,3.2853,3.2467,3.2168,3.2647,3.3544,3.513,3.6028,3.6746,3.7494,3.7943,3.8123,0.0,0.0,3.9738,4.1863,4.3539,4.5095,4.6711,4.692,4.704,4.7279,4.7309,4.7309,4.7309,4.7309,4.7309,4.7309,4.7309,4.7309,4.7309,4.7309,4.7309,4.7309,4.7309,4.698,4.6279,4.6561,4.6471,4.6052,4.689,4.7309,4.7309,4.7309,4.7309,4.7279,4.6621,4.6082,4.5633,4.4945,4.4855,4.5155,4.595,4.6429,4.6711,4.686,4.683,4.6741,0.0,0.0,0.0,0.0,0.0,0.0,0.0,0.0,0.0,0.0,0.0,0.0,0.0,0.0,0.0,0.0,0.0,0.0,3.257,3.213,3.2002,3.2293,3.3017,3.3423,3.3423,3.41,3.4506,3.4506,3.4742,3.41,3.2666,3.2903,3.2644,3.2017,3.1924,3.2781,3.4157,3.3352,3.358,3.4438,3.3964,3.3322,0.0,0.0,0.0,0.0,0.0,0.0,0.0,0.0,3.3186,3.3355,3.3072,3.3681,3.4404,3.3897,3.3551,3.3335,3.356,3.2753,3.1988,3.2378,3.3155,3.4322,3.6297,3.7764,3.896,3.9768,4.0038,3.9948,3.9463,0.0,0.0,0.0,4.4317,4.5753,4.713,4.7309,4.7309,4.7309,4.7309,4.7309,4.7309,4.7309,4.7219,4.701,4.7189,4.7219,4.701,4.7189,4.7219,4.701,4.698,4.6561,4.5693,4.5903,4.5663,4.5005,4.6142,4.677,4.701,4.7219,4.7309,4.7249,4.6381,4.5723,4.5214,4.4377,4.4137,4.4436,4.5544,4.6142,4.6381,4.683,4.683,4.6711,0.0,0.0,0.0,0.0,0.0,0.0,0.0,0.0,0.0,0.0,0.0,0.0,0.0,0.0,0.0,0.0,0.0,0.0,3.4168,3.3686,3.3085,3.2327,3.3017,3.3423,3.3423,3.41,3.4506,3.4506,3.525,3.4822,3.3423,3.4134,3.3715,3.2327,3.3085,3.3795,3.4506,3.4506,3.4506,3.4506,3.4506,3.4066,3.3322,0.0,0.0,0.0,0.0,0.0,0.0,0.0,3.4032,3.3558,3.4269,3.4506,3.4506,3.4506,3.3608,3.2752,3.3406,3.2098,3.0851,3.2198,3.3514,3.5402,3.8661,3.9403,4.0151,4.2751,4.1227,3.9439,3.9439,3.9403,0.0,4.2081,4.4018,4.5753,4.71,4.7309,4.7309,4.7309,4.7309,4.7309,4.7309,4.7309,4.701,4.6339,4.692,4.701,4.6309,4.692,4.698,4.6279,4.6279,4.5622,4.4317,4.4975,4.4945,4.4317,4.4975,4.5633,4.6279,4.698,4.7279,4.7219,4.5873,4.5274,4.5185,4.3858,4.3678,4.4377,4.5035,4.5723,4.6279,4.6279,4.6741,4.7309,0.0,0.0,0.0,0.0,0.0,0.0,0.0,0.0,0.0,0.0,0.0,0.0,0.0,0.0,0.0,0.0,0.0,0.0,3.3793,3.3044,3.2767,3.3051,3.3288,3.3423,3.3423,3.41,3.4742,3.5261,3.445,3.41,3.4167,3.3343,3.3004,3.3085,3.3322,3.3795,3.4506,3.4506,3.481,3.5261,3.5261,3.4844,3.4134,0.0,0.0,0.0,0.0,0.0,0.0,0.0,0.0,0.0,3.4573,3.4522,3.4479,3.3925,3.3217,3.2613,3.2833,3.24,3.2138,3.2976,3.4562,3.6626,3.9469,4.0098,4.0846,4.3439,4.2671,4.1542,4.1542,4.1893,0.0,4.3,4.4736,4.6142,4.6561,4.701,4.713,4.6681,4.6621,4.68,4.7249,4.6441,4.6022,4.6249,4.6052,4.5813,4.5603,4.5783,4.5813,4.5603,4.5603,4.5185,4.4317,4.4496,4.4287,4.3589,4.4287,4.4945,4.5603,4.5813,4.5873,4.5843,4.4975,4.4616,4.4586,4.4197,4.4137,4.4436,4.5574,4.6142,4.6339,4.683,4.713,4.7249,0.0,0.0,0.0,0.0,0.0,0.0,0.0,0.0,0.0,0.0,3.2399,3.2913,0.0,0.0,0.0,0.0,0.0,0.0,3.4702,3.4034,3.3694,3.3829,3.3829,3.3829,3.3829,3.4573,3.5126,3.56,3.4687,3.437,3.4472,3.4223,3.4134,3.4281,3.4912,3.5284,3.5385,3.5385,3.5487,3.56,3.56,3.5329,3.4912,0.0,0.0,0.0,0.0,0.0,0.0,0.0,0.0,0.0,3.5081,3.497,3.4858,3.4136,3.3304,3.2604,3.259,3.2353,3.2437,3.3933,3.5579,3.7554,4.0187,0.0,0.0,0.0,4.3658,4.247,4.2701,4.2671,0.0,4.3299,4.4586,4.5603,4.5873,4.6262,4.6352,4.5963,4.5903,4.6082,4.6471,4.5753,4.5364,4.5514,4.5394,4.5185,4.4915,4.5155,4.5185,4.4915,4.4915,4.4586,4.3888,4.3888,4.3678,4.329,4.3708,4.4137,4.4526,4.5065,4.5304,4.5244,4.4586,4.4167,4.3888,4.3888,4.3888,4.3977,4.5095,4.5514,4.5633,4.6561,4.6741,4.6501,0.0,0.0,0.0,0.0,0.0,0.0,0.0,0.0,0.0,0.0,3.2265,3.2986,0.0,0.0,0.0,0.0,0.0,0.0,0.0,3.5761,3.525,3.4607,3.4607,3.4607,3.4607,3.5284,3.5633,3.5701,3.5566,3.525,3.4764,3.6084,3.6366,3.587,3.7256,3.7483,3.6795,3.6863,3.6434,3.5701,3.5769,3.5769,3.5633,3.4945,0.0,0.0,0.0,0.0,0.0,0.0,0.0,0.0,3.56,3.5577,3.5385,3.4712,3.3591,3.2596,3.2586,3.2144,3.2318,3.5011,3.6836,3.8601,4.1085,4.3479,4.5364,4.5891,0.0,4.283,4.329,4.2491,4.2102,4.32,4.3917,4.4586,4.5125,4.5244,4.5274,4.5214,4.5214,4.5214,4.5274,4.5185,4.4885,4.4347,4.4825,4.4855,4.4257,4.4796,4.4855,4.4257,4.4227,4.3928,4.329,4.329,4.329,4.329,4.329,4.329,4.3319,4.4556,4.5125,4.5095,4.4496,4.3858,4.329,4.329,4.329,4.3349,4.4047,4.4317,4.4466,4.5753,4.5843,4.5364,0.0,0.0,0.0,0.0,0.0,0.0,0.0,0.0,0.0,0.0,0.0,0.0,0.0,0.0,0.0,0.0,0.0,0.0,0.0,3.4703,3.4912,3.5329,3.5363,3.5363,3.5363,3.5532,3.5926,3.6535,3.5318,3.525,3.6321,3.5994,3.6411,3.7415,3.7753,3.7483,3.6829,3.7415,3.7212,3.6569,3.7178,3.7077,3.6502,3.6389,3.5994,0.0,0.0,0.0,0.0,0.0,0.0,0.0,3.56,3.5247,3.4688,3.3996,3.3244,3.259,3.2544,3.2796,3.3694,3.6327,3.9523,4.2303,4.3419,4.4107,4.4436,4.4007,4.4347,4.4556,4.4167,4.4287,4.4377,4.4137,4.4646,4.4945,4.4586,4.4975,4.5095,4.4586,4.4526,4.4736,4.5244,4.4377,4.3858,4.4287,4.3917,4.3648,4.3499,4.3648,4.3648,4.3499,4.3499,4.3439,4.329,4.329,4.329,4.329,4.329,4.329,4.329,4.3589,4.3708,4.3708,4.3559,4.3409,4.329,4.329,4.329,4.3349,4.4047,4.4317,4.4407,4.5214,4.5424,4.5244,0.0,0.0,0.0,0.0,0.0,0.0,0.0,0.0,0.0,0.0,0.0,0.0,0.0,0.0,0.0,0.0,0.0,0.0,0.0,0.0,3.5385,3.6129,3.6163,3.6332,3.6681,3.6681,3.6907,3.7313,3.6502,3.6535,3.7313,3.6907,3.7313,3.843,3.8802,3.8531,3.7879,3.8261,3.799,3.7347,3.7753,3.7686,3.7313,3.7313,3.684,3.6163,3.6163,0.0,0.0,0.0,0.0,0.0,0.0,0.0,3.4958,3.4301,3.3624,3.2985,3.2645,3.3004,0.0,3.7135,0.0,4.297,4.3299,4.3389,4.3359,4.329,4.3868,4.4257,4.3858,4.4137,4.4137,4.3479,4.3928,4.4137,4.3479,4.3958,4.4227,4.3858,4.3798,4.3868,4.3938,4.3269,4.288,4.291,4.2581,4.2551,4.2851,4.2581,4.2551,4.2851,4.2551,4.2402,4.2402,4.2402,4.2551,4.288,4.288,4.303,4.329,4.329,4.329,4.329,4.329,4.329,4.329,4.329,4.329,4.3319,4.3678,4.3798,4.3888,4.4586,4.4616,4.4347,0.0,0.0,0.0,0.0,0.0,0.0,0.0,0.0,0.0,0.0,0.0,0.0,0.0,0.0,0.0,0.0,0.0,0.0,0.0,0.0,0.0,3.6761,3.6931,3.728,3.7889,3.7922,3.7956,3.8091,3.7956,3.8091,3.8464,3.8227,3.8497,3.9208,3.9842,3.9706,3.9005,3.914,3.8768,3.8091,3.8227,3.8193,3.8091,3.8091,3.7618,3.6998,3.6998,3.6569,3.6005,3.6005,0.0,0.0,0.0,0.0,3.5655,3.484,3.4194,3.3598,3.2939,3.3389,3.4711,3.7674,4.0254,0.0,4.2201,4.2231,4.2381,4.288,4.2961,4.2991,4.311,4.3021,4.2821,4.2321,4.2731,4.294,4.2321,4.2761,4.308,4.2961,4.2961,4.2791,4.2291,4.2231,4.2021,4.1452,4.1422,4.1662,4.2201,4.1722,4.1662,4.2201,4.1692,4.1422,4.1422,4.1422,4.1692,4.2231,4.2231,4.2521,4.311,4.3021,4.308,4.329,4.329,4.329,4.329,4.329,4.329,4.329,4.329,4.329,4.3349,4.3917,4.3768,4.3379,0.0,0.0,0.0,0.0,0.0,0.0,0.0,0.0,0.0,0.0,3.3733,3.3648,0.0,0.0,0.0,0.0,0.0,0.0,0.0,0.0,0.0,3.6795,3.7415,3.7821,3.7922,3.7922,3.8227,3.8836,3.8227,3.887,4.073,3.9445,3.9266,3.9977,4.0079,3.9706,3.9039,3.9673,3.9537,3.8903,3.9571,3.9436,3.8836,3.8836,3.8396,3.7753,3.7753,3.7686,3.7594,3.7594,3.7594,0.0,0.0,0.0,3.6352,3.5006,3.4544,3.43,3.3584,0.0,3.6447,0.0,3.9529,4.0816,0.0,0.0,4.1572,0.0,4.1654,4.1803,4.241,4.2081,4.1624,4.1572,4.2111,4.2291,4.1632,4.2111,4.2321,4.1713,4.1654,4.1594,4.1542,4.1504,4.1512,4.1384,4.1422,4.1452,4.1542,4.1482,4.1452,4.1542,4.1482,4.1422,4.1422,4.1422,4.1414,4.1504,4.1504,4.1901,4.25,4.1893,4.2252,4.329,4.329,4.329,4.329,4.329,4.329,4.329,4.329,4.329,4.329,4.3379,4.3379,4.329,0.0,0.0,0.0,0.0,0.0,0.0,0.0,0.0,0.0,0.0,0.0,3.3803,0.0,0.0,0.0,0.0,0.0,0.0,0.0,0.0,0.0,3.7381,3.8125,3.87,3.9106,3.9106,3.9276,3.9639,3.9276,3.9851,4.1204,4.0527,4.0392,4.0696,4.0696,4.029,3.9639,3.9977,3.991,3.9639,3.9977,3.9673,3.9039,3.9469,3.8903,3.7956,3.8362,3.8261,3.7922,3.7922,3.7922,3.7855,3.7516,0.0,0.0,0.0,3.5234,3.4431,3.3705,3.4151,3.513,0.0,3.7764,3.8901,3.9559,0.0,3.9828,4.0187,3.9679,3.9709,4.1512,4.1602,4.1265,4.0876,4.1422,4.1632,4.0935,4.1422,4.1752,4.1452,4.1422,4.1235,4.0876,4.0816,4.0666,4.0307,4.0277,4.0427,4.0816,4.0487,4.0457,4.0816,4.0487,4.0277,4.0277,4.0277,4.0457,4.0846,4.1205,4.1572,4.1841,4.1504,4.2102,4.326,4.294,4.3,4.329,4.329,4.329,4.329,4.329,4.329,4.329,4.329,4.329,4.329,0.0,0.0,0.0,0.0,0.0,0.0,0.0,0.0,0.0,0.0,0.0,0.0,0.0,0.0,0.0,0.0,0.0,0.0,0.0,0.0,0.0,3.8159,3.887,3.9537,4.0079,4.0113,4.0113,4.0113,4.0113,4.0587,4.1474,4.1474,4.1576,4.1745,4.1373,4.0798,4.0113,4.0113,4.0113,4.0079,3.991,3.9503,3.9039,3.9377,3.8971,3.8261,3.8802,3.8768,0.0,0.0,0.0,0.0,0.0,3.7652,0.0,0.0,0.0,3.4448,0.0,0.0,3.3728,3.4713,3.5818,3.6896,0.0,0.0,3.8093,0.0,3.8123,3.8003,4.0008,4.0367,4.0217,3.9709,4.0337,4.0606,3.9768,4.0367,4.0756,4.0427,4.0516,4.0427,3.9948,4.0038,3.9948,3.9469,3.9373,3.9619,4.0127,3.9529,3.9379,3.9888,3.9409,3.917,3.917,3.917,3.932,3.9649,4.0307,4.0726,4.0876,4.0876,4.1594,4.2821,4.2491,4.2731,4.329,4.329,4.329,4.329,4.329,4.329,4.329,4.329,4.329,4.329,0.0,0.0,0.0,0.0,0.0,0.0,0.0,0.0,0.0,0.0,0.0,0.0,3.4818,3.4364,3.4189,3.449,3.4493,0.0,0.0,0.0,0.0,3.8903,3.9673,0.0,4.0113,4.0113,4.0113,4.0113,4.0113,4.0857,4.2219,4.2219,4.2625,4.3206,4.1847,4.0798,4.0113,4.0113,4.0113,4.0045,3.9334,3.9039,3.8937,3.8261,3.8396,3.8937,3.8971,0.0,0.0,0.0,0.0,0.0,0.0,3.843,3.7719,0.0,0.0,0.0,0.0,3.3531,0.0,3.3577,3.4113,0.0,0.0,0.0,0.0,0.0,3.7464,3.7464,3.7584,3.7614,3.7614,3.7554,3.8661,3.908,3.7764,3.8691,3.905,3.7764,3.8153,3.8542,3.8512,3.908,3.9469,3.9373,3.9373,3.9439,3.9433,3.8811,3.8452,3.8482,3.8452,3.8452,3.8452,3.8452,3.8153,3.7584,3.8242,3.8901,3.9529,3.9529,4.0247,4.1504,4.2141,4.2731,4.329,4.329,4.329,4.329,4.329,4.329,4.329,4.329,4.329,4.329,0.0,0.0,0.0,0.0,0.0,0.0,0.0,0.0,0.0,0.0,0.0,0.0,0.0,3.5604,3.5826,3.6615,3.6671,0.0,0.0,0.0,0.0,3.8971,3.9706,4.0113,4.0113,4.0113,4.0113,4.0113,4.0113,4.062,4.1576,4.1576,4.1745,4.1982,4.1914,4.1508,4.0764,4.0316,4.0113,4.0079,3.9808,3.9436,3.9005,3.9208,3.9174,0.0,0.0,0.0,0.0,0.0,0.0,0.0,3.9623,3.9174,3.8362,3.7168,3.6415,3.5745,0.0,0.0,0.0,3.35,3.3365,3.3455,3.4352,3.4562,3.4741,3.54,3.5519,3.5669,3.6118,3.6866,3.7404,3.7404,3.7823,3.7973,3.7494,3.7823,3.7943,3.7464,3.7973,3.8392,3.8392,3.902,3.9373,3.9373,3.9373,3.923,3.8781,3.8512,3.8182,3.7764,3.8182,3.8392,3.8392,3.7973,3.7644,3.7404,3.7644,3.8123,3.8751,3.8751,3.9499,4.0756,4.0995,4.1713,4.2731,4.311,4.309,4.2761,4.314,4.306,4.2761,4.314,4.329,4.329,0.0,0.0,0.0,0.0,0.0,0.0,0.0,0.0,3.5118,3.5118,0.0,0.0,0.0,0.0,3.7137,3.7845,3.7922,3.8024,3.8261,3.8734,3.9106,3.9343,3.9842,4.0113,4.0113,4.0113,4.0113,4.0113,4.0113,4.0485,4.1204,4.1204,4.1339,4.1576,4.1813,4.1508,4.0798,4.0316,4.0248,4.0392,3.9656,3.9185,3.8992,3.9252,0.0,0.0,0.0,0.0,0.0,0.0,0.0,0.0,3.9532,3.9371,3.87,3.7235,3.6817,0.0,3.4751,0.0,0.0,0.0,0.0,3.2466,3.3638,0.0,3.3335,3.4054,3.4354,3.4653,3.507,0.0,0.0,0.0,0.0,0.0,0.0,0.0,0.0,0.0,0.0,3.7734,3.7734,3.8362,3.8751,3.8751,3.8751,0.0,3.8093,3.7853,3.7554,3.7105,3.7524,3.7734,3.7734,3.7315,3.6985,3.6776,3.7195,3.7644,3.8063,3.8542,3.923,4.0098,4.0307,4.1025,4.2111,4.2491,4.2432,4.2141,4.2761,4.2731,4.247,4.309,4.329,4.329,0.0,0.0,0.0,0.0,0.0,0.0,0.0,0.0,3.5929,3.5964,0.0,0.0,0.0,0.0,0.0,3.7956,3.7956,3.8261,3.8971,3.9039,3.9368,4.0079,0.0,0.0,4.0113,4.0113,4.0113,4.0113,4.0113,4.0493,4.117,4.1204,4.1576,4.2185,4.1474,4.0764,4.0113,4.0113,4.0527,4.0965,3.8752,3.8262,3.8821,0.0,0.0,0.0,3.8346,3.8386,0.0,3.7793,0.0,0.0,0.0,3.8954,3.8734,3.7303,3.6897,0.0,0.0,0.0,0.0,0.0,0.0,0.0,3.4191,0.0,3.2677,3.3335,0.0,0.0,0.0,0.0,0.0,0.0,0.0,0.0,0.0,0.0,0.0,0.0,0.0,0.0,0.0,3.7045,3.7404,3.7404,3.7404,3.7404,3.7375,3.6806,3.6477,3.6477,3.6477,3.6477,3.6477,3.6477,3.6148,3.5519,3.6776,3.7375,3.7464,3.8781,3.9343,3.9469,4.0098,4.0726,4.1324,4.1354,4.1422,4.1452,4.2111,4.2381,4.244,4.306,4.326,4.329,0.0,0.0,0.0,0.0,0.0,3.5891,3.6461,3.6563,3.6735,0.0,0.0,0.0,3.8533,3.9103,3.9503,3.9503,3.9503,3.9605,3.9774,3.9808,3.991,4.0079,4.0113,4.0113,4.0113,4.0113,4.0113,4.0113,4.0629,4.073,4.0417,4.0933,4.1035,4.0688,4.0519,4.0282,4.0113,4.0113,4.015,4.0183,3.9567,3.9112,0.0,0.0,0.0,0.0,0.0,3.7587,3.7024,0.0,3.7557,3.7438,0.0,0.0,3.9605,3.8667,3.8792,0.0,3.7175,0.0,0.0,0.0,0.0,0.0,0.0,0.0,0.0,0.0,0.0,0.0,0.0,0.0,0.0,0.0,0.0,0.0,0.0,0.0,0.0,0.0,0.0,0.0,0.0,3.7045,3.7404,0.0,3.7404,3.7225,3.6776,3.6118,3.5998,3.6477,3.6028,3.5998,3.6477,3.6028,3.5699,3.5519,3.5878,3.6507,3.7434,3.7793,3.8482,3.9403,3.9619,3.9798,4.0038,4.0995,4.1085,4.0726,4.1384,4.1692,4.1782,4.244,4.294,4.329,0.0,0.0,0.0,0.0,0.0,3.6366,3.7144,3.7246,3.7415,0.0,0.0,0.0,3.9377,3.9842,4.0113,4.0113,4.0113,4.0113,4.0113,4.0113,4.0113,4.0113,4.0113,4.0248,4.0527,4.0561,4.0561,4.0561,4.1305,4.1271,4.0561,4.1001,4.0967,4.0553,4.0248,4.0113,4.0113,4.0451,4.0454,4.025,3.903,0.0,0.0,3.8974,3.843,0.0,0.0,0.0,3.66,3.6783,3.6722,0.0,0.0,0.0,0.0,0.0,0.0,0.0,0.0,0.0,0.0,0.0,0.0,0.0,3.4419,3.3218,3.1959,0.0,0.0,0.0,0.0,0.0,0.0,0.0,0.0,0.0,0.0,0.0,0.0,0.0,0.0,0.0,0.0,3.6417,3.6626,3.6626,3.6626,3.6447,3.6088,3.5699,3.5669,3.6058,3.5699,3.5699,3.6058,3.5699,3.5519,3.5519,3.5789,3.6297,3.7045,3.7584,3.8242,3.902,3.929,3.9373,3.9433,4.0247,4.0337,4.0068,4.0726,4.0965,4.1085,4.2051,4.265,4.297,0.0,0.0,3.5971,3.6772,3.6931,3.7168,3.7922,3.8024,3.8058,0.0,3.87,3.9368,4.0045,4.0113,4.0113,4.0113,4.018,4.018,4.0113,4.018,4.0214,4.0214,4.0214,4.0587,4.1305,4.1339,4.1339,4.1339,4.2049,4.2016,4.1204,4.1271,4.1238,4.1035,4.0392,4.0113,4.0146,4.0788,4.0948,4.0536,3.8017,3.8026,0.0,0.0,3.8221,3.774,3.8405,3.7798,3.6631,3.5878,3.607,0.0,0.0,0.0,0.0,0.0,3.9057,0.0,0.0,0.0,0.0,0.0,0.0,0.0,3.5518,3.403,3.2288,0.0,0.0,0.0,0.0,0.0,0.0,0.0,0.0,0.0,0.0,0.0,0.0,0.0,0.0,0.0,3.5519,3.5519,3.5519,3.5519,3.5519,3.5519,3.5519,3.5519,3.5519,3.5519,3.5519,3.5519,3.5519,3.5519,3.5519,3.5519,3.6088,3.6417,3.6537,3.7734,3.8332,3.8422,3.911,3.9373,3.9373,3.9373,3.9373,3.9433,4.0068,4.0337,4.0546,4.1752,4.2261,4.25,0.0,3.6592,3.6806,3.755,3.7686,3.7922,3.8667,3.8768,3.9005,3.9605,3.9808,3.9943,4.0079,4.0113,4.0113,4.0113,4.0629,4.073,4.0146,4.0663,4.1001,4.1001,4.1001,4.1339,4.2049,4.2083,4.2083,4.2083,4.2828,4.2523,4.1204,4.1813,4.1441,4.0316,4.018,4.0113,4.0096,4.0254,3.9898,3.9218,3.9237,0.0,3.7825,3.7188,3.6905,3.6844,3.6999,3.727,3.744,3.6661,3.6477,3.6752,0.0,0.0,0.0,0.0,0.0,0.0,0.0,0.0,0.0,0.0,0.0,0.0,3.4856,3.3658,3.2288,0.0,0.0,0.0,0.0,0.0,0.0,0.0,0.0,0.0,0.0,0.0,0.0,0.0,0.0,0.0,3.5519,3.5519,3.5519,3.5519,3.5519,3.5519,3.5519,3.5519,3.5519,3.5519,3.5519,3.5519,3.5519,3.5519,3.5519,3.5519,3.5639,3.5968,3.6507,3.7255,3.7883,3.8422,3.911,3.9373,3.9373,3.9373,3.9373,3.9403,3.9523,3.9918,4.0427,4.0696,4.1444,4.241,3.7178,3.7347,3.7584,3.8328,3.8464,3.87,3.9436,3.9571,3.9783,4.0527,4.0993,4.106,4.0696,4.0629,4.0519,4.0146,4.0426,4.0629,4.0629,4.1001,4.1373,4.1745,4.1745,4.2083,4.2828,4.2861,4.2861,4.2861,4.3606,4.3234,4.1745,4.2117,4.1711,4.0629,4.0629,4.0389,4.0081,4.127,4.0765,3.9188,3.9283,0.0,3.8019,3.8143,3.7966,3.7677,3.7738,3.7517,3.7203,3.7203,3.7424,0.0,0.0,3.8938,3.9163,0.0,4.0094,3.9394,0.0,0.0,0.0,3.7994,0.0,0.0,0.0,3.4303,3.3305,3.2647,3.2228,3.2198,0.0,0.0,0.0,0.0,0.0,0.0,0.0,0.0,0.0,0.0,0.0,0.0,3.5519,3.5519,3.5519,3.5519,3.5519,3.5519,3.5519,3.5519,3.5519,3.5519,3.5519,3.5519,3.5519,3.5519,3.5519,3.5519,3.5519,3.5669,3.6028,3.6985,3.7584,3.7943,3.8601,3.911,3.9343,3.905,3.911,3.9373,3.9373,3.9619,3.9948,4.0277,4.0816,4.1482,3.8159,3.8125,3.8328,3.9073,3.9208,3.9411,4.0011,4.0113,4.0417,4.1305,4.1914,4.2098,4.1634,4.1471,4.1287,4.0927,4.0552,4.073,4.1779,4.1576,4.1677,4.2252,4.2422,4.2794,4.3375,4.3544,4.3639,4.3639,4.4282,4.3904,4.2489,4.2489,4.2117,4.1407,4.1271,4.0782,4.0264,4.2299,4.1704,3.9415,0.0,3.9018,3.86,3.9188,3.9276,3.907,3.9421,3.8654,3.7613,3.8235,3.8766,3.9245,4.0057,4.0198,0.0,0.0,0.0,0.0,0.0,0.0,0.0,0.0,0.0,3.7427,0.0,0.0,0.0,3.3879,0.0,0.0,0.0,0.0,0.0,0.0,0.0,0.0,0.0,0.0,0.0,0.0,0.0,0.0,3.531,3.5429,3.5519,3.5519,3.5519,3.5519,3.5519,3.5519,3.5519,3.5519,3.5519,3.5519,3.5519,3.5519,3.5519,3.5519,3.5519,3.5519,3.5549,3.6716,3.7225,3.7255,3.7913,3.8512,3.899,3.8422,3.8601,3.923,3.9379,3.9373,3.9499,4.0008,4.0277,4.0487,3.9005,3.887,3.9106,3.9842,3.9977,4.0011,4.0079,4.0113,4.062,4.1982,4.2252,4.2454,4.2848,4.2456,4.2595,4.374,4.2122,4.1982,4.4107,4.2929,4.2185,4.2286,4.2929,4.3308,4.3375,4.4079,4.4479,4.4479,4.4581,4.4147,4.3274,4.3274,4.2895,4.2151,4.1508,4.1084,4.0922,4.1963,4.1012,0.0,4.0831,4.0368,0.0,3.7888,3.8551,3.9985,4.1405,4.1372,4.068,0.0,4.0395,4.0013,0.0,4.0576,4.0151,0.0,0.0,0.0,0.0,0.0,0.0,0.0,3.7263,0.0,0.0,0.0,3.6175,3.4858,0.0,0.0,0.0,0.0,0.0,0.0,0.0,0.0,0.0,0.0,0.0,0.0,0.0,0.0,3.4683,3.516,3.5519,3.5519,3.5519,3.5519,3.5519,3.5519,3.5519,3.5519,3.5519,3.5519,3.5519,3.5519,3.5519,3.5519,3.5519,3.5519,3.5519,3.6267,3.6596,3.6626,3.7255,3.7554,3.7644,3.7554,3.7913,3.8571,3.917,3.9373,3.9403,3.9499,3.9888,4.0397,3.9706,3.9639,3.974,4.0045,4.0113,4.0113,4.0113,4.1602,4.2922,4.3565,4.4756,4.5457,4.5269,4.5029,0.0,0.0,0.0,4.3098,0.0,0.0,4.2692,4.3599,4.391,4.4079,4.4079,4.4445,4.4615,4.4615,4.4615,4.4181,4.3375,4.3375,4.3031,4.2286,4.1982,4.13,4.0442,0.0,4.1012,0.0,0.0,0.0,0.0,3.9933,4.0579,4.1321,4.1564,4.146,4.1291,0.0,4.1894,0.0,0.0,0.0,0.0,0.0,0.0,0.0,0.0,0.0,0.0,0.0,0.0,0.0,3.7033,0.0,3.7077,0.0,0.0,0.0,0.0,0.0,0.0,0.0,3.3574,0.0,0.0,0.0,0.0,0.0,0.0,0.0,3.507,3.534,3.5519,3.5519,3.5519,3.5519,3.5519,3.5519,3.5519,3.5519,3.5519,3.5519,3.5519,3.5519,3.5519,3.5519,3.5519,3.5519,3.5519,3.6178,3.6477,3.6507,3.6776,3.7075,3.7404,3.7404,3.7584,3.7943,3.899,3.9373,3.9373,3.9373,3.9589,3.9828,4.0113,0.0,0.0,4.0113,4.0113,4.018,4.0383,4.2085,4.3631,4.4409,4.6132,4.7282,4.7254,4.7527,0.0,0.0,4.5896,4.5094,0.0,0.0,4.3572,0.0,0.0,0.0,0.0,4.4378,4.4615,4.4615,4.4615,4.4282,4.3741,4.3741,4.3436,4.2895,4.2692,4.1938,4.0908,0.0,4.1247,3.9809,4.0447,4.0759,4.0908,4.1451,4.1883,4.2163,4.1877,4.1943,4.2199,4.2732,4.3267,0.0,4.3741,0.0,0.0,0.0,0.0,0.0,4.1711,0.0,0.0,0.0,0.0,0.0,0.0,0.0,0.0,0.0,0.0,0.0,0.0,0.0,0.0,0.0,0.0,3.3754,0.0,0.0,0.0,0.0,0.0,0.0,0.0,0.0,0.0,3.525,0.0,3.5519,3.5519,3.5519,3.5519,3.5519,3.5519,3.5519,3.5519,3.5519,3.5519,3.5519,3.5519,3.5519,3.5519,3.5998,3.6207,3.6207,3.6207,3.6477,3.6896,3.7075,3.7255,3.7524,3.8691,3.926,3.9373,3.9373,3.9373,3.9373,4.0113,4.0113,0.0,4.0113,4.0113,4.035,4.1068,4.0648,4.1205,4.3951,4.5172,0.0,0.0,0.0,0.0,0.0,0.0,4.8545,4.7838,0.0,4.506,0.0,0.0,4.4621,0.0,0.0,4.4615,4.4615,4.4615,4.4581,4.4581,4.4581,4.4547,4.4513,4.3707,4.3294,4.3161,4.2469,4.1593,4.0656,4.069,4.1196,4.1852,0.0,4.1264,4.2109,4.2951,0.0,0.0,4.4547,4.4547,0.0,0.0,0.0,0.0,0.0,0.0,0.0,0.0,0.0,0.0,4.0442,0.0,0.0,0.0,0.0,3.9825,0.0,0.0,0.0,0.0,0.0,0.0,3.4623,0.0,0.0,0.0,0.0,0.0,0.0,0.0,0.0,0.0,0.0,0.0,0.0,3.513,3.5519,3.5519,3.5519,3.5519,3.5519,3.5519,3.5519,3.5519,3.5519,3.5519,3.5519,3.5519,3.5519,3.5519,3.5519,3.5549,3.5549,3.5549,3.5549,3.5609,3.6237,3.6866,3.7494,3.8153,3.8841,3.9373,3.9373,3.9373,3.9373,0.0,0.0,0.0,0.0,4.0113,4.0448,4.1554,4.2841,0.0,0.0,4.9069,0.0,0.0,5.3563,5.4184,0.0,0.0,5.1657,5.0879,4.8748,0.0,0.0,0.0,4.5602,0.0,0.0,0.0,4.4615,4.4615,4.4852,4.5331,4.4852,4.4857,4.5263,4.3978,4.3149,0.0,0.0,0.0,0.0,0.0,4.1054,4.1857,0.0,4.2077,4.2986,4.3827,4.3977,0.0,4.4412,4.4615,4.4615,4.4615,4.4615,4.4547,4.4248,4.4181,0.0,0.0,0.0,4.1468,4.1537,0.0,0.0,0.0,0.0,0.0,0.0,0.0,0.0,0.0,0.0,3.5429,3.519,3.4771,0.0,0.0,0.0,0.0,0.0,0.0,0.0,0.0,0.0,0.0,0.0,3.537,0.0,3.5519,3.5519,3.5519,3.5519,3.5519,3.5519,3.5519,3.5519,3.5519,3.5519,3.5519,3.5519,3.5519,3.5519,3.5729,3.6118,3.5699,3.5998,3.6776,3.7015,3.7225,3.7524,3.8631,3.8931,3.8781,3.926,3.9373,3.9433,4.117,0.0,0.0,0.0,0.0,0.0,0.0,0.0,0.0,0.0,5.1318,0.0,5.5254,0.0,5.7091,0.0,5.6211,5.4735,5.2097,5.0913,0.0,4.6515,4.7158,0.0,0.0,0.0,0.0,0.0,0.0,4.5466,4.5703,4.5196,4.5094,4.5263,4.4282,4.3558,4.3036,4.181,4.1245,0.0,0.0,4.0836,0.0,0.0,4.307,4.4042,0.0,4.3876,4.4193,4.4513,4.4615,4.4615,4.4615,4.4615,4.4615,4.4615,4.4615,4.4513,4.3978,4.3098,0.0,4.2616,4.191,0.0,4.0923,0.0,0.0,0.0,0.0,0.0,0.0,0.0,0.0,3.5522,3.5356,0.0,0.0,3.4831,0.0,0.0,0.0,0.0,0.0,0.0,0.0,3.513,3.513,3.525,0.0,3.5519,3.5519,3.5519,3.5519,3.5519,3.5519,3.5519,3.5519,3.5519,3.5519,3.5519,3.5519,3.5519,3.5878,3.6447,3.5789,3.6237,3.7404,3.7404,3.7554,3.7883,3.899,3.929,3.914,3.9349,3.9373,3.9529,4.1407,4.188,0.0,0.0,4.0516,0.0,0.0,0.0,4.7265,0.0,5.2009,5.4769,5.5937,5.8113,5.9151,5.8388,5.9449,5.7707,5.1996,5.3585,0.0,0.0,4.8071,4.8105,4.5805,0.0,0.0,0.0,0.0,4.6413,4.5805,4.5737,4.5365,4.4784,4.475,0.0,4.4536,4.2865,4.2046,4.1852,4.0797,4.0563,4.1016,4.2386,4.4075,4.5364,4.3008,4.3662,4.5544,4.4925,4.4682,4.4615,4.4649,4.4649,4.4615,4.4615,4.4615,4.4615,4.4615,4.4587,4.4356,4.3646,4.3415,0.0,0.0,0.0,4.199,0.0,0.0,0.0,0.0,0.0,0.0,0.0,0.0,0.0,0.0,0.0,0.0,0.0,0.0,0.0,0.0,0.0,3.4563,3.4563,3.4563,3.4833,0.0,3.5519,3.5519,3.5549,3.5519,3.5519,3.5549,3.5519,3.5519,3.5549,3.5549,3.5549,3.5549,3.5579,3.5938,3.6507,3.5878,3.6327,3.7494,3.7464,3.7853,3.8512,3.92,3.9858,4.0367,3.9738,3.9529,3.9582,4.2049,4.3064,4.3741,0.0,4.2124,4.199,0.0,0.0,0.0,0.0,5.629,5.9868,5.8438,6.0558,6.1487,6.0141,6.0204,0.0,0.0,0.0,0.0,5.1657,5.1488,4.9898,4.6583,4.7597,0.0,4.5703,0.0,4.6447,4.7297,4.621,4.6177,4.7022,4.6481,4.5906,4.5341,4.4266,4.2719,4.0961,4.0026,4.1111,4.3184,0.0,4.4592,4.7833,4.5574,4.473,4.487,4.59,4.5529,4.4716,4.5229,4.5026,4.4615,4.4615,4.4615,4.4615,4.4615,4.4121,4.3735,4.4176,4.3791,4.3123,0.0,0.0,0.0,0.0,0.0,0.0,0.0,0.0,0.0,0.0,0.0,0.0,0.0,0.0,0.0,0.0,0.0,0.0,0.0,0.0,3.525,3.525,3.525,3.531,3.5489,0.0,3.5729,3.6207,3.5759,3.5729,3.6237,3.5759,3.5759,3.6237,3.6237,3.6237,3.6237,3.6716,3.7015,3.7165,3.6985,3.7674,3.8871,3.8362,3.8542,3.923,3.9888,4.0546,4.1115,4.0935,4.0876,4.0965,4.2354,0.0,0.0,4.537,0.0,0.0,4.5719,4.845,0.0,5.1556,5.6793,0.0,5.8038,6.0423,6.1897,6.1295,6.1052,0.0,5.97,0.0,0.0,5.3619,5.2739,5.0879,4.7834,4.8274,0.0,4.6177,0.0,4.6616,4.7394,4.6244,4.6143,4.6921,4.6515,4.6278,4.6085,4.4476,4.2973,4.1589,4.1056,4.1983,0.0,4.3795,4.5538,4.7845,4.6971,4.6148,4.5547,4.6098,4.5534,4.4682,4.5094,4.4925,4.4615,4.4615,4.4615,4.4615,4.4615,4.427,4.3977,4.4468,4.4241,4.3756,4.338,4.2932,4.2357,0.0,0.0,0.0,0.0,0.0,0.0,0.0,0.0,0.0,0.0,0.0,0.0,0.0,0.0,0.0,0.0,3.522,3.519,3.5489,3.522,3.519,0.0,0.0,3.5818,3.6477,3.6387,3.6507,3.6896,3.6537,3.6537,3.6896,3.6626,3.6626,3.6896,3.7255,3.7554,3.7823,3.7524,3.8182,3.9379,3.8691,3.8811,3.9529,4.0457,4.1235,4.1871,4.2132,4.1863,4.1482,4.2997,0.0,0.0,0.0,0.0,0.0,0.0,5.0178,0.0,5.266,0.0,5.8243,5.6831,5.9297,6.1233,6.1695,0.0,6.0771,5.9359,5.8592,5.69,5.4059,5.3179,5.1623,4.9187,4.8545,0.0,0.0,0.0,4.6853,4.6921,4.6177,4.5906,4.6007,4.6007,0.0,0.0,4.4203,4.3051,4.286,4.2812,4.298,4.3528,4.57,4.6681,4.7005,4.7793,4.7564,4.6853,4.621,4.5432,4.475,4.475,4.4682,4.4615,4.4615,4.4615,4.4615,4.4615,4.4615,4.4615,4.4615,4.4615,4.4615,4.4615,4.4497,4.4207,4.3472,4.2154,4.0863,0.0,0.0,0.0,0.0,0.0,0.0,0.0,0.0,0.0,0.0,0.0,0.0,0.0,0.0,3.4861,3.5459,3.4951,0.0,0.0,0.0,3.5848,3.6596,3.7045,3.7375,3.7524,3.7464,3.7464,3.7524,3.6985,3.7015,3.7524,3.7644,3.7943,3.8362,3.7883,3.8332,3.9343,3.8781,3.8931,3.9679,4.0905,4.1811,4.247,4.309,4.2611,4.1624,4.5906,0.0,0.0,0.0,0.0,5.1373,5.4926,5.6777,5.7418,5.6383,6.1161,6.3347,5.9813,6.046,6.1077,6.0914,6.0408,0.0,0.0,0.0,0.0,5.6325,5.5513,5.3484,4.9965,4.9763,4.9052,0.0,0.0,4.7124,4.7669,4.6955,4.6921,4.75,0.0,0.0,4.5651,4.443,0.0,4.3029,4.2876,4.4069,4.5996,4.642,4.7396,4.8596,4.8754,4.8342,4.7669,4.7534,4.6616,4.55,4.55,4.5094,4.4615,4.4615,4.4615,4.4615,4.4615,4.4615,4.4615,4.4615,4.4615,4.4615,4.4615,4.4035,4.3502,4.332,4.261,4.1513,3.9997,0.0,0.0,0.0,0.0,0.0,0.0,0.0,0.0,0.0,0.0,0.0,0.0,0.0,0.0,0.0,0.0,0.0,0.0,0.0,3.6058,0.0,3.6866,0.0,0.0,0.0,3.7674,3.8212,3.8093,3.8123,3.8242,3.8811,3.8811,3.8422,3.8871,3.9164,3.9373,3.9254,3.9619,4.0307,4.1085,4.1811,4.247,4.309,4.314,4.2961,0.0,0.0,0.0,0.0,0.0,0.0,0.0,6.0156,6.0299,5.8865,6.0961,6.1688,5.9238,6.0143,6.1154,6.1692,6.0251,5.9587,6.0358,5.8396,5.6663,5.5395,5.4628,0.0,5.0744,5.0304,4.956,4.8477,0.0,0.0,4.7872,4.7158,4.6989,4.7327,0.0,4.7319,0.0,0.0,0.0,4.5407,4.4942,4.5697,4.7176,4.766,4.8337,4.9018,4.9018,4.8781,4.8409,4.8007,4.7192,4.6278,4.6278,4.6007,4.5698,4.5263,4.5162,4.5094,4.4716,4.4615,4.4615,4.4615,4.4615,4.4615,4.4615,4.4298,4.3977,4.3977,4.3322,4.2272,4.0674,4.0762,0.0,0.0,0.0,0.0,0.0,0.0,0.0,0.0,0.0,0.0,0.0,0.0,0.0,0.0,0.0,0.0,0.0,0.0,3.6088,0.0,0.0,0.0,3.8901,0.0,3.8601,3.8901,3.8571,3.8571,3.8931,3.926,3.923,3.8931,3.926,3.9373,3.9373,3.9373,3.9798,4.0457,4.1115,4.1811,4.247,4.309,4.329,4.329,0.0,5.142,0.0,0.0,5.5966,5.7515,6.1465,6.2172,6.1953,6.1195,6.0485,5.974,5.9036,5.99,6.1005,6.2355,6.0223,5.8991,5.9334,5.664,5.4785,5.4283,5.3527,5.2677,5.1726,5.0642,4.9796,0.0,0.0,0.0,4.7872,4.7327,4.6955,0.0,0.0,0.0,0.0,0.0,4.6517,4.7342,4.6979,4.7241,4.7966,4.8736,4.9018,4.9018,4.9018,4.9018,4.8917,4.8342,4.7665,4.6989,4.6853,4.6786,4.6684,4.6109,4.5838,4.5568,4.4993,4.4716,4.4615,4.4615,4.4615,4.4615,4.4615,4.4615,4.4615,4.4615,4.3919,4.3005,4.1929,4.2136,0.0,0.0,0.0,0.0,0.0,0.0,0.0,0.0,0.0,0.0,0.0,0.0,0.0,0.0,0.0,0.0,3.5519,0.0,0.0,0.0,0.0,3.8571,3.9373,0.0,3.9373,3.9373,3.8871,3.8901,3.9373,3.9373,3.9373,3.9403,3.9559,3.9709,3.9798,3.9529,3.9888,4.0666,4.1175,4.1811,4.247,4.309,4.329,4.329,0.0,0.0,0.0,0.0,0.0,6.0328,6.3784,6.3498,6.3274,6.4314,6.3276,6.246,6.2365,6.0863,6.0374,6.1599,5.9931,5.8722,5.8609,5.7288,5.6044,5.504,5.4288,5.3675,5.3281,5.1183,5.0067,0.0,0.0,4.7804,0.0,4.7804,0.0,0.0,0.0,0.0,0.0,4.6946,4.7111,4.6715,4.7276,4.8062,4.8892,4.8987,4.9018,4.9018,4.9018,4.9018,4.8984,4.8917,4.8409,4.7699,4.6989,4.6786,4.6786,4.6718,4.621,4.5703,4.5635,4.5094,4.4615,4.4615,4.4615,4.4615,4.4615,4.4615,4.4615,4.4615,4.3919,4.3499,4.414,4.3668,4.3161,0.0,0.0,0.0,0.0,0.0,0.0,0.0,0.0,0.0,0.0,3.6508,0.0,0.0,3.5519,0.0,0.0,0.0,0.0,3.7375,3.7464,3.8123,3.9373,3.9373,3.9373,3.9373,3.9349,3.9313,3.9373,3.9373,3.9373,3.9403,4.0038,4.0636,4.1115,3.9918,4.0157,4.1294,4.1392,4.1811,4.247,4.309,4.329,4.329,0.0,0.0,0.0,0.0,0.0,0.0,0.0,6.4531,6.3943,6.518,6.4476,6.3715,6.3285,6.1426,6.0758,6.1955,5.9076,5.7535,5.8437,5.5676,5.3884,5.3549,5.3161,5.2813,5.2555,5.1832,5.1183,0.0,0.0,0.0,0.0,0.0,0.0,0.0,0.0,4.7649,4.7611,4.7713,4.7881,4.8046,4.8316,4.8639,4.9018,4.9018,4.9018,4.9018,4.9018,4.9018,4.9018,4.9018,4.8815,4.8511,4.8206,4.8105,4.8037,4.7597,4.7259,4.6921,4.6481,4.5805,4.5263,4.5263,4.4925,4.4615,4.4615,4.4615,4.4615,4.4615,4.4327,4.4179,4.4559,4.4327,4.4064,4.4064,0.0,0.0,0.0,0.0,0.0,0.0,0.0,0.0,0.0,0.0,0.0,0.0,0.0,0.0,0.0,0.0,0.0,3.7375,0.0,3.8452,3.9373,3.9373,3.9373,3.9373,3.9373,3.9373,3.9403,3.9828,4.0217,4.0606,4.0876,4.1145,4.1354,4.0816,4.0905,4.1452,4.1841,4.2171,4.247,4.309,4.329,4.329,6.1163,0.0,6.1603,0.0,6.3457,6.3206,6.661,6.4928,6.366,6.4698,6.3902,6.315,6.3012,6.1873,6.1317,6.1837,5.908,5.7528,5.7952,5.4889,5.2886,5.2647,5.2426,0.0,5.2511,5.2369,5.2063,5.1522,5.0574,0.0,0.0,0.0,0.0,0.0,4.78,4.7902,4.868,4.8376,4.8545,4.9018,4.9018,4.9018,4.9018,4.9018,4.9018,4.9018,4.9018,4.9018,4.9018,4.9018,4.9018,4.9018,4.9018,4.9018,4.8917,4.8376,4.8041,4.777,4.7259,4.6583,4.5974,4.5771,4.5297,4.4886,4.4649,4.4615,4.4615,4.4615,4.4615,4.4615,4.4615,4.4615,4.4615,4.4615,0.0,0.0,0.0,0.0,0.0,0.0,4.1016,3.9691,3.7789,3.7397,0.0,0.0,0.0,0.0,0.0,0.0,0.0,0.0,0.0,0.0,3.9373,3.9373,3.9373,3.9373,3.9619,3.9709,3.9738,4.0397,4.1055,4.1692,4.1512,4.1594,4.1923,4.1534,4.1594,4.1983,4.2291,4.253,4.2701,4.311,4.329,4.329,6.3971,6.4546,6.5493,6.8504,6.7302,6.6365,6.7689,6.4556,6.2206,6.2771,6.1146,6.038,6.1597,6.2111,6.1877,6.0712,6.0586,5.9464,5.698,5.5687,5.4371,0.0,0.0,5.2842,5.3954,5.2871,5.23,5.23,0.0,0.0,5.0067,0.0,4.8612,4.7939,4.868,4.8578,4.7939,4.868,4.8984,4.9018,4.9018,4.9018,4.9018,4.9018,4.9018,4.9018,4.9018,4.9018,4.9018,4.9018,4.9018,4.9018,4.9018,4.9018,4.9018,4.8984,4.8477,4.7906,4.7872,4.7361,4.6616,4.5872,4.5703,4.55,4.4784,4.4615,4.4615,4.4615,4.4615,4.4615,4.4615,4.4615,4.4615,4.4615,0.0,0.0,0.0,0.0,0.0,0.0,4.2088,4.0875,4.0122,3.9343,0.0,0.0,0.0,0.0,0.0,0.0,0.0,3.8332,3.8392,0.0,3.9373,3.9373,3.9373,3.9403,4.0068,4.0397,4.0397,4.1055,4.1752,4.2351,4.1692,4.2102,4.317,4.1923,4.2132,4.32,4.265,4.2761,4.329,4.329,4.329,4.329,6.5053,6.5764,6.6406,6.7387,6.6583,6.5917,6.6331,6.3766,6.1841,6.2035,5.9934,5.8499,5.8476,5.8637,5.887,0.0,5.7459,5.6371,0.0,5.4466,5.2627,5.1568,5.2049,5.2076,5.1533,5.2592,5.2841,5.23,0.0,0.0,0.0,4.9864,4.9357,4.868,4.8917,4.8883,4.868,4.8917,4.9018,4.9018,4.9018,4.9018,4.9052,4.956,4.9729,4.983,5.0338,5.0507,5.0439,4.9932,4.9729,4.9661,4.9154,4.9018,4.9018,4.9018,4.8849,4.8646,4.8646,4.8105,4.7394,4.6616,4.6075,4.55,4.4784,4.4615,4.4615,4.4615,4.4615,4.4615,4.4615,4.4615,4.4615,4.4615,4.4615,0.0,0.0,0.0,0.0,0.0,4.3008,4.2206,4.0965,4.0056,0.0,0.0,0.0,0.0,0.0,0.0,0.0,0.0,3.908,0.0,4.0098,4.0098,4.0098,4.0098,4.0756,4.1294,4.1782,4.1991,4.2402,4.3,4.2791,4.294,4.326,4.2841,4.2901,4.326,4.312,4.315,4.329,4.329,4.329,4.329,6.5595,6.6068,6.6474,6.6779,6.644,6.6,6.573,6.3633,6.1883,6.1153,5.8979,5.7118,5.6046,5.5931,0.0,5.766,5.6404,5.5566,5.5651,5.4027,5.2558,5.1289,5.2067,5.2152,5.135,5.2759,0.0,5.2739,5.2469,5.1691,5.0507,5.0507,5.027,4.983,4.9526,4.9424,4.939,4.912,4.9018,4.9018,4.9289,4.9424,4.9492,5.0236,5.0507,5.0574,5.1048,5.1048,5.071,5.0236,4.9898,4.9593,4.9154,4.9018,4.9018,4.9018,4.9018,4.9018,4.9018,4.868,4.8139,4.7394,4.665,4.5838,4.4852,4.479,4.4925,4.4682,4.4615,4.4615,4.4615,4.4615,4.4615,4.4615,4.4615,4.4615,4.4615,0.0,0.0,0.0,0.0,0.0,0.0,4.1539,4.0599,0.0,0.0,0.0,0.0,0.0,0.0,3.9768,3.9798,4.0098,4.0756,4.0756,4.0756,4.0786,4.1482,4.2141,4.2731,4.2731,4.294,4.329,4.329,4.329,4.329,4.329,4.329,4.329,4.329,4.329,4.329,4.329,4.329,4.3319,6.5696,6.573,6.5967,0.0,6.6669,6.6398,6.5613,6.3857,6.1983,6.0155,5.8247,5.6378,5.4608,5.434,5.4661,5.5719,0.0,0.0,5.403,5.4335,5.3767,5.1896,5.2602,5.3033,5.2935,5.334,5.3551,5.3518,5.2739,5.1995,5.1285,5.1285,5.1219,5.1183,5.0439,5.0101,5.0033,4.9323,4.9052,4.9154,4.983,5.0135,5.0236,5.1014,5.1285,5.1252,5.132,5.0913,5.0304,5.0202,4.9729,4.912,4.9052,4.9018,4.9018,4.9018,4.9018,4.9018,4.9018,4.9018,4.8815,4.8075,4.7361,4.6413,4.5021,4.5196,4.55,4.475,4.4615,4.4615,4.4615,4.4615,4.4615,4.4615,4.4615,4.4615,4.4615,0.0,0.0,0.0,0.0,0.0,4.3572,4.3449,4.2808,0.0,0.0,0.0,0.0,0.0,3.9253,4.0427,4.0427,4.0726,4.1482,4.1444,4.1474,4.1534,4.2171,4.2761,4.329,4.329,4.329,4.329,4.329,4.329,4.329,4.329,4.329,4.329,4.329,4.329,4.329,4.329,4.3319,4.3439,0.0,0.0,6.628,6.5481,6.521,6.4731,6.361,6.2108,6.0962,6.0509,5.8783,5.7284,5.6426,5.5421,5.4524,5.3917,5.4422,5.4219,5.2725,5.389,5.3767,5.1983,5.3616,5.4091,5.3008,5.3844,5.4059,5.3518,5.3315,5.2807,5.2063,5.2063,5.1758,5.1183,5.0439,5.0101,5.0033,4.9323,4.9323,4.983,5.0033,5.0439,5.1014,5.1758,5.2063,5.2131,5.2739,5.2841,5.2503,5.1352,5.0845,5.0507,4.9357,4.9018,4.9018,4.9018,4.9018,4.9018,4.9018,4.9018,4.8815,4.8075,4.7361,4.6549,4.5635,4.5568,4.55,4.475,4.4615,4.4615,4.4615,4.4615,4.4615,4.4615,4.4615,4.4615,4.4615,4.4615,0.0,0.0,4.4615,4.4547,4.4316,4.3709,4.2999,0.0,0.0,0.0,4.1533,4.1847,4.1728,4.119,4.0666,4.0965,4.2141,4.2171,4.2372,4.2841,4.2991,4.314,4.329,4.329,4.329,4.329,4.329,4.329,4.329,4.329,4.329,4.329,4.329,4.329,4.329,4.329,4.3618,4.4107,6.5561,6.5764,6.5657,6.533,6.5446,6.505,6.3308,6.2699,6.1966,6.0769,5.9716,5.8634,5.7488,5.5936,5.4592,5.3664,5.3298,5.2916,5.255,5.3028,5.3112,5.2649,5.3563,5.3762,5.2971,5.371,5.389,5.3518,5.3518,5.3281,5.2841,5.2841,5.2638,5.2198,5.1116,5.0777,5.1048,4.9965,4.9932,5.0642,5.098,5.1352,5.1792,5.257,5.2841,5.2909,5.3348,5.3281,5.2773,5.1623,5.098,5.0507,4.9357,4.9018,4.9018,4.9018,4.9018,4.9018,4.9018,4.9018,4.8815,4.8075,4.7868,4.753,4.6447,4.6481,4.6413,4.5297,4.5094,4.4993,4.4682,4.4615,4.4615,4.4615,4.4615,4.4615,4.4615,4.4615,0.0,4.4615,4.4615,4.4615,4.4615,4.415,4.3752,4.3375,4.3204,0.0,4.3131,4.346,4.3261,4.2535,4.2125,4.2236,4.2791,4.2791,4.3,4.329,4.329,4.329,4.329,4.329,4.329,4.329,4.329,4.329,4.329,4.329,4.329,4.329,4.329,4.329,4.3319,4.3618,4.4018,4.4407,6.5595,6.5358,6.508,6.5522,6.6146,6.5883,6.3694,6.3985,6.3579,6.1161,6.087,6.0187,5.8431,5.6607,5.5152,5.4245,5.3008,5.2425,5.2651,5.2374,5.2551,5.3394,5.3246,5.3147,5.3066,5.334,5.3518,5.3518,5.3518,5.3518,5.3518,5.3518,5.3518,5.345,5.1995,5.1725,5.2198,5.0845,5.0676,5.142,5.2063,5.2367,5.257,5.3247,5.3518,5.3518,5.3518,5.3078,5.2367,5.1623,5.0947,5.0304,4.956,4.9255,4.9187,4.9187,4.9086,4.9018,4.9018,4.9018,4.8849,4.821,4.8545,4.8646,4.7293,4.7462,4.7466,4.6007,4.5703,4.5466,4.475,4.4615,4.4615,4.4615,4.4615,4.4615,4.4615,0.0,4.4649,4.475,4.4784,4.4818,4.4919,4.4953,4.4953,4.4953,4.4849,4.479,4.4922,4.482,4.4641,4.436,4.4008,4.3652,4.329,4.329,4.329,4.329,4.329,4.329,4.329,4.329,4.329,4.329,4.329,4.329,4.329,4.329,4.329,4.329,4.329,4.3349,4.3499,4.4107,4.4436,4.4766,6.6474,6.6542,6.6179,6.5183,6.5469,6.5161,6.3107,6.3324,6.3282,6.2285,6.211,6.1609,6.0295,5.8829,5.7108,5.5019,5.3602,5.2427,5.1526,5.3128,5.3798,5.3053,5.3871,5.4179,5.3823,5.3608,5.3518,5.3518,5.3518,5.3518,5.3518,5.3518,5.3518,5.345,5.2536,5.2198,5.2232,5.1386,5.1454,5.2131,5.2266,5.2706,5.3348,5.345,5.3518,5.3518,5.3518,5.3416,5.3179,5.2401,5.2063,5.1826,5.1116,5.0439,4.9932,4.9932,4.9492,4.9018,4.9018,4.9018,4.8984,4.8849,4.8917,4.8781,4.7936,4.7804,4.7466,4.6007,4.5703,4.5466,4.475,4.4615,4.4615,4.4615,4.4615,4.4615,4.4615,0.0,4.4852,4.5466,4.5534,4.5771,4.638,4.6447,4.6447,4.6447,4.6461,4.6709,4.7315,4.7328,4.7228,4.7009,4.4911,4.3652,4.329,4.329,4.329,4.329,4.329,4.329,4.329,4.329,4.329,4.329,4.329,4.329,4.329,4.329,4.329,4.329,4.329,4.3648,4.4167,4.4287,4.5035,4.601,6.5392,6.5324,6.4956,6.479,6.5262,6.5125,6.3367,6.3672,6.37,6.255,6.2381,6.2223,6.1635,5.9506,5.7517,5.6119,5.3866,5.2167,5.1229,5.22,5.2812,5.29,5.3008,5.3209,5.3391,5.3474,5.3518,5.3518,5.3518,5.3518,5.3518,5.3518,5.3518,5.345,5.2672,5.2536,5.2909,5.2131,5.2232,5.2942,5.2942,5.3179,5.3518,5.3518,5.3518,5.3518,5.3518,5.3518,5.3382,5.257,5.23,5.2164,5.1454,5.098,5.071,5.071,4.9898,4.9018,4.9018,4.9018,4.9018,4.9018,4.9018,4.8917,4.8578,4.8511,4.8206,4.7124,4.6583,4.6075,4.5331,4.4886,4.4615,4.4615,4.4615,0.0,4.4615,4.4925,4.5331,4.5669,4.6041,4.6413,4.6752,4.6786,4.6786,4.6786,4.7158,4.7564,4.7872,4.8277,4.8241,4.7605,4.5496,4.4247,4.409,4.3566,4.329,4.329,4.329,4.329,4.329,4.329,4.329,4.329,4.329,4.329,4.329,4.329,4.329,4.3319,4.3678,4.4047,4.4407,4.5125,4.5741,4.6339,6.458,6.441,6.4208,6.4749,6.5324,6.5189,6.3734,6.4005,6.3869,6.255,6.2381,6.2381,6.2381,6.0134,5.8312,5.7549,5.4861,5.2961,5.2292,5.1737,5.1769,5.2485,5.1907,5.1936,5.2753,5.3023,5.3247,5.3518,5.3518,5.3518,5.3518,5.3518,5.3518,5.3484,5.2841,5.2909,5.345,5.2841,5.2841,5.3247,5.3416,5.3382,5.3247,5.345,5.3518,5.3518,5.3518,5.3518,5.3416,5.2807,5.257,5.2469,5.1928,5.1623,5.1488,5.1488,5.0405,4.9221,4.9052,4.9018,4.9018,4.9018,4.9018,4.9018,4.9018,4.9018,4.8815,4.8041,4.7462,4.6819,4.6109,4.55,4.5122,4.5122,0.0,4.4886,0.0,4.5331,4.5771,4.594,4.6616,4.7124,4.7293,4.7293,4.7293,4.7293,4.7834,4.8173,4.8173,4.8714,4.8671,4.7933,4.5885,4.4812,4.4812,4.381,4.329,4.329,4.3439,4.3439,4.329,4.3618,4.3678,4.3529,4.3678,4.3738,4.3738,4.3738,4.3738,4.3838,4.4347,4.4646,4.4915,4.5891,4.6369,4.6621,6.5324,6.5561,6.5561,6.5595,6.5662,6.5189,6.3734,6.3565,6.3294,6.2482,6.2381,6.2381,6.2381,6.1587,6.061,5.9474,5.7538,5.6101,5.5399,5.3346,5.1905,5.1323,5.1036,5.132,5.2309,5.21,5.2522,5.3518,5.3518,5.3518,5.3518,5.3518,5.3518,5.3518,5.345,5.345,5.3518,5.345,5.301,5.2469,5.3213,5.3044,5.2469,5.3213,5.3518,5.3518,5.3518,5.3518,5.3484,5.345,5.3416,5.3416,5.3348,5.2841,5.2232,5.2232,5.1183,4.9864,4.9187,4.9018,4.9018,4.9018,4.9018,4.9018,4.9018,4.9018,4.8815,4.8041,4.7838,4.7597,4.6853,4.665,4.6616,4.6616,0.0,0.0,4.5635,4.5669,4.594,4.6616,4.7394,4.8105,4.8781,4.8849,4.8849,4.8849,4.8883,4.8917,4.8917,4.8984,4.8987,4.8892,4.624,4.4812,4.4812,4.381,4.329,4.329,4.3958,4.3888,4.3319,4.4586,4.4825,4.4287,4.4885,4.5155,4.5155,4.5155,4.5155,4.5155,4.5214,4.5603,4.613,4.6249,4.6711,4.7249,6.3531,6.3632,6.3802,6.4275,6.4343,6.414,6.3599,6.3531,6.326,6.2482,6.2381,6.2381,6.2381,6.1482,6.0513,5.9688,5.7806,5.6413,5.5751,5.4415,5.2911,5.1276,5.1359,5.1375,5.1372,5.1517,5.1871,5.2522,5.2522,5.2835,5.3518,5.3518,5.3518,5.3518,5.3518,5.3518,5.3518,5.3518,5.3315,5.3078,5.3382,5.3315,5.3078,5.3382,5.3518,5.3518,5.3518,5.3518,5.3518,5.3518,5.3518,5.3518,5.3518,5.3281,5.2942,5.2469,5.1589,5.0642,4.9864,4.9357,4.9018,4.9018,4.9018,4.9018,4.9018,4.9018,4.8917,4.8646,4.824,4.7804,4.753,4.7124,4.6786,4.6786,0.0,4.638,4.638,4.6786,4.7192,4.7462,4.8139,4.8714,4.8984,4.9018,4.9018,4.9018,4.9018,4.9018,4.9018,4.9018,4.9018,4.9018,4.6831,4.567,4.567,4.507,4.4504,4.3958,4.4616,4.4796,4.4556,4.5065,4.5155,4.4945,4.5185,4.5304,4.5304,4.5304,4.5304,4.5334,4.5753,4.6082,4.6339,4.677,4.71,4.7309,6.2685,6.2753,6.2888,6.3429,6.3531,6.3429,6.3193,6.3159,6.2956,6.2448,6.2381,6.2381,6.2381,6.1676,6.0994,6.0536,5.8909,5.7686,5.7119,5.5848,5.4221,5.235,5.2107,5.1957,5.1828,5.166,5.1862,5.2383,5.2383,5.28,5.3518,5.3518,5.3518,5.3518,5.3518,5.3518,5.3518,5.3518,5.3348,5.3145,5.3416,5.3348,5.3145,5.3416,5.3518,5.3518,5.3518,5.3518,5.3518,5.3518,5.3518,5.3518,5.3518,5.3518,5.3348,5.2536,5.1961,5.1386,5.0642,5.0067,4.9593,4.912,4.9187,4.9289,4.9052,4.9018,4.9018,4.9018,4.8612,4.8274,4.8274,4.7834,4.7496,4.7496,4.7293,4.7158,4.7158,4.7597,4.7906,4.7906,4.8578,4.9018,4.9018,4.9018,4.9018,4.9018,4.8736,4.8545,4.8545,4.8545,4.8646,4.888,4.7634,4.6763,4.6344,4.5649,4.4938,4.4317,4.5214,4.5394,4.5005,4.5633,4.5813,4.5633,4.5843,4.5933,4.5933,4.5933,4.5933,4.5963,4.6441,4.6621,4.6681,4.713,4.7309,4.7309,6.3362,6.3497,6.3497,6.3497,6.3497,6.326,6.2516,6.2381,6.2381,6.2381,6.2381,6.2381,6.2381,6.2381,6.2381,6.2381,6.1317,6.0447,6.0106,5.7648,5.577,5.4672,5.3285,5.2953,5.3917,5.2573,5.2416,5.3484,5.3484,5.345,5.3518,5.3518,5.3518,5.3518,5.3518,5.3518,5.3518,5.3518,5.3044,5.2367,5.3179,5.301,5.2401,5.3213,5.3518,5.3518,5.3518,5.3518,5.3518,5.3518,5.3518,5.3518,5.3518,5.3518,5.3348,5.2536,5.23,5.2131,5.142,5.1217,5.0879,4.939,4.956,4.9898,4.9187,4.9018,4.9018,4.9018,4.9018,4.9018,4.9018,4.9018,4.9018,4.9018,4.8409,4.7906,4.7906,4.7906,4.7906,4.7906,4.8578,4.9018,4.9018,4.9018,4.9018,4.9018,4.8129,4.7638,4.7638,4.7638,4.7935,4.8626,4.8592,4.7981,4.6725,4.5142,4.4317,4.4347,4.5693,4.5633,4.4407,4.6411,4.695,4.6339,4.701,4.7309,4.7309,4.7309,4.7309,4.7309,4.7309,4.7309,4.7309,4.7309,4.7309,4.7309,6.2685,6.2719,6.2719,6.2719,6.2719,6.2651,6.2415,6.2381,6.2381,6.2381,6.2381,6.2381,6.2381,6.2381,6.2381,6.2381,6.1599,6.0578,5.94,5.813,5.726,5.6925,5.3815,5.165,5.0715,4.9808,4.9999,5.1336,5.1336,5.2062,5.3518,5.3518,5.3518,5.3518,5.3518,5.3518,5.3518,5.3518,5.3382,5.3179,5.3416,5.3382,5.3179,5.3416,5.3518,5.3518,5.3518,5.3518,5.3518,5.3518,5.3518,5.3518,5.3518,5.3112,5.2739,5.3044,5.2401,5.1589,5.1894,5.1961,5.1758,5.0777,5.0304,5.0033,4.983,4.9357,4.9018,4.9018,4.9018,4.9018,4.9018,4.9018,4.9018,4.9018,4.8815,4.868,4.868,4.868,4.868,4.868,4.8883,4.9018,4.9018,4.9018,4.9018,4.9018,4.9239,4.9582,5.0087,5.0121,5.0221,5.039,4.9106,4.8428,4.8529,4.7291,4.6336,4.5681,4.6591,4.68,4.6441,4.704,4.7189,4.701,4.7219,4.7309,4.7309,4.7309,4.7309,4.7309,4.7309,4.7309,4.7309,4.7309,4.7309,4.7309,6.2381,6.2381,6.2381,6.2381,6.2381,6.2381,6.2381,6.2381,6.2381,6.2381,6.2381,6.2381,6.2381,6.2381,6.2381,6.2381,6.1738,6.0655,5.9133,5.8592,5.8002,5.726,5.4688,5.2596,5.1236,5.0078,5.0141,5.1426,5.1388,5.224,5.3923,5.3653,5.3518,5.3518,5.3518,5.3518,5.3518,5.3518,5.3518,5.3518,5.3518,5.3518,5.3518,5.3518,5.3518,5.3518,5.3518,5.3518,5.3518,5.3518,5.3518,5.3518,5.3518,5.3179,5.2875,5.3382,5.2841,5.2232,5.2672,5.2773,5.2672,5.2232,5.1555,5.0879,5.0608,4.9965,4.9526,4.983,4.9424,4.9086,4.939,4.9187,4.9018,4.9018,4.9018,4.9018,4.9018,4.9018,4.9018,4.9018,4.9018,4.9018,4.9018,4.9018,4.8964,4.8884,4.9587,4.9992,5.0056,5.046,5.0391,4.9826,4.9107,4.8637,4.8502,4.7886,4.7133,4.6279,4.698,4.716,4.692,4.7189,4.7309,4.7309,4.7309,4.7309,4.7309,4.7309,4.7309,4.7309,4.7309,4.7309,4.7309,4.7309,4.7309,4.7309,6.2381,6.2381,6.2381,6.2381,6.2381,6.2381,6.2381,6.2381,6.2381,6.2381,6.2381,6.2381,6.2381,6.2381,6.2381,6.2381,6.1738,6.0723,5.9302,5.9099,5.8249,5.6531,5.5694,5.4962,5.4232,5.2333,5.183,5.2782,5.2786,5.3337,5.4429,5.3822,5.3518,5.3518,5.3518,5.3518,5.3518,5.3518,5.3518,5.3518,5.3518,5.3518,5.3518,5.3518,5.3518,5.3518,5.3518,5.3518,5.3518,5.3518,5.3518,5.3518,5.3518,5.345,5.3416,5.3484,5.345,5.3416,5.3484,5.3518,5.3518,5.3518,5.2942,5.2232,5.1488,5.0744,5.0371,5.1082,5.0135,4.939,4.9965,4.9593,4.9187,4.912,4.9154,4.9187,4.912,4.9154,4.9154,4.9018,4.912,4.9187,4.912,4.9154,4.9144,4.9027,4.9654,4.9637,4.8808,4.9526,4.9426,4.8128,4.8941,4.8749,4.7452,4.7409,4.7066,4.6369,4.701,4.698,4.6399,4.704,4.7309,4.7309,4.7309,4.7309,4.7309,4.7309,4.7309,4.7309,4.7309,4.7309,4.7309,4.7309,4.7309,4.7309,6.2381,6.2381,6.2381,6.2381,6.2381,6.2381,6.2381,6.2381,6.2381,6.2381,6.2381,6.2381,6.2381,6.2381,6.2381,6.2381,6.1738,6.1163,6.0825,5.9674,5.8819,5.8392,5.6407,5.5231,5.5028,5.2403,5.1111,5.1277,5.159,5.2265,5.3265,5.3412,5.3518,5.3518,5.3518,5.3518,5.3518,5.3518,5.3518,5.3518,5.3518,5.3518,5.3518,5.3518,5.3518,5.3518,5.3518,5.3518,5.3518,5.3518,5.3518,5.3518,5.3518,5.3078,5.2672,5.3315,5.3044,5.2706,5.3348,5.3518,5.3518,5.3518,5.3382,5.3044,5.2232,5.1488,5.1014,5.1183,5.098,5.0608,5.0168,5.0439,5.0541,4.9965,5.0338,5.0541,4.9932,5.0371,5.0304,4.9154,5.0033,5.0507,4.9932,5.0371,5.0918,5.1462,5.1664,5.1934,5.2367,5.1777,5.1277,5.0969,5.0478,4.9615,4.847,4.847,4.7981,4.71,4.7249,4.7219,4.71,4.7249,4.7309,4.7309,4.7309,4.7309,4.7309,4.7309,4.7309,4.7309,4.7309,4.7309,4.7309,4.7309,4.7309,4.7309,6.2381,6.2381,6.2381,6.2381,6.2381,6.2381,6.2381,6.2381,6.2381,6.2381,6.2381,6.2381,6.2381,6.2381,6.2245,6.1907,6.1535,6.1129,6.0757,5.9641,5.9032,5.9032,5.7439,5.6283,5.5754,5.4196,5.3277,5.2948,5.3082,5.3531,5.4228,5.4088,5.3822,5.3518,5.3518,5.3518,5.3518,5.3518,5.3518,5.3518,5.3518,5.3518,5.3518,5.3518,5.3518,5.3518,5.3518,5.3518,5.3518,5.3518,5.3518,5.3518,5.3518,5.3213,5.2976,5.3382,5.3213,5.2976,5.3382,5.3518,5.3518,5.3518,5.3518,5.3382,5.2976,5.23,5.1826,5.2232,5.1725,5.105,5.071,5.0947,5.098,5.0202,5.071,5.1082,5.0676,5.098,5.0881,5.0135,5.0744,5.1048,5.0676,5.1285,5.1894,5.2266,5.2672,5.2809,5.2732,5.2205,5.1451,5.0442,5.0397,4.9891,4.8841,4.88,4.8512,4.803,4.7538,4.7309,4.7309,4.7309,4.7309,4.7309,4.7309,4.7309,4.7309,4.7309,4.7309,4.7309,4.7309,4.7309,4.7309,4.7309,4.7309,4.7309,6.2381,6.2381,6.2381,6.2381,6.2381,6.2381,6.2381,6.2381,6.2381,6.2381,6.2381,6.2381,6.2381,6.2381,6.2144,6.1535,6.1501,6.1163,6.0351,5.9607,5.9201,5.9201,5.849,5.7648,5.6674,5.6674,5.6189,5.5154,5.5139,5.5198,5.5402,5.4869,5.4194,5.3518,5.3518,5.3518,5.3518,5.3518,5.3518,5.3518,5.3518,5.3518,5.3518,5.3518,5.3518,5.3518,5.3518,5.3518,5.3518,5.3518,5.3518,5.3518,5.3518,5.3518,5.3518,5.3518,5.3518,5.3518,5.3518,5.3518,5.3518,5.3518,5.3518,5.3518,5.3518,5.2976,5.2706,5.3382,5.2503,5.1523,5.1388,5.1522,5.1352,5.0608,5.1116,5.1555,5.142,5.1522,5.1522,5.1219,5.1319,5.1454,5.1589,5.2164,5.2503,5.2503,5.3112,5.311,5.2241,5.1993,5.1043,4.9135,4.9931,4.9813,4.8553,4.8718,4.8718,4.8512,4.78,4.7429,4.7309,4.7309,4.7309,4.7309,4.7309,4.7309,4.7309,4.7309,4.7309,4.7309,4.7309,4.7309,4.7309,4.7309,4.7309,4.7309,6.2381,6.2381,6.2381,6.2381,6.2381,6.2381,6.2381,6.2381,6.2381,6.2381,6.2381,6.2381,6.2381,6.2381,6.2347,6.2245,6.2245,6.1907,6.1197,6.0385,5.9945,5.9945,5.9235,5.8788,5.8605,5.8605,5.7332,5.4677,5.4979,5.4825,5.425,5.4487,5.4194,5.3518,5.3518,5.3518,5.3518,5.3518,5.3518,5.3518,5.3518,5.3518,5.3518,5.3518,5.3518,5.3518,5.3518,5.3518,5.3518,5.3518,5.3518,5.3518,5.3518,5.3518,5.3518,5.3518,5.3518,5.3518,5.3518,5.3518,5.3518,5.3518,5.3518,5.3518,5.3518,5.3416,5.3382,5.3484,5.3348,5.2976,5.2266,5.2739,5.2942,5.2131,5.2672,5.2942,5.2266,5.2739,5.2706,5.1386,5.1758,5.2435,5.3112,5.3281,5.3348,5.3348,5.345,5.3416,5.3314,5.2383,5.1377,5.0204,5.032,4.9487,4.7538,4.8377,4.8377,4.7495,4.7965,4.7848,4.7309,4.7309,4.7309,4.7309,4.7309,4.7309,4.7309,4.7309,4.7309,4.7309,4.7309,4.7309,4.7309,4.7309,4.7309,4.7309,6.2381,6.2381,6.2381,6.2381,6.2381,6.2381,6.2381,6.2381,6.2381,6.2381,6.2381,6.2381,6.2381,6.2381,6.2381,6.2381,6.2009,6.1806,6.1907,6.0791,6.0114,6.0114,5.9404,5.8829,5.8389,5.8389,5.7779,5.6432,5.6154,5.5475,5.4338,5.4494,5.4194,5.3518,5.3518,5.3518,5.3518,5.3518,5.3518,5.3518,5.3518,5.3518,5.3518,5.3518,5.3518,5.3518,5.3518,5.3518,5.3518,5.3518,5.3518,5.3518,5.3518,5.3518,5.3518,5.3518,5.3518,5.3518,5.3518,5.3518,5.3518,5.3518,5.3518,5.3518,5.3518,5.3518,5.3518,5.3518,5.3518,5.3247,5.2469,5.2976,5.3247,5.2435,5.2976,5.3382,5.301,5.3281,5.3247,5.257,5.2773,5.3112,5.3484,5.3518,5.3518,5.3518,5.3518,5.3518,5.3518,5.2487,5.1414,5.0435,5.0742,5.0254,4.8706,4.9508,4.9693,4.9255,4.8966,4.8506,4.7848,4.7848,4.8057,4.8356,4.7638,4.7519,4.7818,4.7459,4.7309,4.7309,4.7309,4.7309,4.7309,4.7309,4.7309,4.7309]}]]